[[[{"header":{"parameterUnit":"kt","parameterCategory":2,"dx":1,"dy":1,"la1":29.285339999999998,"la2":30.599998999999997,"lo1":-89.70041500000002,"lo2":-87.6738589999976,"nx":112,"ny":82,"refTime":"2022-09-25T06:00:00:Z","depth":0,"parameterNumber":1,"parameterNumberName":"U-component_of_WINDS"},"data":[13.0113,12.9066,12.7795,12.6075,12.5253,12.4654,12.4056,12.271,12.1065,11.942,11.77,11.5756,11.3064,0.0,0.0,0.0,0.0,0.0,0.0,10.9175,11.0297,11.1419,11.5905,12.0168,12.3533,12.8767,13.3403,13.6768,14.0432,14.3349,14.5143,14.6265,14.7088,14.7686,14.8808,15.0154,15.1724,15.3369,15.5089,15.6734,15.7332,15.7631,15.7631,15.7631,15.7631,15.7631,15.7631,15.7676,15.7907,15.7907,15.7942,15.808,15.8347,15.8393,15.8253,15.8493,15.8393,15.7975,15.7975,15.7942,15.7962,15.8581,15.8704,15.8782,15.9408,15.9558,15.9666,15.9932,15.9987,15.9987,15.9987,15.9987,15.9987,15.9987,15.9987,15.9835,15.9228,15.9076,15.8544,15.6874,15.6115,15.5052,15.2926,15.209,15.1711,15.1711,15.0799,15.004,15.004,15.004,15.004,15.004,15.004,15.004,15.004,15.004,15.004,15.004,15.004,15.004,15.004,14.9955,14.9625,14.9038,14.9569,14.9569,14.8962,14.9569,14.9873,14.9873,14.9873,14.9873,12.6823,12.5178,12.3682,12.2561,12.1364,12.0542,12.0542,11.9345,11.77,11.6055,11.5232,11.4036,11.1269,0.0,0.0,0.0,0.0,0.0,0.0,11.0222,11.269,11.5457,12.0168,12.4505,12.772,13.3029,13.7142,13.9386,14.305,14.5443,14.6041,14.7162,14.7985,14.8583,14.963,15.1275,15.3444,15.4565,15.5986,15.7631,15.7631,15.7631,15.7631,15.7631,15.7631,15.7631,15.7631,15.7631,15.7631,15.7631,15.7676,15.7832,15.8131,15.83,15.8482,15.8696,15.8535,15.8253,15.8393,15.8181,15.7962,15.843,15.8431,15.8392,15.9107,15.9371,15.9527,15.9765,15.9941,15.9987,15.9987,15.9987,15.9987,15.9987,15.9987,15.9987,15.9987,15.9987,15.9683,15.8544,15.7861,15.6798,15.4596,15.4216,15.3837,15.2774,15.1635,15.0724,15.0116,15.004,15.004,15.004,15.004,15.004,15.004,15.004,15.004,15.004,15.004,15.004,15.004,14.9947,14.9837,14.9873,14.9873,14.9873,14.9873,14.9873,14.9873,14.9873,14.9873,14.9873,12.3308,12.1738,12.0542,12.0467,11.7999,11.5606,11.5606,11.441,11.284,11.1194,11.2167,11.284,11.1194,0.0,0.0,0.0,0.0,0.0,0.0,11.1419,11.5382,12.0317,12.5253,12.959,13.288,13.617,13.9386,14.2676,14.4396,14.6041,14.7611,14.7761,14.8583,15.0228,15.0378,15.1948,15.5089,15.5164,15.6061,15.7631,15.7631,15.7631,15.7631,15.7631,15.7631,15.7631,15.7631,15.7631,15.7631,15.7631,15.7832,15.8205,15.8205,15.8407,15.8772,15.8772,15.8535,15.83,15.8657,15.8535,15.8181,15.7962,15.7907,15.8147,15.85,15.8883,15.9239,15.9505,15.98,15.9987,15.9986,15.9986,15.9986,15.9987,15.9987,15.9987,15.9987,15.9987,15.9987,15.9987,15.862,15.7481,15.7481,15.7481,15.6418,15.3229,15.2622,15.2014,15.0344,15.0116,15.004,15.004,15.004,15.004,15.004,15.004,15.004,15.004,15.004,15.004,15.004,14.9929,14.9873,14.9873,14.9873,14.9873,14.9873,14.9873,14.9873,14.9873,14.9873,14.9873,11.8448,11.7401,11.6803,11.5606,11.4634,11.3961,11.3961,11.3662,11.3213,11.269,11.2989,0.0,0.0,0.0,0.0,0.0,0.0,11.4709,11.3737,11.6578,12.0542,12.5477,12.9365,13.3403,13.789,14.1255,14.3573,14.4545,14.6116,14.7237,14.7686,14.8882,14.978,15.0228,15.2546,15.4266,15.5164,15.636,15.7183,15.7631,15.7631,15.7631,15.7631,15.7631,15.7631,15.7631,15.7631,15.7631,15.7631,15.7631,15.7751,15.785,15.8131,15.83,15.8438,15.8438,15.8347,15.8253,15.8393,15.8131,15.785,15.7907,15.8206,15.8497,15.8731,15.8798,15.8994,15.9284,15.937,15.9482,15.9694,15.9711,15.9711,15.9968,15.9987,15.9987,15.9987,15.9987,15.9987,15.9987,15.9607,15.8924,15.7633,15.7481,15.7178,15.6267,15.414,15.2394,15.1938,15.0799,15.004,15.004,15.004,15.004,15.004,15.004,15.004,15.004,15.004,15.0039,14.9955,14.9913,14.9873,14.9873,14.9873,14.9873,14.9873,14.9873,14.9873,14.9873,14.9873,14.9873,11.3513,11.254,11.2316,11.1419,11.1194,11.1194,11.1194,11.1718,11.2241,11.2241,0.0,0.0,0.0,0.0,0.0,0.0,11.7251,11.8523,11.785,12.0616,12.4879,13.0562,13.4076,13.7217,14.0059,14.3274,14.5517,14.619,14.7162,14.806,14.8733,14.9705,15.0901,15.2247,15.4117,15.5463,15.6136,15.7183,15.7631,15.7631,15.7631,15.7631,15.7631,15.7631,15.7631,15.7631,15.7631,15.7631,15.7631,15.7631,15.7631,15.7692,15.7887,15.7922,15.7975,15.8156,15.8131,15.8028,15.8393,15.8131,15.7751,15.8181,15.8513,15.8676,15.8731,15.8757,15.8874,15.8998,15.9141,15.9262,15.94,15.9483,15.9612,15.98,15.9923,15.9987,15.9987,15.9987,15.9987,15.9987,15.9987,15.9683,15.8696,15.8544,15.8241,15.7557,15.5811,15.414,15.2774,15.1711,15.0875,15.0116,15.004,15.004,15.004,15.004,15.004,15.004,15.004,15.0037,14.9921,14.9894,14.9873,14.9873,14.9873,14.9873,14.9873,14.9873,14.9873,14.9873,14.9873,14.9873,10.8577,10.7755,10.7755,10.7979,10.7979,10.8054,10.8428,0.0,11.097,11.1494,0.0,11.6504,11.8373,0.0,0.0,11.9196,12.1589,12.3234,12.1962,12.4954,12.9515,13.5572,13.9012,14.0881,14.0881,14.3723,14.6116,14.7611,14.791,14.8658,15.0154,15.0602,15.2098,15.5014,15.5313,15.6136,15.7631,15.7631,15.7631,15.7631,15.7631,15.7631,15.7631,15.7631,15.7631,15.7631,15.7631,15.7631,15.7631,15.7631,15.7631,15.7631,15.7631,15.7631,15.7692,15.8028,15.7942,15.7735,15.8482,15.8205,15.7735,15.8493,15.8693,15.8557,15.8607,15.8707,15.8806,15.8806,15.8957,15.9107,15.9182,15.9332,15.9531,15.9612,15.9765,15.9987,15.9987,15.9987,15.9987,15.9987,15.9987,15.9987,15.9987,15.9987,15.9456,15.7937,15.7557,15.6418,15.3533,15.285,15.2014,15.0496,15.0192,15.004,15.004,15.004,15.004,15.004,15.004,15.0027,15.0025,14.9949,14.9873,14.9873,14.9873,14.9873,14.9873,14.9873,14.9873,14.9873,14.9873,14.9873,10.4913,10.4315,10.4689,10.6035,10.6409,10.7082,0.0,0.0,0.0,11.5905,11.7251,11.8597,12.1589,12.2411,12.2935,12.3981,12.5851,12.7421,12.8393,13.3702,13.8488,14.118,14.3124,14.4246,14.4246,14.6116,14.7387,14.7686,14.8957,14.9929,15.0228,15.2771,15.4491,15.5089,15.6435,15.7332,15.7631,15.7631,15.7631,15.7631,15.7631,15.7631,15.7631,15.7631,15.7631,15.7631,15.7631,15.7631,15.7631,15.7631,15.7631,15.7631,15.7631,15.7631,15.7631,15.7676,15.7751,15.7692,15.785,15.7735,15.7751,15.8156,15.8393,15.8557,15.8803,15.8859,15.8806,15.8806,15.8731,15.8656,15.9107,15.9257,15.9364,15.9819,15.9973,15.9987,15.9987,15.9987,15.9987,15.9987,15.9987,15.9987,15.9987,15.9987,15.9835,15.9532,15.8317,15.7254,15.657,15.4216,15.247,15.2166,15.0875,15.004,15.004,15.004,15.004,15.004,15.0093,15.0046,15.0101,14.9949,14.9873,14.9873,14.9873,14.9873,14.9873,14.9873,14.9873,14.9873,14.9873,14.9873,10.1399,10.2146,10.3642,10.4464,10.6558,0.0,0.0,11.269,11.5232,11.77,11.9495,12.1663,12.4954,12.5552,12.6374,12.8917,13.0711,13.2955,13.617,14.0208,14.3124,14.3947,14.5517,14.6489,14.6489,14.7237,14.7761,14.7761,14.9331,15.0976,15.2621,15.4266,15.5538,15.636,15.7183,15.7631,15.7631,15.7631,15.7631,15.7631,15.7631,15.7631,15.7631,15.7631,15.7631,15.7631,15.7631,15.7631,15.7631,15.7631,15.808,15.8828,15.8828,15.8379,15.7631,15.7631,15.7631,15.7631,15.7631,15.7631,15.7751,15.8131,15.8306,15.8456,15.8761,15.8859,15.8957,15.8881,15.8731,15.8656,15.8957,15.9096,15.9303,15.9659,15.9911,15.9987,15.9987,15.9987,15.9987,15.9987,15.9987,15.9987,15.9987,15.9987,15.9987,15.9987,15.9228,15.8393,15.7557,15.6039,15.4368,15.2774,15.1862,15.0951,15.0116,15.004,15.004,15.004,15.0031,15.008,15.0025,15.0025,14.9949,14.9873,14.9873,14.9873,14.9873,14.9873,14.9873,14.9873,14.9873,14.9873,0.0,0.0,0.0,10.3343,10.6857,0.0,11.1494,11.5083,11.8448,11.942,12.1962,12.4954,12.8019,12.9066,13.0487,13.3403,13.5348,13.804,14.2676,14.4695,14.5667,14.5667,14.6863,14.7761,14.7761,14.7985,14.8209,14.8209,14.978,15.2023,15.4939,15.5463,15.6285,15.7631,15.7631,15.7631,15.7631,15.7631,15.7631,15.7631,15.7631,15.7631,15.7631,15.793,15.808,15.808,15.8454,15.8603,15.8603,15.8603,15.9351,16.0473,16.0473,15.9501,15.808,15.808,15.793,15.7631,15.7631,15.7631,15.7751,15.8028,15.8253,15.8425,15.8572,15.8844,15.9175,15.9005,15.8881,15.8881,15.8881,15.9066,15.9331,15.9522,15.9822,15.9987,15.9987,15.9987,15.9987,15.9987,15.9987,15.9987,15.9987,15.9987,15.9987,15.9987,15.9987,15.9456,15.8089,15.7633,15.6418,15.3837,15.3001,15.2014,15.0648,15.0268,15.004,15.004,15.004,15.0034,15.0056,15.0036,15.0025,14.9894,14.9884,14.9873,14.9873,14.9873,14.9873,14.9873,14.9873,14.9873,0.0,0.0,0.0,0.0,10.596,0.0,11.4111,11.6728,11.942,12.3832,12.6225,12.8094,12.9814,13.2656,13.5198,13.6993,13.8713,14.1031,14.447,14.6415,14.7462,14.7462,14.7611,14.7761,14.7761,14.9107,15.0004,15.0004,15.1425,15.3145,15.5014,15.651,15.7482,15.7631,15.7631,15.7631,15.7631,15.7631,15.7631,15.7631,15.7631,15.7631,15.7706,15.9052,15.9725,15.98,16.1295,16.1968,16.1968,16.1968,16.2043,16.2193,16.2193,16.1221,15.9725,15.9725,15.8828,15.7631,15.7631,15.7631,15.7692,15.7868,15.8103,15.8451,15.8632,15.889,15.9185,15.9175,15.9182,15.9182,15.9182,15.932,15.9543,15.9639,15.9765,15.9987,15.9987,15.9987,15.9987,15.9987,15.9987,15.9987,15.9987,15.9987,15.9987,15.9987,15.9987,15.9911,15.9759,15.8393,15.733,15.695,15.4292,15.2546,15.2318,15.0951,15.004,15.004,15.004,15.004,15.0039,15.0073,14.997,14.9859,14.9894,14.9873,14.9873,14.9873,14.9873,14.9873,14.9873,14.9873,0.0,0.0,0.0,10.5586,0.0,0.0,11.6429,11.9943,12.3383,12.6374,12.8319,13.0562,13.4076,13.5871,13.774,14.0358,14.2975,14.5143,14.6489,14.7312,14.8135,14.9107,14.9181,14.9555,15.0453,15.12,15.1574,15.1574,15.3145,15.4416,15.5089,15.6734,15.7631,15.7631,15.7631,15.7631,15.7631,15.7631,15.7631,15.7631,15.8603,15.8977,15.9052,16.0697,16.1445,16.152,16.2193,16.2492,16.2641,16.4511,16.481,16.3987,16.3987,16.2941,16.1295,16.0323,15.9576,15.8903,15.793,15.7631,15.7631,15.781,15.8017,15.8206,15.838,15.8704,15.9009,15.893,15.9107,15.9235,15.9421,15.9522,15.9645,15.9765,15.9923,15.9987,15.9987,15.9987,15.9987,15.9987,15.9987,15.9987,15.9987,15.9987,15.9987,15.9987,15.9987,15.9987,15.9987,15.938,15.8544,15.7557,15.6191,15.4672,15.2774,15.1938,15.1103,15.0116,15.004,15.004,15.004,15.0034,15.0023,14.9865,14.9904,14.9873,14.9873,14.9873,14.9873,14.9873,14.9873,14.9873,10.0501,0.0,0.0,0.0,0.0,0.0,11.8523,12.271,12.6748,12.8393,13.0711,13.3553,13.7142,13.8937,14.0806,14.3723,14.619,14.7761,14.7761,14.8135,14.8882,15.0079,15.0602,15.135,15.2472,15.2995,15.3294,15.3294,15.4865,15.5837,15.5837,15.6958,15.7631,15.7631,15.7631,15.7631,15.7631,15.7631,15.7856,15.8304,15.9426,16.0249,16.0697,16.2417,16.3165,16.324,16.3614,16.3838,16.4062,16.638,16.6679,16.5707,16.5707,16.466,16.3015,16.1819,16.1071,16.0473,15.8828,15.8304,15.829,15.7943,15.7907,15.8017,15.823,15.8482,15.8731,15.8806,15.9032,15.9279,15.9502,15.9673,15.974,15.9817,15.9911,15.9987,15.9987,15.9987,15.9987,15.9987,15.9987,15.9987,15.9987,15.9987,15.9987,15.9987,15.9987,15.9987,15.9987,15.9987,15.9532,15.8317,15.7709,15.6494,15.414,15.3153,15.209,15.0875,15.0344,15.004,15.004,15.004,15.0039,14.9865,14.9904,14.9873,14.9873,14.9873,14.9873,14.9873,14.9873,14.9873,0.0,0.0,0.0,10.7829,11.3213,11.8523,12.0243,12.443,12.8468,13.0038,13.4226,13.7666,13.7815,14.1778,14.5592,14.7312,14.7686,14.7761,14.7761,14.9181,15.0228,15.0228,15.1574,15.2546,15.2546,15.4117,15.5014,15.5014,15.6584,15.7557,15.7557,15.7631,15.7631,15.7631,15.7631,15.7631,15.7631,15.7631,15.8379,15.9875,15.9949,16.0847,16.2492,16.4212,16.496,16.5034,16.6605,16.7203,16.7203,16.7352,16.7352,16.7278,16.7278,16.6306,16.496,16.4885,16.3838,16.2193,16.0473,15.9875,15.9711,15.8431,15.8017,15.8072,15.8331,15.843,15.8505,15.8731,15.9032,15.9257,15.9579,15.9825,15.991,15.9683,15.9835,15.9987,15.9987,15.9987,15.9987,15.9987,15.9987,15.9987,15.9987,15.9987,15.9987,15.9987,15.9987,15.9987,15.9987,15.9987,15.9987,15.9911,15.8393,15.7405,15.733,15.4444,15.2546,15.2546,15.0951,15.004,15.004,15.004,15.0039,14.9865,14.9904,14.9873,14.9873,14.9873,14.9873,14.9873,14.9873,14.9873,10.2224,10.5107,10.855,11.2368,11.6636,12.0903,12.487,12.7817,13.0761,13.4627,13.6746,13.8862,14.2152,14.4994,14.7088,14.7611,14.7761,14.8135,14.9256,14.9929,15.1051,15.3219,15.3967,15.4715,15.5837,15.6435,15.6809,15.6809,15.7332,15.7631,15.7631,15.7631,15.7631,15.7631,15.7631,15.7631,15.7631,15.8678,15.9426,16.0024,16.2268,16.3614,16.4212,16.5857,16.6605,16.6605,16.7128,16.7352,16.7352,16.7352,16.7352,16.7352,16.7352,16.7117,16.6507,16.5471,16.4723,16.4098,16.2255,16.1669,16.1432,16.0155,15.9742,15.9572,15.8632,15.843,15.843,15.8505,15.8731,15.9024,15.9258,15.951,15.9748,15.9817,15.9911,15.9987,15.9987,15.9987,15.9987,15.9987,15.9987,15.9987,15.9987,15.9987,15.9987,15.9987,15.9987,15.9987,15.9987,15.9987,15.9987,15.9987,15.9456,15.8696,15.7557,15.6418,15.49,15.2698,15.209,15.1255,15.0116,15.004,15.0034,14.9904,14.9884,14.9873,14.9873,14.9873,14.9873,14.9873,14.9873,14.9873,10.3759,10.6868,11.0578,11.5597,11.9268,12.2864,12.733,12.9934,13.2731,13.7123,13.8945,14.086,14.4545,14.6564,14.7761,14.7761,14.8209,14.9032,15.0079,15.1275,15.2771,15.4865,15.5687,15.6435,15.7557,15.7631,15.7631,15.7631,15.7631,15.7631,15.7631,15.7631,15.7631,15.7631,15.7631,15.7631,15.7631,15.9202,16.0548,16.1819,16.3987,16.5333,16.5932,16.6904,16.7352,16.7352,16.7352,16.7352,16.7352,16.7352,16.7352,16.7352,16.7352,16.748,16.7454,16.6294,16.5983,16.5806,16.405,16.3389,16.3227,16.1804,16.1392,16.1223,16.0436,15.9784,15.9332,15.9332,15.9107,15.8874,15.9147,15.9406,15.9673,15.9949,15.9987,15.9987,15.9987,15.9987,15.9987,15.9987,15.9987,15.9987,15.9987,15.9987,15.9987,15.9987,15.9987,15.9987,15.9987,15.9987,15.9987,15.9987,15.9987,15.9532,15.8469,15.7785,15.657,15.4444,15.3229,15.2014,15.0951,15.0338,14.9935,14.9873,14.9873,14.9873,14.9873,14.9873,14.9873,14.9873,14.9873,14.9873,10.5145,10.8555,11.2301,11.7444,12.1119,12.4344,12.7988,13.1169,13.4422,13.7623,14.0868,14.3586,14.5124,14.6639,14.7686,14.7761,14.9032,15.0154,15.0378,15.307,15.5089,15.5238,15.6659,15.7631,15.7631,15.7631,15.7631,15.7631,15.7631,15.7631,15.7631,15.7631,15.7631,15.7631,15.7631,15.7631,15.7631,15.9202,16.1669,16.5034,16.5109,16.5932,16.7352,16.7352,16.7352,16.7352,16.7352,16.7352,16.7352,16.7352,16.7352,16.7352,16.7352,16.748,16.7529,16.7416,16.748,16.7379,16.5696,16.5184,16.4948,16.3453,16.3042,16.3098,16.3366,16.234,16.1062,16.1062,16.0009,15.8957,15.9257,15.9456,15.9638,15.9949,15.9987,15.9987,15.9987,15.9987,15.9987,15.9987,15.9987,15.9987,15.9987,15.9987,15.9987,15.9987,15.9987,15.9987,15.9987,15.9987,15.9987,15.9987,15.9987,15.9987,15.9987,15.8469,15.7557,15.7481,15.4444,15.2546,15.2394,15.0832,14.9949,14.9873,14.9873,14.9873,14.9873,14.9873,14.9873,14.9873,14.9873,14.9873,10.6645,11.0433,11.4222,11.9215,12.2068,12.5071,13.0927,13.381,13.6493,14.1019,14.3466,14.5286,14.6955,14.7554,14.7798,14.7761,14.8135,14.9256,15.1649,15.2696,15.4192,15.6734,15.7407,15.7631,15.7631,15.7631,15.7631,15.7631,15.7631,15.7631,15.7631,15.7631,15.7631,15.7631,15.7631,15.7631,15.7631,15.9202,16.1669,16.5034,16.6231,16.6979,16.7352,16.7352,16.7352,16.7352,16.7352,16.7352,16.7352,16.7352,16.7352,16.7352,16.7352,16.748,16.7529,16.7467,16.7664,16.7784,16.735,16.7065,16.6705,16.5349,16.4879,16.4599,16.3742,16.3167,16.2866,16.2866,16.1663,16.0536,16.0987,16.0241,15.9421,15.9898,15.9987,15.9987,15.9987,15.9987,15.9987,15.9987,15.9987,15.9987,15.9987,15.9987,15.9987,15.9987,15.9987,15.9987,15.9987,15.9987,15.9987,15.9987,15.9987,15.9987,15.9987,15.9607,15.8772,15.7557,15.6646,15.5046,15.2494,15.2009,15.1163,14.9873,14.9873,14.9873,14.9873,14.9873,14.9873,14.9873,14.9873,14.9873,10.5446,11.0508,11.6063,12.1059,12.3539,12.6395,13.2256,13.4843,13.7383,14.2365,14.5168,14.6942,14.7864,14.7961,14.7908,14.7798,14.8416,14.9705,15.2247,15.3278,15.4699,15.7332,15.7692,15.7692,15.7631,15.7631,15.7631,15.7631,15.7631,15.7631,15.7631,15.7631,15.7631,15.7631,15.7631,15.8005,15.8678,16.0249,16.2417,16.5034,16.6605,16.7352,16.7352,16.7352,16.7352,16.7352,16.7352,16.7352,16.7352,16.7352,16.7352,16.7352,16.7352,16.748,16.7724,16.7589,16.7784,16.8031,16.7917,16.7859,16.7574,16.6961,16.6661,16.6511,16.5823,16.5122,16.4521,16.4521,16.3318,16.219,16.2716,16.1565,16.0468,16.0965,16.0519,16.0139,16.0898,16.0519,15.9987,15.9987,15.9987,15.9987,15.9987,15.9987,15.9987,15.9987,15.9987,15.9987,15.9987,15.9987,15.9987,15.9987,15.9987,15.9987,15.9987,15.9987,15.9607,15.862,15.7855,15.6609,15.4654,15.3212,15.1922,15.1011,15.1011,15.0632,14.9873,14.9873,14.9873,14.9873,14.9873,14.9873,10.3236,10.9682,11.719,12.2488,12.512,12.7677,13.2639,13.5121,13.771,14.2506,14.5839,14.8017,14.8094,14.8066,14.7961,14.7961,14.907,15.051,15.2081,15.3842,15.5564,15.7168,15.766,15.781,15.7631,15.7631,15.7631,15.7631,15.7631,15.7631,15.7631,15.7631,15.7631,15.7631,15.7856,15.8603,15.9949,16.1894,16.3539,16.5034,16.6605,16.7352,16.7352,16.7352,16.7352,16.7352,16.7352,16.7352,16.7352,16.7352,16.7352,16.7352,16.7352,16.7542,16.7859,16.7664,16.7842,16.8143,16.8031,16.7975,16.7975,16.8143,16.8143,16.8197,16.8304,16.7303,16.6175,16.6175,16.5047,16.3919,16.4521,16.3377,16.227,16.2711,16.1734,16.0974,16.2265,16.1354,16.0215,15.9987,15.9987,15.9987,15.9987,15.9987,15.9987,15.9987,15.9987,15.9987,15.9987,15.9987,15.9987,15.9987,15.9987,15.9987,15.9987,15.9987,15.9987,15.9986,15.8575,15.7689,15.7461,15.4654,15.306,15.306,15.2605,15.1694,15.0176,15.0025,14.9873,14.9873,14.9873,14.9873,10.3795,10.893,11.5687,12.2187,12.512,12.7677,13.2639,13.6023,13.9138,14.2731,14.5031,14.6759,14.8017,14.8268,14.8219,14.8118,14.8186,14.8956,15.0712,15.2306,15.3824,15.5489,15.6969,15.781,15.7631,15.7631,15.7631,15.7631,15.7631,15.7631,15.7631,15.7631,15.7631,15.7631,15.8903,15.9725,15.9949,16.3015,16.4735,16.5034,16.6605,16.7352,16.7352,16.7352,16.7352,16.7352,16.7352,16.7352,16.7352,16.7352,16.7352,16.7352,16.7352,16.748,16.7664,16.7859,16.7975,16.8143,16.8251,16.8197,16.8143,16.8251,16.8251,16.8197,16.8304,16.813,16.798,16.813,16.7002,16.5874,16.6551,16.5398,16.423,16.4543,16.4391,16.386,16.2721,16.2265,16.1658,16.0215,15.9987,15.9987,15.9987,15.9987,15.9987,15.9987,15.9987,15.9987,15.9987,15.9987,15.9987,15.9987,15.9987,15.9987,15.9987,15.9987,15.9981,15.9999,15.9674,15.8903,15.7537,15.6854,15.6551,15.6551,15.3819,15.2225,15.1922,15.0556,14.9873,14.9873,14.9873,14.9873,10.4734,10.9269,11.5161,12.0984,12.5006,12.8654,13.279,13.5572,13.8461,14.2581,14.4805,14.6504,14.8112,14.8365,14.8317,14.8219,14.8118,14.8614,15.0443,15.2093,15.3668,15.5209,15.6932,15.7925,15.7751,15.7692,15.7631,15.7631,15.7631,15.7631,15.7631,15.7631,15.8005,15.8828,15.9576,16.0847,16.2641,16.4212,16.5483,16.6231,16.7053,16.7352,16.7352,16.7352,16.7352,16.7352,16.7352,16.7352,16.7352,16.7352,16.7352,16.7352,16.7352,16.748,16.7724,16.7859,16.8087,16.8251,16.8304,16.8304,16.8251,16.8304,16.8304,16.8251,16.8304,16.8356,16.8431,16.8656,16.8199,16.7701,16.8231,16.7146,16.5986,16.6289,16.6365,16.6138,16.5302,16.3784,16.2265,16.143,16.0595,15.9987,15.9987,15.9987,15.9987,15.9987,15.9987,15.9987,15.9987,15.9987,15.9987,15.9987,15.9987,15.9987,15.9987,15.9978,15.9941,15.9966,15.9966,15.9586,15.8827,15.8751,15.8372,15.7461,15.4957,15.3288,15.2377,15.0708,14.9873,14.9873,14.9873,14.9873,10.5145,10.9532,11.4786,11.9068,12.3954,12.8729,13.2749,13.4669,13.685,14.1454,14.3979,14.5978,14.7678,14.8187,14.8317,14.8365,14.8268,14.8619,15.002,15.1722,15.3373,15.4846,15.6496,15.7642,15.785,15.7751,15.7692,15.7751,15.7692,15.7631,15.7692,15.7631,15.8379,15.9949,16.0323,16.1968,16.5034,16.5408,16.6156,16.7352,16.7352,16.7352,16.7352,16.7352,16.7352,16.7352,16.7352,16.7352,16.7352,16.7352,16.7352,16.7352,16.7352,16.7617,16.7917,16.7917,16.8087,16.8356,16.8356,16.8356,16.8356,16.8356,16.8356,16.8356,16.8356,16.8356,16.8431,16.8656,16.8724,16.8925,16.9384,16.8687,16.7884,16.8036,16.8112,16.8036,16.7656,16.5454,16.3404,16.2645,16.143,16.0443,16.0063,15.9987,15.9987,15.9987,15.9987,15.9987,15.9987,15.9987,15.9987,15.9987,15.9987,15.9987,15.9984,16.0017,15.9966,15.9966,15.9966,15.9966,15.9966,15.9966,15.9358,15.7993,15.6323,15.4654,15.2908,15.1239,15.0252,14.9873,14.9873,14.9873,10.406,10.8894,11.4367,11.6398,12.0608,12.5947,13.2139,13.3759,13.4895,13.8354,14.1499,14.4158,14.5903,14.736,14.8365,14.8459,14.8365,14.844,14.8684,15.0018,15.1696,15.3424,15.5001,15.6474,15.7867,15.7925,15.7925,15.7962,15.781,15.7692,15.781,15.7692,15.8379,15.9949,16.1445,16.3165,16.5034,16.6455,16.7203,16.7352,16.7352,16.7352,16.7352,16.7352,16.7352,16.7352,16.7352,16.7352,16.7352,16.7352,16.7352,16.7352,16.7352,16.7617,16.7917,16.7917,16.8087,16.8356,16.8356,16.8356,16.8356,16.8356,16.8356,16.8356,16.8356,16.8356,16.8431,16.8656,16.8889,16.9123,16.9479,16.9672,16.9858,16.9858,16.9858,16.9403,16.7884,16.7352,16.6214,16.31,16.2417,16.181,16.0215,15.9987,15.9987,15.9987,15.9987,15.9987,15.9987,15.9987,15.9987,15.9987,15.9987,15.9981,15.9988,15.9966,15.9966,15.9966,15.9966,15.9966,15.9966,15.9966,15.989,15.9738,15.8068,15.6399,15.473,15.2984,15.1391,14.9873,14.9873,14.9873,10.4843,10.9307,11.4561,11.8235,12.1392,12.4852,12.9468,13.1227,13.3222,13.7548,14.0327,14.2685,14.536,14.6459,14.721,14.8262,14.8412,14.8459,14.8505,14.9887,15.1568,15.3297,15.4825,15.6301,15.7975,15.8017,15.7907,15.7907,15.7868,15.7751,15.7751,15.8589,15.98,16.1445,16.3165,16.481,16.6455,16.7053,16.7352,16.7352,16.7352,16.7352,16.7352,16.7352,16.7352,16.7352,16.7352,16.7352,16.7352,16.7352,16.7352,16.7352,16.748,16.7664,16.7917,16.8031,16.8197,16.8356,16.8356,16.8356,16.8356,16.8356,16.8356,16.8356,16.8356,16.8356,16.8431,16.8656,16.8877,16.9177,16.9435,16.9823,17.0086,17.0086,17.0086,16.9934,16.9251,16.8264,16.7201,16.5834,16.3936,16.2265,16.1582,16.0671,15.9987,15.9987,15.9987,15.9987,15.9987,15.9987,15.9987,15.9987,15.9984,15.9963,15.9977,15.9966,15.9966,15.9966,15.9966,15.9966,15.9966,15.9966,15.9966,15.9966,15.8296,15.7082,15.6475,15.3743,15.2074,15.1391,15.0328,14.9873,10.4804,10.8929,11.377,11.7737,12.1194,12.417,12.6539,12.8256,13.0689,13.5294,13.8329,14.0836,14.3135,14.4834,14.6262,14.7341,14.8112,14.8505,14.8505,14.9557,15.0911,15.264,15.4123,15.5727,15.738,15.7878,15.8072,15.8017,15.7907,15.7868,15.7751,15.9248,16.0833,16.2417,16.4137,16.5782,16.7352,16.7352,16.7352,16.7352,16.7352,16.7352,16.7352,16.7352,16.7352,16.7352,16.7352,16.7352,16.7352,16.7352,16.7352,16.7416,16.7604,16.7784,16.7975,16.8087,16.8251,16.8356,16.8356,16.8356,16.8356,16.8356,16.8356,16.8356,16.8356,16.8356,16.8356,16.8581,16.8882,16.921,16.9346,16.9715,17.0086,17.0086,17.0086,17.0086,17.0086,16.9175,16.8188,16.7656,16.5606,16.386,16.3328,16.181,16.0746,16.0746,16.0291,15.9987,15.9987,15.9987,15.9987,15.9987,15.9978,15.9949,15.9966,15.9966,15.9966,15.9966,15.9966,15.9966,15.9966,15.9966,15.9966,15.9966,15.8827,15.7993,15.7461,15.5033,15.3364,15.2377,15.1163,15.0328,10.3123,10.732,11.1595,11.317,11.8569,12.3444,12.3644,12.4879,12.698,13.0569,13.498,13.8266,13.8479,14.2365,14.5618,14.5839,14.7285,14.8505,14.8505,14.8505,14.9182,15.0836,15.2565,15.4219,15.5798,15.7304,15.8281,15.8381,15.8178,15.8017,15.8017,15.9349,16.0879,16.2417,16.4137,16.5782,16.7352,16.7352,16.7352,16.7352,16.7352,16.7352,16.7352,16.7352,16.7352,16.7352,16.7352,16.7352,16.7352,16.7352,16.748,16.7529,16.7859,16.8031,16.8143,16.8143,16.8251,16.8356,16.8356,16.8356,16.8356,16.8356,16.8356,16.8356,16.8356,16.8356,16.8356,16.8356,16.8731,16.9131,16.9123,16.9603,17.0086,17.0086,17.0086,17.0086,17.0086,17.0086,16.9554,16.7884,16.7504,16.6973,16.5302,16.3556,16.2493,16.2493,16.105,15.9987,15.9987,15.9987,15.9987,15.9987,15.9978,15.9949,15.9966,15.9966,15.9966,15.9966,15.9966,15.9966,15.9966,15.9966,15.9966,15.9966,15.9966,15.9131,15.7461,15.7385,15.5716,15.2377,15.2377,15.1466,10.3008,10.6305,11.0242,11.4174,11.7545,12.0285,12.1618,12.4095,12.6722,12.8782,13.1333,13.426,13.7591,13.9681,14.1905,14.5238,14.6308,14.7227,14.8354,14.8505,14.9106,15.0836,15.2565,15.4219,15.5723,15.7404,15.8331,15.8281,15.8125,15.7962,15.785,16.0355,16.203,16.2492,16.5184,16.6904,16.7352,16.7352,16.7352,16.7352,16.7352,16.7352,16.7352,16.7352,16.7352,16.7352,16.7352,16.7352,16.7352,16.748,16.7467,16.7589,16.7975,16.8087,16.8143,16.8251,16.8304,16.8356,16.8356,16.8356,16.8356,16.8356,16.8356,16.8356,16.8356,16.8356,16.8356,16.8356,16.8731,16.9131,16.9123,16.9603,17.0086,17.0086,17.0086,17.0086,17.0086,17.0086,16.9934,16.9403,16.834,16.7352,16.6897,16.5378,16.386,16.2645,16.2037,16.1278,16.0139,15.9987,15.9987,15.9987,15.9963,15.9988,15.9966,15.9966,15.9966,15.9966,15.9966,15.9966,15.9966,15.9966,15.9966,15.9966,15.9966,15.9738,15.9207,15.7993,15.693,15.5792,15.3515,15.2074,10.1997,10.4918,10.859,11.2934,11.4764,11.6304,11.9476,12.1727,12.4012,12.6819,12.8288,13.0358,13.4619,13.7082,13.938,14.2413,14.4609,14.6279,14.7377,14.8129,14.8881,14.9933,15.2114,15.3919,15.4896,15.7077,15.8381,15.8281,15.823,15.8072,15.7907,16.0339,16.2017,16.2492,16.5109,16.6754,16.7352,16.7352,16.7352,16.7352,16.7352,16.7352,16.7352,16.7352,16.7352,16.7352,16.7352,16.7416,16.748,16.7467,16.7589,16.7784,16.8087,16.8197,16.8251,16.8304,16.8356,16.8356,16.8356,16.8356,16.8356,16.8356,16.8356,16.8356,16.8356,16.8356,16.8356,16.8356,16.8731,16.9131,16.9123,16.9603,17.0086,17.0086,17.0086,17.0086,17.0086,17.0086,17.0086,17.0086,16.9251,16.8491,16.8491,16.7125,16.5606,16.4543,16.3328,16.2113,16.105,16.0367,15.9987,15.9984,15.9956,15.9988,15.9966,15.9966,15.9966,15.9966,15.9966,15.9966,15.9966,15.9966,15.9966,15.9966,15.9966,15.9966,15.9966,15.8903,15.8068,15.7385,15.4654,15.2984,10.0501,10.3272,10.6568,10.9938,11.0796,11.2177,11.7254,11.8378,11.976,12.4569,12.5769,12.6894,12.9894,13.4394,13.7768,13.8191,14.2338,14.5585,14.5903,14.7452,14.8505,14.8505,15.1512,15.3543,15.3543,15.655,15.843,15.843,15.843,15.8281,15.8017,15.9667,16.1147,16.2479,16.4137,16.5782,16.7352,16.7352,16.7352,16.7352,16.7352,16.7352,16.7352,16.7352,16.7352,16.7352,16.7352,16.748,16.7529,16.7529,16.7784,16.8143,16.8143,16.8251,16.8356,16.8356,16.8356,16.8356,16.8356,16.8356,16.8356,16.8356,16.8356,16.8356,16.8356,16.8356,16.8356,16.8356,16.8731,16.9131,16.9123,16.9603,17.0086,17.0086,17.0086,17.0086,17.0086,17.0086,17.0086,17.0086,17.0086,17.0086,17.0086,16.8795,16.7732,16.758,16.4847,16.2797,16.2721,16.1202,16.0137,16.012,16.0039,15.9949,15.9966,15.9966,15.9966,15.9966,15.9966,15.9966,15.9966,15.9966,15.9966,15.9966,15.9966,15.9966,15.9966,15.9966,15.9131,15.7613,15.5868,15.4198,10.0501,10.2445,10.4804,10.8216,11.0053,11.2081,11.5794,11.7594,11.9203,12.1441,12.3988,12.601,12.6835,12.9999,13.3885,13.7892,14.0386,14.2815,14.551,14.7217,14.8268,14.8365,15.137,15.3447,15.3543,15.655,15.843,15.843,15.8331,15.823,15.8178,15.9537,16.0938,16.2601,16.42,16.5782,16.7352,16.7352,16.7352,16.7352,16.7352,16.7352,16.7352,16.748,16.7542,16.7542,16.7542,16.7542,16.7529,16.7724,16.7917,16.7975,16.8197,16.8304,16.8356,16.8356,16.8356,16.8356,16.8356,16.8356,16.8356,16.8356,16.8356,16.8356,16.8356,16.8356,16.8356,16.8356,16.8731,16.9131,16.9123,16.9603,17.0086,17.0086,17.0086,17.0086,17.0086,17.0086,17.0086,17.0086,17.0086,17.0086,17.0086,16.9782,16.9023,16.7732,16.6897,16.591,16.4619,16.2948,16.1884,16.1942,16.0722,15.9949,15.9966,15.9966,15.9966,15.9966,15.9966,15.9966,15.9966,15.9966,15.9966,15.9966,15.9966,15.9966,15.9966,15.9966,15.9814,15.9358,15.7613,15.5944,10.0501,10.2185,10.4095,10.6639,10.859,11.0727,11.4099,11.5522,11.6978,12.0079,12.213,12.3897,12.5441,12.7163,12.9878,13.426,13.7516,14.0742,14.4262,14.6139,14.7491,14.8337,15.1418,15.3447,15.3543,15.655,15.843,15.843,15.8331,15.8281,15.823,15.8897,15.993,16.1463,16.3125,16.4723,16.6306,16.7042,16.748,16.7678,16.7678,16.7678,16.7678,16.7739,16.7724,16.7724,16.7724,16.7784,16.7842,16.7975,16.8087,16.8143,16.8304,16.8356,16.8356,16.8356,16.8356,16.8356,16.8356,16.8356,16.8356,16.8356,16.8356,16.8356,16.8356,16.8356,16.8356,16.8356,16.8731,16.9131,16.9123,16.9603,17.0086,17.0086,17.0086,17.0086,17.0086,17.0086,17.0086,17.0086,17.0086,17.0086,17.0086,17.0086,16.9782,16.8871,16.8036,16.7201,16.6289,16.4695,16.3328,16.2563,16.172,16.086,16.0041,15.9966,15.9966,15.9966,15.9966,15.9966,15.9966,15.9966,15.9966,15.9966,15.9966,15.9966,15.9966,15.9966,15.9966,15.9966,15.822,15.6551,10.0501,10.2448,10.4358,10.5926,10.7306,10.9101,11.2241,11.3139,11.4559,11.9046,12.0317,12.156,12.4421,12.5348,12.6572,12.9362,13.3925,13.8491,14.2488,14.4684,14.658,14.8233,15.124,15.3242,15.3543,15.6325,15.8129,15.843,15.843,15.8381,15.8281,15.823,15.8876,16.0173,16.1837,16.335,16.4649,16.6405,16.75,16.7917,16.7917,16.7917,16.7917,16.7917,16.805,16.805,16.805,16.8031,16.8143,16.8143,16.8197,16.8304,16.8356,16.8356,16.8356,16.8356,16.8356,16.8356,16.8356,16.8356,16.8356,16.8356,16.8356,16.8356,16.8356,16.8356,16.8356,16.8356,16.8731,16.9131,16.9123,16.9603,17.0086,17.0086,17.0086,17.0086,17.0086,17.0086,17.0086,17.0086,17.0086,17.0086,17.0086,17.0086,17.0086,17.0086,16.8871,16.796,16.796,16.6441,16.4847,16.3404,16.2787,16.1915,16.0497,16.0117,15.9966,15.9966,15.9966,15.9966,15.9966,15.9966,15.9966,15.9966,15.9966,15.9966,15.9966,15.9966,15.9966,15.9966,15.8524,15.6778,10.0875,10.3193,10.6,10.753,10.8054,10.8802,11.0746,11.2316,11.3886,11.598,11.8672,12.0841,12.1411,12.3776,12.5844,12.6273,12.9532,13.414,14.0291,14.3742,14.6343,14.8092,15.0093,15.1869,15.3392,15.5197,15.6851,15.8355,15.843,15.843,15.8381,15.8281,15.8929,16.0655,16.1954,16.287,16.321,16.486,16.6492,16.7917,16.7917,16.7917,16.7917,16.8031,16.8143,16.8143,16.8143,16.8143,16.8143,16.8143,16.8143,16.8197,16.8304,16.8356,16.8356,16.8356,16.8356,16.8356,16.8356,16.8356,16.8356,16.8356,16.8356,16.8356,16.8356,16.8356,16.8356,16.8356,16.8731,16.9131,16.9123,16.9603,17.0086,17.0086,17.0086,17.0086,17.0086,17.0086,17.0086,17.0086,17.0086,17.0086,17.0086,17.0086,17.0086,17.0086,16.9858,16.9706,16.9706,16.8188,16.7049,16.6821,16.4208,16.2406,16.2166,16.08,15.9966,15.9966,15.9966,15.9966,15.9966,15.9966,15.9966,15.9966,15.9966,15.9966,15.9966,15.9966,15.9966,15.9966,15.9738,15.7917,10.3118,10.5362,10.7381,10.8054,10.8278,10.8727,11.0372,11.1419,11.2466,11.4036,11.6279,11.8224,11.9196,12.1336,12.3627,12.5327,12.7668,13.1105,13.5948,14.1192,14.5416,14.8112,14.9915,15.1616,15.3392,15.4971,15.6626,15.828,15.843,15.843,15.843,15.8381,15.8657,15.9356,16.0847,16.1727,16.1834,16.3358,16.5085,16.6791,16.6791,16.7241,16.8143,16.8251,16.8251,16.8251,16.8251,16.8251,16.8251,16.8251,16.8251,16.8251,16.8304,16.8356,16.8356,16.8356,16.8356,16.8356,16.8356,16.8356,16.8356,16.8356,16.8356,16.8356,16.8356,16.8356,16.8356,16.8356,16.8581,16.8905,16.9048,16.9418,16.9821,16.9996,17.0086,17.0086,17.0086,17.0086,17.0086,17.0086,17.0086,17.0086,17.0086,17.0086,17.0086,17.0086,17.0086,17.0086,17.0086,16.9403,16.8566,16.7631,16.6071,16.4443,16.2622,16.1711,16.0876,16.0041,15.9966,15.9966,15.9966,15.9966,15.9966,15.9966,15.9966,15.9966,15.9966,15.9966,15.9966,15.9966,15.9966,15.8676,10.6714,0.0,10.9483,10.9483,10.9483,10.9666,0.0,11.1162,11.1643,11.254,11.4335,11.6055,11.7326,11.927,12.1663,12.4505,12.6374,12.8816,13.263,13.8068,14.3163,14.7285,14.9361,15.124,15.3345,15.4671,15.625,15.828,15.843,15.843,15.843,15.843,15.8381,15.8281,15.9558,16.0436,16.0912,16.2014,16.3517,16.5273,16.5649,16.6476,16.7754,16.8205,16.8356,16.8356,16.8356,16.8356,16.8356,16.8356,16.8356,16.8356,16.8356,16.8356,16.8356,16.8356,16.8356,16.8356,16.8356,16.8356,16.8356,16.8356,16.8356,16.8356,16.8356,16.8356,16.8356,16.8356,16.8506,16.8781,16.9076,16.9294,16.9629,16.997,17.0086,17.0086,17.0086,17.0086,17.0086,17.0086,17.0086,17.0086,17.0086,17.0086,17.0086,17.0086,17.0086,17.0086,17.0086,17.0086,16.9548,16.8261,16.7642,16.6212,16.3305,16.3001,16.209,16.0117,15.9966,15.9966,15.9966,15.9966,15.9966,15.9966,15.9966,15.9966,15.9966,15.9966,15.9966,15.9966,15.9966,15.9055,0.0,11.3095,11.317,11.317,11.309,11.2634,11.1286,11.2102,0.0,11.1269,11.3513,11.5681,11.5831,11.8523,12.1215,12.2935,12.4654,12.747,13.248,13.4926,13.8646,14.5018,14.7367,14.9744,15.3048,15.3646,15.5047,15.8205,15.843,15.843,15.843,15.843,15.843,15.8381,15.8532,15.9408,16.0912,16.1062,16.1964,16.3618,16.5122,16.5874,16.6025,16.7604,16.8356,16.8356,16.8356,16.8356,16.8356,16.8356,16.8356,16.8356,16.8356,16.8356,16.8356,16.8356,16.8356,16.8356,16.8356,16.8356,16.8356,16.8356,16.8356,16.8356,16.8356,16.8356,16.8356,16.8356,16.8506,16.8731,16.9059,16.9309,16.9629,16.997,17.0086,17.0086,17.0086,17.0086,17.0086,17.0086,17.0086,17.0086,17.0086,17.0086,17.0086,17.0086,17.0086,17.0086,17.0086,17.0086,17.0004,16.9767,16.8291,16.6629,16.4834,16.467,16.3305,16.0193,15.9966,15.9966,15.9966,15.9966,15.9966,15.9966,15.9966,15.9966,15.9966,15.9966,15.9966,15.9966,15.9966,15.9055,11.302,11.347,11.347,11.347,11.339,11.3159,11.256,11.2925,11.3139,11.254,11.4111,11.5681,11.5681,11.7551,12.0018,12.2635,12.3608,12.6075,13.2183,13.4528,13.7822,14.3468,14.6665,14.9812,15.3146,15.3495,15.4896,15.8205,15.843,15.843,15.843,15.843,15.843,15.843,15.843,15.8731,15.9408,15.9408,16.0235,16.1889,16.2491,16.3318,16.4446,16.6025,16.6777,16.6852,16.7904,16.8356,0.0,16.8356,16.8356,16.8356,16.8356,16.8356,16.8356,16.8356,16.8356,16.8356,16.8356,16.8356,16.8356,16.8356,16.8356,16.8356,16.8356,16.8356,16.8356,16.8356,16.8431,16.8581,16.8957,16.9209,16.9381,16.9914,17.0086,17.0086,17.0086,17.0086,17.0086,17.0086,17.0086,17.0086,17.0086,17.0086,17.0086,17.0086,17.0086,17.0086,17.0086,17.0086,17.0084,16.9996,16.9383,16.7844,16.505,16.4822,16.3456,16.0193,15.9966,15.9966,15.9966,15.9966,15.9966,15.9966,15.9966,15.9966,15.9966,15.9966,15.9966,15.9966,15.9966,15.9662,11.5086,11.5161,11.5161,11.5161,11.5084,11.4855,11.4289,11.4165,11.4005,11.3438,11.4559,11.5681,11.5681,11.7476,11.9869,12.2635,12.358,12.6049,13.2282,13.4153,13.6997,14.2669,14.5416,14.8187,15.1616,15.2941,15.4896,15.8205,15.843,15.843,15.843,15.843,15.843,15.843,15.843,15.843,15.843,15.843,15.9032,16.016,16.0686,16.1513,16.2716,16.4295,16.5047,16.5197,16.6852,16.7528,16.7604,16.813,16.8356,16.8356,16.8356,16.8356,16.8356,16.8356,16.8356,16.8356,16.8356,16.8356,16.8356,16.8356,16.8356,16.8356,16.8356,16.8356,16.8356,16.8356,16.8431,16.8581,16.8957,16.9187,16.9424,16.993,17.0086,17.0086,17.0086,17.0086,17.0086,17.0086,17.0086,17.0086,17.0086,17.0086,17.0086,17.0086,17.0086,17.0086,17.0086,17.0086,17.0086,17.001,16.9924,16.8527,16.5202,16.4822,16.3456,16.0193,15.9966,15.9966,15.9966,15.9966,15.9966,15.9966,15.9966,15.9966,15.9966,15.9966,15.9966,15.9966,15.9966,15.9662,11.8316,11.8804,11.8804,11.8804,11.873,11.8164,11.6509,11.6013,11.5438,11.3737,11.4634,11.5681,11.5681,11.8448,12.1215,12.2785,12.4599,12.7565,13.2831,13.3427,13.5846,14.2642,14.3343,14.4568,14.8017,15.1541,15.4896,15.8129,15.843,15.843,15.843,15.843,15.843,15.843,15.843,15.843,15.843,15.843,15.843,15.843,16.0084,16.0912,16.0987,16.2641,16.3468,16.3543,16.5122,16.5799,16.5949,16.7604,16.8356,16.8356,16.8356,16.8356,16.8356,16.8356,16.8356,16.8356,16.8356,16.8356,16.8356,16.8356,16.8356,16.8356,16.8356,16.8356,16.8356,16.8356,16.8506,16.8807,16.9032,16.9293,16.963,17.001,17.0086,17.0086,17.0086,17.0086,17.0086,17.0086,17.0086,17.0086,17.0086,17.0086,17.0086,17.0086,17.0086,17.0086,17.0086,17.0086,17.001,16.9934,16.9848,16.8527,16.5278,16.4898,16.3456,16.0193,15.9966,15.9966,15.9966,15.9966,15.9966,15.9966,15.9966,15.9966,15.9966,15.9966,15.9966,15.9966,15.9966,15.9055,12.0458,12.1436,12.2338,12.2338,12.2187,12.1993,12.1386,12.0285,11.9256,11.8643,11.7924,11.7775,11.8971,12.0018,12.1635,12.4496,12.545,12.7742,13.2969,13.37,13.6185,14.2815,14.3517,14.4815,14.8158,15.046,15.3167,15.64,15.7753,15.843,15.843,15.843,15.843,15.843,15.843,15.843,15.843,15.843,15.843,15.843,15.8957,15.9182,15.9257,16.0912,16.1663,16.1814,16.3468,16.4145,16.4295,16.5874,16.6551,16.6701,16.7904,16.8356,16.8356,16.8356,16.8356,16.8356,16.8356,16.8356,16.8356,16.8356,16.8356,16.8356,16.8356,16.8356,16.8356,16.8356,16.8506,16.8731,16.8807,16.9141,16.963,17.001,17.0086,17.0086,17.0086,17.0086,17.0086,17.0086,17.0086,17.0086,17.0086,17.0086,17.0086,17.0086,17.0086,17.0086,17.0086,17.0086,17.0082,17.0037,16.8955,16.735,16.505,16.3836,16.2242,16.0117,15.9966,15.9966,15.9966,15.9966,15.9966,15.9966,15.9966,15.9966,15.9966,15.9966,15.9966,15.9966,15.9966,15.9738,12.2112,12.3015,12.3842,12.3842,12.3728,12.365,12.3486,12.2651,12.189,12.1756,12.0887,12.0392,12.1531,12.228,12.3402,12.5497,12.7134,12.9551,13.3477,13.4669,13.7273,14.3302,14.3811,14.4985,14.8354,15.0084,15.2114,15.4746,15.7152,15.843,15.843,15.843,15.843,15.843,15.843,15.843,15.843,15.843,15.843,15.843,15.843,15.843,15.8505,15.9483,15.9934,16.0009,16.1739,16.2491,16.2566,16.422,16.4897,16.4972,16.6025,16.6401,16.6476,16.7077,16.7303,16.7453,16.813,16.8356,16.8356,16.8356,16.7453,16.6401,16.6401,16.6476,16.6551,16.6551,16.6777,16.6926,16.7036,16.7345,16.7656,16.796,16.8036,16.8036,16.8036,16.8643,16.9099,16.9099,16.963,17.0086,17.0086,17.0086,17.0086,17.0086,17.0086,17.0086,17.0086,17.0086,17.008,16.9995,16.7933,16.5821,16.4021,16.3013,16.1787,16.0117,15.9966,15.9966,15.9966,15.9966,15.9966,15.9966,15.9966,15.9966,15.9966,15.9966,15.9966,15.9966,15.9283,15.8979,12.3616,12.4142,12.4293,12.4293,12.4293,12.4179,12.3937,12.3819,12.3626,12.3538,12.3252,12.3131,12.3419,12.4767,12.5919,12.6198,12.9134,13.222,13.4238,13.5899,13.883,14.3962,14.4249,14.5272,14.858,15.0084,15.1512,15.3242,15.625,15.8054,15.828,15.843,15.843,15.843,15.843,15.843,15.843,15.843,15.843,15.843,15.843,15.843,15.843,15.843,15.843,15.8505,16.0084,16.0686,16.0836,16.2566,16.3242,16.3242,16.3393,16.3468,16.3618,16.5047,16.5573,16.5799,16.7378,16.7904,16.7904,16.7904,16.5874,16.3468,16.3468,16.3694,16.3844,16.3868,16.4066,16.4356,16.458,16.4695,16.4771,16.4999,16.4999,16.4999,16.4999,16.6214,16.7352,16.7352,16.8567,16.963,16.963,16.963,16.9706,16.9858,16.9858,16.9858,16.9858,16.9858,16.9776,16.9475,16.6656,16.4173,16.262,16.2352,16.1635,16.0041,15.9966,15.9966,15.9966,15.9966,15.9966,15.9966,15.9966,15.9966,15.9966,15.9966,15.989,15.9738,15.8144,15.7385,12.5346,12.6699,12.7601,12.7601,12.7601,12.7562,12.744,12.638,12.5394,12.5394,12.4122,12.3505,12.5125,12.5619,12.6443,12.7999,13.0252,13.2544,13.4398,13.6215,13.9098,14.4047,14.455,14.5602,14.858,14.9182,14.9933,15.1437,15.3467,15.5347,15.6953,15.8129,15.8656,15.843,15.843,15.843,15.843,15.843,15.843,15.843,15.843,15.843,15.843,15.843,15.843,15.843,15.8806,15.8957,15.9107,16.0761,16.1513,16.1588,16.2942,16.3468,16.3543,16.3844,16.3994,16.3994,16.437,16.4521,16.4521,16.4521,16.407,16.3543,16.3743,16.3819,16.3888,16.4163,16.4333,16.4563,16.4617,16.4771,16.4923,16.4999,16.4999,16.4999,16.4999,16.5302,16.5606,16.5606,16.5834,16.6138,16.6138,16.6138,16.6593,16.7884,16.8112,16.8112,16.8112,16.8112,16.758,16.621,16.4233,16.2863,16.255,16.1289,16.0345,15.9966,15.9966,15.9966,15.9966,15.9966,15.9966,15.9966,15.9966,15.9966,15.9966,15.9966,15.9283,15.7993,15.7613,15.6703,12.6849,12.8052,12.8654,12.8654,12.8654,12.8614,12.8491,12.7773,12.7131,12.7131,12.6355,12.589,12.6937,12.7225,12.7656,12.8857,13.1451,13.3639,13.4626,13.7056,14.0142,14.4297,14.4664,14.5828,14.8956,14.9106,14.9708,15.1287,15.2264,15.3198,15.4244,15.6582,15.8049,15.8581,15.8505,15.843,15.843,15.843,15.843,15.843,15.843,15.843,15.843,15.843,15.843,15.843,15.843,15.843,15.8505,15.9408,15.9708,15.9859,16.0686,16.1062,16.1137,16.1964,16.2265,16.2415,16.3167,16.3468,16.3242,16.1739,16.1212,16.1287,16.1513,16.1678,16.1818,16.1959,16.2234,16.2417,16.2417,16.2493,16.2569,16.2569,16.2569,16.2569,16.2569,16.3252,16.386,16.386,16.4467,16.4999,16.4999,16.4999,16.5302,16.6214,16.6365,16.6365,16.6365,16.5606,16.4467,16.2797,16.181,16.1275,16.1307,16.052,15.9966,15.9966,15.9966,15.9966,15.9966,15.9966,15.9966,15.9966,15.9966,15.9586,15.8751,15.8751,15.7917,15.6247,15.5412,15.4578,12.7601,12.8504,12.8729,12.8729,12.8654,12.8614,12.8533,12.8491,12.8491,12.8491,12.8394,12.8304,12.8491,12.8642,12.8957,12.955,13.2495,13.4851,13.5277,13.7927,14.1135,14.4573,14.4827,14.6018,14.9302,14.9528,14.9949,15.1284,15.1484,15.1675,15.189,15.4415,15.6538,15.7979,15.7829,15.778,15.8054,15.8355,15.843,15.843,15.843,15.843,15.843,15.843,15.843,15.843,15.843,15.843,15.843,15.843,15.843,15.843,15.843,15.843,15.8581,16.0009,16.046,16.0686,16.2115,16.2566,16.219,15.9708,15.8827,15.8934,15.918,15.9386,15.9607,15.9683,15.9835,15.9987,15.9987,15.9987,15.9987,15.9987,15.9987,15.9987,15.9987,16.105,16.2037,16.2037,16.3176,16.4163,16.4163,16.4163,16.4239,16.4543,16.4619,16.4619,16.4619,16.31,16.1506,16.0139,15.9986,15.9973,15.9977,15.9966,15.9966,15.9966,15.9966,15.9966,15.9966,15.9662,15.951,15.951,15.9283,15.8372,15.7006,15.7006,15.6171,15.4426,15.306,15.2225,12.6735,12.7902,12.8955,12.8729,12.8654,12.8654,12.8654,12.8574,12.8533,12.8614,12.8449,12.8363,12.8574,12.8955,12.9671,13.1065,13.3197,13.5255,13.6737,13.8446,14.097,14.4568,14.4944,14.6195,14.9359,14.9678,14.96,14.9601,15.0063,15.0954,15.2445,15.2732,15.3514,15.5025,15.48,15.5326,15.6577,15.778,15.843,15.843,15.843,15.843,15.843,15.843,15.843,15.843,15.843,15.843,15.843,15.843,15.843,15.843,15.843,15.843,15.843,15.8656,15.8731,15.8806,15.9032,15.9107,15.9107,15.9107,15.9149,15.9194,15.9457,15.9598,15.9607,15.9835,15.9987,15.9987,15.9987,15.9987,15.9987,15.9987,15.9987,15.9987,15.9987,16.0139,16.0291,16.0291,16.0519,16.0671,16.0671,16.0671,16.1126,16.2645,16.2873,16.2873,16.2873,16.1354,16.0213,15.9973,15.9941,15.9977,15.9966,15.9966,15.9966,15.9966,15.9966,15.9966,15.9966,15.8524,15.7765,15.7765,15.6323,15.5488,15.5261,15.5261,15.435,15.2757,15.2529,15.1618,12.7175,12.79,12.8128,12.888,12.9105,12.9105,12.9105,12.9065,12.9065,12.9105,12.8909,12.8674,12.884,12.9105,12.9484,13.0264,13.2878,13.5064,13.5954,13.8192,14.1084,14.4572,14.5029,14.6297,14.9571,14.9912,14.9835,14.9732,14.9955,15.0391,15.1104,15.198,15.2647,15.3222,15.3973,15.4553,15.5068,15.5651,15.64,15.7178,15.7077,15.7528,15.843,15.843,15.843,15.843,15.843,15.843,15.843,15.843,15.843,15.843,15.843,15.8505,15.8656,15.8505,15.8505,15.8656,15.8656,15.8719,15.8948,15.9294,15.9424,15.9477,15.9756,15.9835,15.9835,15.9911,15.9987,15.9987,15.9987,15.9987,15.9987,15.9987,15.9987,15.9987,15.9987,15.9987,15.9987,15.9987,15.9987,15.9987,15.9987,15.9987,16.0215,16.0974,16.105,16.105,16.105,16.0433,15.9949,16.0008,15.9977,15.9966,15.9966,15.9966,15.9966,15.9966,15.9055,15.8524,15.8524,15.693,15.602,15.602,15.5261,15.4426,15.3515,15.3515,15.2605,15.1011,15.1011,15.0556,12.6398,12.6764,12.6587,12.7825,12.8498,12.8799,12.8799,12.9176,12.9478,12.9478,12.9256,12.9071,12.9144,12.9256,12.9518,12.9972,13.2705,13.5052,13.5562,13.8063,14.1004,14.3966,14.4725,14.6168,14.9129,14.9812,15.004,15.004,15.004,15.004,15.004,15.1265,15.1866,15.1639,15.2777,15.3511,15.3645,15.3553,15.4247,15.575,15.5525,15.6126,15.7329,15.7329,15.7329,15.7329,15.7329,15.7329,15.7329,15.7302,15.7302,15.7329,15.7302,15.7453,15.7678,15.7879,15.8091,15.8177,15.7827,15.7849,15.8075,15.8307,15.8393,15.8469,15.862,15.8696,15.8696,15.8696,15.8696,15.8696,15.8696,15.9,15.9304,15.9304,15.9683,15.9987,15.9987,15.9987,15.9987,15.9987,15.9987,15.9987,15.9987,15.9987,15.9987,15.9987,15.9987,15.9984,15.9981,16.0017,15.9966,15.9966,15.9966,15.9966,15.9966,15.9586,15.9358,15.9358,15.7765,15.6778,15.6778,15.5185,15.4274,15.4274,15.3819,15.2984,15.177,15.177,15.1087,14.9873,14.9873,14.9873,12.2526,12.3428,12.4551,12.4659,12.583,12.7041,12.7041,12.835,12.9485,12.9485,12.941,12.9424,12.9409,12.9556,13.0045,13.1463,13.3384,13.5303,13.6878,13.8574,14.0321,14.2371,14.4042,14.5712,14.7534,14.9129,15.004,15.004,15.004,15.004,15.004,15.0115,15.0189,15.0189,15.03,15.0919,15.2293,15.232,15.2921,15.4219,15.4247,15.4274,15.4349,15.4349,15.4349,15.4349,15.4349,15.4349,15.4349,15.4247,15.4247,15.4349,15.4247,15.4247,15.4567,15.614,15.6805,15.663,15.5236,15.4745,15.4823,15.5052,15.5128,15.5128,15.5203,15.5203,15.5203,15.5203,15.5203,15.5203,15.5203,15.6418,15.7557,15.7557,15.8848,15.9987,15.9987,15.9987,15.9987,15.9987,15.9987,15.9987,15.9987,15.9987,15.9987,15.9987,15.9981,15.9956,15.9977,15.9966,15.9966,15.9966,15.9966,15.9966,15.9966,15.8524,15.7613,15.7613,15.602,15.5033,15.5033,15.3439,15.2529,15.2529,15.0935,15.0101,15.0025,15.0025,14.9949,14.9873,14.9873,14.9873,12.2977,12.3278,12.3362,12.4485,12.5244,12.5699,12.5699,12.6154,12.6914,12.7976,12.8047,12.8306,12.9409,12.9626,12.9871,13.0322,13.2083,13.3915,13.5612,13.7208,13.9258,14.2143,14.2979,14.4497,14.7231,14.8066,14.8446,14.8446,14.9433,15.004,15.004,15.004,15.004,15.004,15.0101,15.0289,15.082,15.0848,15.0986,15.1333,15.2206,15.3172,15.4154,15.4154,15.4154,15.4154,15.4154,15.4154,15.4154,15.4111,15.413,15.4191,15.4055,15.4195,15.446,15.4871,15.5144,15.5275,15.4893,15.4824,15.4824,15.49,15.49,15.49,15.49,15.49,15.49,15.49,15.49,15.49,15.49,15.5355,15.5811,15.5811,15.6267,15.6722,15.6722,15.7557,15.8317,15.8317,15.9228,15.9987,15.9987,15.9984,15.9973,15.9956,15.9021,15.8319,15.8372,15.8372,15.7917,15.6854,15.6703,15.6703,15.6703,15.6171,15.5792,15.5792,15.4274,15.3288,15.3288,15.1694,15.0783,15.0783,15.0176,14.9873,14.9873,14.9873,14.9873,14.9873,14.9873,14.9873,12.196,12.1983,12.1607,12.2887,12.3663,12.4148,12.4148,12.4603,12.5287,12.6426,12.7025,12.7608,12.8742,12.9427,12.9767,12.9767,13.1361,13.2956,13.4095,13.6069,13.8271,14.0549,14.1764,14.3358,14.5636,14.5864,14.6092,14.6623,14.8294,14.9205,14.9205,14.9736,15.004,15.004,15.004,15.004,15.004,15.0063,15.0016,14.9789,15.0725,15.1763,15.2749,15.2749,15.2749,15.2749,15.2749,15.2749,15.2733,15.2655,15.2707,15.2768,15.264,15.2788,15.3076,15.3503,15.3409,15.3024,15.3269,15.3305,15.3305,15.3305,15.3305,15.3305,15.3305,15.3305,15.3305,15.3305,15.3305,15.3305,15.3305,15.3685,15.414,15.414,15.452,15.49,15.49,15.5811,15.657,15.657,15.7481,15.8317,15.8317,15.8303,15.8271,15.8253,15.7777,15.7234,15.6703,15.6627,15.6171,15.5033,15.4957,15.4957,15.4957,15.4426,15.4047,15.4047,15.2453,15.1542,15.1542,15.048,14.9873,14.9873,14.9873,14.9873,14.9873,14.9873,14.9873,14.9873,14.9873,14.9873,11.8954,11.906,11.9257,11.9497,12.1003,12.2325,12.2325,12.3615,12.483,12.4907,12.6198,12.7413,12.7413,12.8855,12.9994,12.9994,13.1361,13.25,13.2576,13.5309,13.7284,13.7436,14.0321,14.2295,14.2295,14.2371,14.313,14.4801,14.6471,14.7458,14.7458,14.9053,14.9964,14.9964,15.004,15.004,15.004,15.004,15.004,15.004,15.004,15.004,15.004,15.004,15.004,15.004,15.004,15.004,15.0037,14.9771,14.9854,15.004,14.9812,14.9888,15.0268,15.1938,15.1483,15.004,15.004,15.004,15.004,15.004,15.004,15.004,15.004,15.004,15.004,15.004,15.004,15.004,15.004,15.1255,15.2546,15.2546,15.3685,15.4748,15.4748,15.4824,15.4824,15.4824,15.49,15.49,15.49,15.4946,15.4903,15.4946,15.6289,15.6703,15.5033,15.4881,15.4805,15.4805,15.4805,15.4805,15.4805,15.3288,15.2301,15.2301,15.0783,14.9873,14.9873,14.9873,14.9873,14.9873,14.9873,14.9873,14.9873,14.9797,14.9797,14.9797,14.9721,14.9721,11.5646,11.5816,11.5889,11.6016,11.7367,11.8662,11.8693,11.9948,12.1549,12.2922,12.354,12.4224,12.5438,12.7033,12.8248,12.8248,12.9615,13.1133,13.2424,13.3335,13.4778,13.7132,13.8271,13.8802,13.8802,13.9941,14.1384,14.3054,14.4725,14.5712,14.5712,14.7307,14.8218,14.8218,14.9433,15.004,15.004,15.004,15.004,15.004,15.004,15.004,15.004,15.004,15.004,15.004,15.004,15.004,15.004,14.998,14.9997,15.004,14.9964,15.004,15.0116,15.0572,15.0496,15.004,15.004,15.004,15.004,15.004,15.004,15.004,15.004,15.004,15.004,15.004,15.004,15.004,15.004,15.042,15.0799,15.0799,15.1103,15.1407,15.1407,15.2394,15.3229,15.3153,15.4065,15.4899,15.4891,15.4931,15.4893,15.4903,15.4286,15.3591,15.3136,15.306,15.2605,15.1391,15.1239,15.1239,15.1239,15.0859,15.0556,15.0556,15.0101,14.9873,14.9873,14.9873,14.9873,14.9873,14.9873,14.9873,14.9873,14.8659,14.8052,14.7976,14.6762,14.623,11.1886,11.2221,11.2504,11.3333,11.4264,11.5227,11.6107,11.6995,11.8098,11.9948,12.0883,12.1946,12.3616,12.5287,12.6729,12.7413,12.8324,12.9539,13.1285,13.212,13.3259,13.5158,13.5385,13.5689,13.6373,13.7284,13.8575,14.0245,14.1916,14.3206,14.389,14.556,14.6471,14.6471,14.7458,14.8294,14.8977,14.8977,14.9357,15.004,15.004,15.004,15.004,15.004,15.004,15.004,15.004,15.004,15.004,15.004,15.004,15.004,15.004,15.004,15.004,15.004,15.004,15.004,15.004,15.004,15.004,15.004,15.004,15.004,15.004,15.004,15.004,15.004,15.004,15.004,15.004,15.004,15.004,15.004,15.004,15.004,15.004,15.0875,15.1482,15.1404,15.2157,15.2826,15.2813,15.2778,15.2832,15.2832,15.1998,15.1315,15.1315,15.1315,15.0935,14.9949,14.9873,14.9873,14.9873,14.9873,14.9873,14.9873,14.9873,14.9873,14.9873,14.9873,14.9569,14.881,14.881,14.8507,14.7748,14.6762,14.6306,14.623,14.532,14.3347,10.7976,10.846,10.9099,11.065,11.1233,11.19,0.0,11.4252,11.4805,11.6445,11.8294,12.0109,12.1631,12.3462,12.5211,12.6729,12.7109,12.7792,12.9539,13.1057,13.1969,13.1969,13.2196,13.2956,13.4626,13.4702,13.5309,13.7056,13.8575,14.0169,14.184,14.351,14.4497,14.4725,14.4877,14.5712,14.7231,14.7231,14.799,14.9509,14.9509,14.9585,14.9736,14.9736,14.9888,15.004,15.004,15.004,15.004,15.004,15.004,15.004,15.004,14.9812,14.9509,14.9509,14.9509,14.9509,14.9509,14.9509,14.9509,14.9509,14.9509,14.9509,14.9509,14.966,14.9736,14.9736,14.9888,15.004,15.004,15.004,15.004,15.004,15.004,15.004,15.004,15.004,15.0037,14.9865,14.9904,14.9873,14.9873,14.9873,14.9873,14.9873,14.9873,14.9873,14.9873,14.9873,14.9873,14.9873,14.9873,14.9873,14.9873,14.9873,14.9873,14.9873,14.9721,14.9569,14.9569,14.9418,14.8583,14.7065,14.7065,14.623,14.4561,14.4333,14.4181,14.3954,14.3802,14.0539,0.0,0.0,0.0,0.0,0.0,0.0,0.0,11.0449,11.2475,11.2927,11.5569,11.7804,11.8181,12.0832,12.3085,12.3388,12.4603,12.6046,12.7792,12.8324,12.8476,12.8476,12.9691,13.1209,13.288,13.3032,13.3715,13.5309,13.5689,13.66,13.8347,14.0017,14.1536,14.2903,14.4269,14.5181,14.5484,14.5484,14.5636,14.6016,14.6016,14.6699,14.799,14.799,14.8749,15.004,15.004,15.004,15.004,15.004,15.004,15.004,15.004,14.837,14.6016,14.6016,14.6016,14.6016,14.6016,14.6016,14.6016,14.6016,14.6016,14.6016,14.6016,14.6927,14.799,14.799,14.8977,15.004,15.004,15.004,15.004,15.004,15.004,15.004,14.9955,14.9929,14.9904,14.9894,14.9884,14.9873,14.9873,14.9873,14.9873,14.9873,14.9873,14.9873,14.9873,14.9873,14.9873,14.9873,14.9873,14.9873,14.9873,14.9873,14.9873,14.9873,14.8583,14.7824,14.7824,14.6534,14.5623,14.532,14.532,14.4561,14.2967,14.1601,14.016,13.8794,13.7504,13.6138,0.0,0.0,0.0,0.0,0.0,0.0,0.0,0.0,0.0,0.0,0.0,11.36,11.4461,0.0,12.0124,12.1032,12.2629,12.4299,12.6046,12.6957,12.7185,12.635,12.7716,12.9083,12.9994,13.083,13.1969,13.3639,13.3715,13.4474,13.6069,13.7056,13.7891,13.865,13.9486,14.0777,14.2447,14.2447,14.3358,14.5029,14.5029,14.5481,14.6297,14.6297,14.6766,14.7534,14.7534,14.7534,14.7534,14.7534,14.7534,14.7534,14.7534,14.6471,14.5029,14.5029,14.5029,14.5029,14.5029,14.5029,14.5029,14.5029,14.5029,14.5029,14.5029,14.556,14.6244,14.6244,14.685,14.7529,14.7529,14.7529,14.7757,14.8592,14.8813,14.9024,14.9693,14.9894,14.9873,14.9873,14.9873,14.9873,14.9873,14.9873,14.9873,14.9873,14.9873,14.9873,14.9873,14.9873,14.9873,14.9873,14.9873,14.9873,14.9873,14.9873,14.9873,14.9873,14.8279,14.6989,14.6155,14.4561,14.3271,14.2436,14.1526,14.0311,13.8718,13.7807,13.6972,13.6062,13.1888,12.9915,0.0,0.0,0.0,0.0,0.0,0.0,0.0,0.0,0.0,0.0,0.0,0.0,0.0,0.0,0.0,11.8722,12.0426,12.2097,12.3765,12.521,12.5514,12.4148,12.5817,12.7032,12.7033,12.8552,13.0146,13.1513,13.1893,13.2804,13.4322,13.455,13.4702,13.493,13.493,13.6219,13.8954,13.8954,14.0321,14.3054,14.3053,0.0,14.3585,14.3908,14.4242,14.457,14.4876,14.5029,14.5029,14.5027,14.5027,14.4877,14.3586,14.3054,14.3054,14.3054,14.3054,14.3054,14.3054,14.3054,14.3054,14.3054,14.3054,14.3054,14.3054,14.3282,0.0,14.3583,14.4029,14.4545,14.4545,14.4773,14.538,14.6747,14.702,14.7369,14.8659,14.8886,14.8962,14.9342,14.9418,14.9493,14.9797,14.9342,14.8962,14.9342,14.9114,14.9114,14.9797,14.9569,14.9493,14.9797,14.9873,14.9721,14.9418,14.9645,14.9569,14.8962,14.79,14.6458,14.4485,14.2208,14.0539,13.9477,13.7807,13.5986,13.3937,13.3937,13.3633,13.2875,12.6804,12.4224,0.0,0.0,0.0,0.0,0.0,0.0,0.0,0.0,0.0,0.0,0.0,0.0,0.0,0.0,0.0,0.0,11.6976,11.8602,12.0234,12.0644,12.0731,12.0503,12.3369,12.5257,12.5286,12.6805,12.7868,12.8096,12.9463,13.1057,13.2728,13.288,0.0,0.0,0.0,13.5066,13.5446,13.5446,13.5673,13.6053,13.603,13.684,13.8349,13.9853,14.1372,14.2854,14.434,14.5029,14.5028,14.5001,14.5007,14.4421,13.8414,13.6053,13.6053,13.6053,13.6053,13.6053,13.6053,0.0,0.0,13.6053,13.6053,13.6053,13.6053,13.7116,13.825,13.8299,14.0407,14.276,14.276,14.3899,14.5027,14.5255,14.533,14.532,14.5396,14.5396,14.5851,14.7369,14.7596,14.8128,14.9645,14.7369,14.5927,14.7369,14.6382,14.6458,14.9493,14.8583,14.8203,14.9721,14.9873,0.0,14.7748,14.9038,14.8583,14.5547,14.661,14.5927,14.2891,13.8262,13.6365,13.7655,13.6062,13.3633,13.0446,13.0446,12.8929,12.6045,12.2251,12.134,0.0,0.0,0.0,0.0,0.0,0.0,0.0,0.0,0.0,0.0,0.0,0.0,0.0,0.0,0.0,0.0,11.3496,11.4491,11.4194,11.5029,11.6016,11.6912,11.9999,12.2048,12.2074,12.4449,12.6046,12.6046,12.6727,12.7863,12.9534,12.961,13.0363,13.2019,13.2082,13.2531,13.3441,13.3441,13.3897,13.4876,13.4933,13.5303,13.5986,13.6713,13.7403,13.8086,13.8866,13.9177,13.9174,13.9134,13.9142,13.887,0.0,0.0,0.0,0.0,13.4884,13.4884,13.4884,13.4884,13.4884,13.4884,13.4884,13.4884,13.4884,13.5415,13.5938,13.592,13.6972,13.8045,13.8045,13.8566,13.9401,14.0387,14.1374,14.236,14.3271,14.4181,14.5016,14.5699,14.5851,0.0,14.4333,14.3726,14.3726,14.4409,14.4713,14.532,14.6762,14.6306,14.6155,14.6837,14.6913,14.661,14.5927,14.6534,0.0,0.0,0.0,14.2436,14.107,13.7048,0.0,0.0,0.0,12.8929,12.559,12.559,0.0,0.0,11.3912,11.3287,0.0,0.0,0.0,0.0,0.0,0.0,0.0,0.0,0.0,0.0,0.0,0.0,0.0,0.0,0.0,0.0,10.9606,11.048,10.8793,11.0098,11.1739,11.3372,11.6104,11.8018,11.857,12.1635,12.3613,12.3611,12.4432,12.556,12.6775,12.6851,12.7369,12.8625,12.8625,12.9384,13.0978,13.1053,13.1888,13.3558,13.3558,13.3558,13.3558,13.4013,13.4184,13.4215,13.467,13.4898,13.4898,13.4867,13.4884,13.4757,13.2902,13.2201,13.2201,13.2201,13.2201,13.2201,13.2201,13.2201,13.2201,13.2201,13.2201,13.2277,13.2733,13.2875,13.2951,13.3406,13.3861,13.4165,13.4165,13.4544,13.5227,13.6441,13.7655,13.887,14.016,14.1298,14.2208,14.2664,14.2436,14.1374,13.8945,13.9553,14.0539,14.0994,14.1677,14.2588,14.403,14.3802,14.3802,14.4713,14.4789,14.4637,14.4181,14.4181,14.3802,14.2816,14.0539,13.887,13.7883,13.5531,13.2647,12.9232,12.7183,12.4451,0.0,0.0,0.0,0.0,0.0,0.0,0.0,0.0,0.0,0.0,0.0,0.0,0.0,0.0,0.0,0.0,0.0,0.0,0.0,0.0,0.0,0.0,0.0,0.0,10.5195,10.6531,10.8279,10.9957,11.1627,11.3251,11.5036,11.8218,12.01,12.0059,12.317,12.4992,12.5068,12.5058,12.5058,12.5134,12.5134,12.5969,12.7639,12.7639,12.8473,12.9991,12.9991,12.9991,13.0067,13.1736,13.2429,13.2581,13.4175,13.4933,13.4933,13.4933,13.4884,13.4226,12.7809,12.5286,12.5286,12.5286,12.5286,12.5286,12.5286,12.5286,12.5286,12.5286,12.5286,12.559,12.7259,12.7714,12.8094,12.9612,13.1205,13.2419,13.2419,13.3709,13.4924,13.4924,13.4999,13.5075,13.5151,13.5151,13.5682,13.7352,13.6365,13.5151,13.5075,13.5075,13.5682,13.7352,13.6214,0.0,14.1905,14.1146,14.1298,14.4485,14.4789,14.4181,14.2664,14.2588,14.1146,13.7883,13.7579,13.6062,13.2723,13.2495,13.0902,12.7639,12.43,12.0978,11.7584,0.0,0.0,0.0,0.0,0.0,0.0,0.0,0.0,0.0,0.0,0.0,0.0,0.0,0.0,0.0,0.0,0.0,0.0,0.0,0.0,0.0,0.0,0.0,0.0,10.1967,10.3403,10.6323,10.8955,11.0859,11.1668,11.4579,11.6477,11.6559,11.7622,11.876,11.9898,12.1037,12.2175,12.3313,12.4376,12.5286,12.5817,12.5817,12.6121,12.6652,12.6652,12.6652,12.6652,12.7183,12.7487,12.7487,12.8094,12.8322,12.8322,12.8322,12.834,12.812,12.5903,12.4983,12.4983,12.4983,12.4983,12.4983,12.4983,12.4983,12.4983,12.4983,12.4983,12.5058,12.5666,12.5817,12.5969,12.65,12.7031,12.7487,12.7487,12.7866,12.8625,12.9763,13.0826,13.1888,13.2951,13.4089,13.5075,13.5606,13.1736,12.8701,12.9839,13.0826,13.2116,13.3861,13.4544,13.5531,13.72,13.6972,13.7048,13.8111,13.8262,13.8035,13.7504,13.7504,13.6972,13.5834,13.4696,13.3026,13.0826,12.9687,12.7563,12.4224,12.1947,11.9148,11.5741,0.0,0.0,0.0,0.0,0.0,0.0,0.0,0.0,0.0,0.0,0.0,0.0,0.0,0.0,0.0,0.0,0.0,0.0,0.0,0.0,0.0,0.0,0.0,0.0,0.0,0.0,10.2832,10.5468,0.0,10.8041,11.0395,11.1982,11.2072,11.2672,11.3728,11.5464,11.6576,11.8001,11.9671,12.0809,12.172,12.2251,12.2858,12.3465,12.4072,12.4679,12.4983,12.4983,12.4983,12.4983,12.4983,12.4983,12.4983,12.4755,12.2402,12.1416,12.1349,12.1303,12.132,12.1324,12.1315,12.1315,12.1309,12.1357,12.1416,12.1416,12.1416,12.1365,12.1467,12.1998,12.2163,12.2321,12.2914,12.3137,12.3283,12.3929,12.4072,12.4527,12.6197,12.7411,12.8397,12.9536,13.0598,13.1205,13.0598,12.7031,12.4603,12.6349,12.7487,12.8701,13.037,13.1585,13.2723,13.3861,13.4013,13.4241,13.4848,13.4924,13.4924,13.4924,13.4392,13.4013,13.4013,13.1888,13.0143,12.908,12.6349,12.3541,12.0733,11.8381,11.5589,0.0,0.0,0.0,0.0,0.0,0.0,0.0,0.0,0.0,0.0,0.0,0.0,0.0,0.0,0.0,0.0,0.0,0.0,0.0,0.0,0.0,0.0,0.0,0.0,0.0,0.0,0.0,9.9417,10.1062,0.0,0.0,0.0,0.0,10.6788,10.8379,11.0087,11.1692,11.1977,11.2849,11.4443,11.4586,11.5421,11.7166,11.876,12.0429,12.2099,12.3693,12.4451,12.4451,12.4451,12.4451,12.4451,12.4451,12.4451,12.3996,11.7318,11.4662,11.4603,11.4503,11.4419,11.4406,11.4422,11.4424,11.4427,11.4547,11.4595,11.4595,11.4595,11.4567,11.473,11.6322,11.6742,0.0,0.0,11.9285,11.9743,12.1524,12.2023,12.2478,12.4224,12.4603,12.4603,12.4679,12.4755,12.4224,12.2402,12.2099,12.263,12.43,0.0,12.5286,12.7031,12.7335,12.8549,13.1736,13.2116,13.2799,13.4468,13.462,13.462,13.462,13.3178,13.2192,13.2116,12.9232,12.7411,12.7183,12.2478,11.8988,11.7091,11.3827,0.0,0.0,0.0,0.0,0.0,0.0,0.0,0.0,0.0,0.0,0.0,0.0,0.0,0.0,0.0,0.0,0.0,0.0,0.0,0.0,0.0,0.0,0.0,0.0,0.0,0.0,9.1416,9.2814,9.5767,9.7468,9.8969,0.0,0.0,0.0,0.0,0.0,0.0,10.6382,10.781,10.8809,10.9188,11.06,11.2006,11.36,11.4055,11.5118,11.6863,11.7242,11.747,11.747,11.747,11.747,11.747,11.747,11.747,11.7166,11.2993,11.1131,11.101,11.0931,11.0828,11.0783,11.0792,11.0792,11.0808,11.0934,11.1009,11.1009,11.1009,11.0936,11.1007,11.1346,0.0,0.0,0.0,0.0,11.42,11.4655,11.5768,11.7242,11.8912,11.9367,11.9671,12.0961,12.1264,12.0354,11.7394,11.6863,11.7318,11.9064,12.0429,0.0,12.3465,12.4831,12.6424,12.8473,12.8777,12.9384,13.0978,13.1129,13.1129,13.1129,13.075,12.9991,12.8853,12.8018,12.5817,12.2023,12.0657,11.7394,11.2006,0.0,0.0,0.0,0.0,0.0,0.0,0.0,0.0,0.0,0.0,0.0,0.0,0.0,0.0,0.0,0.0,0.0,0.0,0.0,0.0,0.0,0.0,0.0,0.0,0.0,0.0,0.0,8.7198,8.9599,9.2256,9.3798,9.5384,0.0,0.0,0.0,0.0,0.0,0.0,0.0,0.0,0.0,10.4983,10.6679,10.8049,10.9031,10.9784,11.0676,11.1627,11.2386,11.2765,11.2765,11.2765,11.2765,11.2765,11.2765,11.193,11.0413,10.848,10.7215,10.6354,0.0,0.0,0.0,0.0,10.503,10.5058,10.5192,10.5216,10.5216,10.5216,0.0,0.0,0.0,0.0,0.0,0.0,0.0,10.8105,10.9642,11.0847,11.2082,11.3752,11.4207,11.4662,11.6256,11.489,11.3001,11.1815,11.1592,11.2352,11.4781,11.5995,0.0,0.0,0.0,12.3259,12.5049,12.5774,12.6824,12.8625,12.817,12.8018,12.8777,12.817,12.7335,12.65,12.4983,12.2934,12.005,11.7166,11.3145,0.0,0.0,0.0,0.0,0.0,0.0,0.0,0.0,0.0,0.0,0.0,0.0,0.0,0.0,0.0,0.0,0.0,0.0,0.0,0.0,0.0,0.0,0.0,0.0,0.0,0.0,0.0,0.0,0.0,8.6453,8.8339,0.0,0.0,0.0,0.0,0.0,0.0,0.0,0.0,0.0,0.0,0.0,0.0,0.0,10.3092,10.3085,10.5232,10.6455,10.6799,10.8524,10.9358,10.9297,10.9358,10.935,10.9274,10.844,0.0,10.3604,10.3494,0.0,0.0,0.0,0.0,0.0,0.0,0.0,0.0,0.0,0.0,0.0,0.0,0.0,0.0,0.0,0.0,0.0,0.0,0.0,0.0,0.0,0.0,10.7165,10.8667,10.9199,10.951,11.0214,10.695,10.4385,10.6,10.6455,10.7518,0.0,0.0,0.0,0.0,0.0,0.0,12.1841,12.3266,12.4826,12.6824,12.5807,12.559,12.7011,12.5807,12.4755,12.4376,12.1568,11.9519,11.8684,11.3069,0.0,0.0,0.0,0.0,0.0,0.0,0.0,0.0,0.0,0.0,0.0,0.0,0.0,0.0,0.0,0.0,0.0,0.0,0.0,0.0,0.0,0.0,0.0,0.0,0.0,0.0,0.0,0.0,0.0,0.0,0.0,0.0,0.0,0.0,0.0,0.0,0.0,0.0,0.0,0.0,0.0,0.0,0.0,0.0,0.0,0.0,0.0,0.0,0.0,0.0,10.4925,10.5752,10.5692,10.5823,10.586,10.5556,10.0009,9.724,9.6509,9.6546,0.0,0.0,0.0,0.0,0.0,0.0,0.0,0.0,0.0,0.0,0.0,0.0,0.0,0.0,0.0,0.0,0.0,0.0,0.0,0.0,0.0,0.0,10.3263,10.368,10.4797,10.4679,10.059,0.0,0.0,0.0,0.0,0.0,0.0,0.0,0.0,0.0,0.0,0.0,11.9656,12.1457,12.3049,12.4507,12.4858,12.4951,12.4977,12.5003,12.3768,12.0961,12.0278,11.747,0.0,0.0,0.0,0.0,0.0,0.0,0.0,0.0,0.0,0.0,0.0,0.0,0.0,0.0,0.0,0.0,0.0,0.0,0.0,0.0,0.0,0.0,0.0,0.0,0.0,0.0,0.0,0.0,0.0,0.0,0.0,0.0,0.0,0.0,0.0,0.0,0.0,0.0,0.0,0.0,0.0,0.0,0.0,0.0,0.0,0.0,0.0,0.0,0.0,0.0,0.0,0.0,0.0,0.0,0.0,0.0,0.0,0.0,9.6573,9.4681,0.0,0.0,0.0,0.0,0.0,0.0,0.0,0.0,0.0,0.0,0.0,0.0,0.0,0.0,0.0,0.0,0.0,0.0,0.0,0.0,0.0,0.0,0.0,0.0,0.0,0.0,0.0,0.0,0.0,0.0,0.0,0.0,0.0,0.0,0.0,0.0,0.0,0.0,0.0,0.0,11.4056,11.7072,11.9696,12.1504,12.1988,12.2461,12.3295,12.1917,12.0354,11.876,11.618,0.0,0.0,0.0,0.0,0.0,0.0,0.0,0.0,0.0,0.0,0.0,0.0,0.0,0.0,0.0,0.0,0.0,0.0,0.0,0.0,0.0,0.0,0.0,0.0,0.0,0.0,0.0,0.0,0.0,0.0,0.0,0.0,0.0,0.0,0.0,0.0,0.0,0.0,0.0,0.0,0.0,0.0,0.0,0.0,0.0,0.0,0.0,0.0,0.0,0.0,0.0,0.0,0.0,0.0,0.0,0.0,0.0,0.0,0.0,9.3217,9.2336,0.0,0.0,0.0,0.0,0.0,0.0,0.0,0.0,0.0,0.0,0.0,0.0,0.0,0.0,0.0,0.0,0.0,0.0,0.0,0.0,0.0,0.0,0.0,0.0,0.0,0.0,0.0,0.0,0.0,0.0,0.0,0.0,0.0,0.0,0.0,0.0,0.0,0.0,0.0,0.0,10.9212,11.3089,11.6451,11.8461,11.8521,11.9149,12.1034,11.848,11.654,11.5876,11.2158,0.0,0.0,0.0,0.0,0.0,0.0,0.0,0.0,0.0,0.0,0.0,0.0,0.0,0.0,0.0,0.0,0.0,0.0,0.0,0.0,0.0,0.0,0.0,0.0,0.0,0.0,0.0,0.0,0.0,0.0,0.0,0.0,0.0,0.0,0.0,0.0,0.0,0.0,0.0,0.0,0.0,0.0,0.0,0.0,0.0,0.0,0.0,0.0,0.0,0.0,0.0,0.0,0.0,0.0,0.0,0.0,0.0,0.0,0.0,0.0,0.0,0.0,0.0,0.0,0.0,0.0,0.0,0.0,0.0,0.0,0.0,0.0,0.0,0.0,0.0,0.0,0.0,0.0,0.0,0.0,0.0,0.0,0.0,0.0,0.0,0.0,0.0,0.0,0.0,0.0,0.0,0.0,0.0,0.0,0.0,0.0,0.0,0.0,0.0,0.0,0.0,10.8742,11.1963,11.4522,11.5822,11.5202,11.5313,11.7026,11.5665,11.3562,11.0859,0.0,0.0,0.0,0.0,0.0,0.0,0.0,0.0,0.0,0.0,0.0,0.0,0.0,0.0,0.0,0.0,0.0,0.0,0.0,0.0,0.0,0.0,0.0,0.0,0.0,0.0,0.0,0.0,0.0,0.0,0.0,0.0,0.0,0.0,0.0,0.0,0.0,0.0,0.0,0.0,0.0,0.0,0.0,0.0,0.0,0.0,0.0,0.0,0.0,0.0,0.0,0.0,0.0,0.0,0.0,0.0,0.0,0.0,0.0,0.0,0.0,0.0,0.0,0.0,0.0,0.0,0.0,0.0,0.0,0.0,0.0,0.0,0.0,0.0,0.0,0.0,0.0,0.0,0.0,0.0,0.0,0.0,0.0,0.0,0.0,0.0,0.0,0.0,0.0,0.0,0.0,0.0,0.0,0.0,0.0,0.0,0.0,0.0,0.0,0.0,0.0,0.0,10.5672,10.8686,11.107,11.2796,11.3534,11.4296,11.5301,11.3887,11.2108,11.01,0.0,0.0,0.0,0.0,0.0,0.0,0.0,0.0,0.0,0.0,0.0,0.0,0.0,0.0,0.0,0.0,0.0,0.0,0.0,0.0,0.0,0.0,0.0,0.0,0.0,0.0,0.0,0.0,0.0,0.0,0.0,0.0,0.0,0.0,0.0,0.0,0.0,0.0,0.0,0.0,0.0,0.0,0.0,0.0,0.0,0.0,0.0,0.0,0.0,0.0,0.0,0.0,0.0,0.0,0.0,0.0,0.0,0.0,0.0,0.0,0.0,0.0,0.0,0.0,0.0,0.0,0.0,0.0,0.0,0.0,0.0,0.0,0.0,0.0,0.0,0.0,0.0,0.0,0.0,0.0,0.0,0.0,0.0,0.0,0.0,0.0,0.0,0.0,0.0,0.0,0.0,0.0,0.0,0.0,0.0,0.0,0.0,0.0,0.0,0.0,0.0,0.0,10.23,10.5512,10.8251,11.0131,11.1369,11.2503,11.3506,11.1653,10.9697,10.79,0.0,0.0,0.0,0.0,0.0,0.0,0.0,0.0,0.0,0.0,0.0,0.0,0.0,0.0,0.0,0.0,0.0,0.0,0.0,0.0,0.0,0.0,0.0,0.0,0.0,0.0,0.0,0.0,0.0,0.0,0.0,0.0,0.0,0.0,0.0,0.0,0.0,0.0,0.0,0.0,0.0,0.0,0.0,0.0,0.0,0.0,0.0,0.0,0.0,0.0,0.0,0.0,0.0,0.0,0.0,0.0,0.0,0.0,0.0,0.0,0.0,0.0,0.0,0.0,0.0,0.0,0.0,0.0,0.0,0.0,0.0,0.0,0.0,0.0,0.0,0.0,0.0,0.0,0.0,0.0,0.0,0.0,0.0,0.0,0.0,0.0,0.0,0.0,0.0,0.0,0.0,0.0,0.0,0.0,0.0,0.0,0.0,0.0,0.0,0.0,0.0,0.0,9.9001,10.3184,10.6558,10.8129,10.8278,10.9232,11.1408,10.8641,10.5521,0.0,0.0,0.0,0.0,0.0,0.0,0.0,0.0,0.0,0.0,0.0,0.0,0.0,0.0,0.0,0.0,0.0,0.0,0.0,0.0,0.0,0.0,0.0,0.0,0.0,0.0,0.0,0.0,0.0,0.0,0.0,0.0,0.0,0.0,0.0,0.0,0.0,0.0,0.0,0.0,0.0,0.0,0.0,0.0,0.0,0.0,0.0,0.0,0.0,0.0,0.0,0.0,0.0,0.0,0.0,0.0,0.0,0.0,0.0,0.0,0.0,0.0,0.0,0.0,0.0,0.0,0.0,0.0,0.0,0.0,0.0,0.0,0.0,0.0,0.0,0.0,0.0,0.0,0.0,0.0,0.0,0.0,0.0,0.0,0.0,0.0,0.0,0.0,0.0,0.0,0.0,0.0,0.0,0.0,0.0,0.0,0.0,0.0,0.0,0.0,0.0,0.0,0.0,9.8796,10.13,10.3345,10.4804,10.4913,10.5406,10.6427,10.557,10.3801,10.0919,0.0,0.0,0.0,0.0,0.0,0.0,0.0,0.0,0.0,0.0,0.0,0.0,0.0,0.0,0.0,0.0,0.0,0.0,0.0,0.0,0.0,0.0,0.0,0.0,0.0,0.0,0.0,0.0,0.0,0.0,0.0,0.0,0.0,0.0,0.0,0.0,0.0,0.0,0.0,0.0,0.0,0.0,0.0,0.0,0.0,0.0,0.0,0.0,0.0,0.0,0.0,0.0,0.0,0.0,0.0,0.0,0.0,0.0,0.0,0.0,0.0,0.0,0.0,0.0,0.0,0.0,0.0,0.0,0.0,0.0,0.0,0.0,0.0,0.0,0.0,0.0,0.0,0.0,0.0,0.0,0.0,0.0,0.0,0.0,0.0,0.0,0.0,0.0,0.0,0.0,0.0,0.0,0.0,0.0,0.0,0.0,0.0,0.0,0.0,0.0,0.0,0.0,0.0,9.9013,10.0835,10.2296,10.3085,10.3743,10.4187,10.3003,10.1304,9.909,0.0,0.0,0.0,0.0,0.0,0.0,0.0,0.0,0.0,0.0,0.0,0.0,0.0,0.0,0.0,0.0,0.0,0.0,0.0,0.0,0.0,0.0,0.0,0.0,0.0,0.0,0.0,0.0,0.0,0.0,0.0,0.0,0.0,0.0,0.0,0.0,0.0,0.0,0.0,0.0,0.0,0.0,0.0,0.0,0.0,0.0,0.0,0.0,0.0,0.0,0.0,0.0,0.0,0.0,0.0,0.0,0.0,0.0,0.0,0.0,0.0,0.0,0.0,0.0,0.0,0.0,0.0,0.0,0.0,0.0,0.0,0.0,0.0,0.0,0.0,0.0,0.0,0.0,0.0,0.0,0.0,0.0,0.0,0.0,0.0,0.0,0.0,0.0,0.0,0.0,0.0,0.0,0.0,0.0,0.0,0.0,0.0,0.0,0.0,0.0,0.0,0.0,0.0,9.6606,9.9006,10.039,10.2215,10.3362,10.3658,10.0662,9.8259,9.7109,9.3972,0.0,0.0,0.0,0.0,0.0,0.0,0.0,0.0,0.0,0.0,0.0,0.0,0.0,0.0,0.0,0.0,0.0,0.0,0.0,0.0,0.0,0.0,0.0,0.0,0.0,0.0,0.0,0.0,0.0,0.0,0.0,0.0,0.0,0.0,0.0,0.0,0.0,0.0,0.0,0.0,0.0,0.0,0.0,0.0,0.0,0.0,0.0,0.0,0.0,0.0,0.0,0.0,0.0,0.0,0.0,0.0,0.0,0.0,0.0,0.0,0.0,0.0,0.0,0.0,0.0,0.0,0.0,0.0,0.0,0.0,0.0,0.0,0.0,0.0,0.0,0.0,0.0,0.0,0.0,0.0,0.0,0.0,0.0,0.0,0.0,0.0,0.0,0.0,0.0,0.0,0.0,0.0,0.0,0.0,0.0,0.0,0.0,0.0,0.0,0.0,0.0,0.0,9.5085,9.7319,9.7433,9.787,9.8271,9.8547,9.6584,9.4818,9.3436,9.2802,0.0,0.0,0.0,0.0,0.0,0.0,0.0,0.0,0.0,0.0,0.0,0.0,0.0,0.0,0.0,0.0,0.0,0.0,0.0,0.0,0.0,0.0,0.0,0.0,0.0,0.0,0.0,0.0,0.0,0.0,0.0,0.0,0.0,0.0,0.0,0.0,0.0,0.0,0.0,0.0,0.0,0.0,0.0,0.0,0.0,0.0,0.0,0.0,0.0,0.0,0.0,0.0,0.0,0.0,0.0,0.0,0.0,0.0,0.0,0.0,0.0,0.0,0.0,0.0,0.0,0.0,0.0,0.0,0.0,0.0,0.0,0.0,0.0,0.0,0.0,0.0,0.0,0.0,0.0,0.0,0.0,0.0,0.0,0.0,0.0,0.0,0.0,0.0,0.0,0.0,0.0,0.0,0.0,0.0,0.0,0.0,0.0,0.0,0.0,0.0,0.0,0.0,9.2834,9.4633,9.5042,9.5209,9.5279,9.5438,9.4048,9.2834,9.2169,9.091,0.0,0.0,0.0,0.0,0.0,0.0,0.0,0.0,0.0,0.0,0.0,0.0,0.0,0.0,0.0,0.0,0.0,0.0,0.0,0.0,0.0,0.0,0.0,0.0,0.0,0.0,0.0,0.0,0.0,0.0,0.0,0.0,0.0,0.0,0.0,0.0,0.0,0.0,0.0,0.0,0.0,0.0,0.0,0.0,0.0,0.0,0.0,0.0,0.0,0.0,0.0,0.0,0.0,0.0,0.0,0.0,0.0,0.0,0.0,0.0,0.0,0.0,0.0,0.0,0.0,0.0,0.0,0.0,0.0,0.0,0.0,0.0,0.0,0.0,0.0,0.0,0.0,0.0,0.0,0.0,0.0,0.0,0.0,0.0,0.0,0.0,0.0,0.0,0.0,0.0,0.0,0.0,0.0,0.0,0.0,0.0,0.0,0.0,0.0,0.0,0.0,0.0,0.0,9.182,9.308,9.3451,9.3548,9.3548,9.229,9.151,9.1729,0.0,0.0,0.0,0.0,0.0,0.0,0.0,0.0,0.0,0.0,0.0,0.0,0.0,0.0,0.0,0.0,0.0,0.0,0.0,0.0,0.0,0.0,0.0,0.0,0.0,0.0,0.0,0.0,0.0,0.0,0.0,0.0,0.0,0.0,0.0,0.0,0.0,0.0,0.0,0.0,0.0,0.0,0.0,0.0,0.0,0.0,0.0,0.0,0.0,0.0,0.0,0.0,0.0,0.0,0.0,0.0,0.0,0.0,0.0,0.0,0.0,0.0,0.0,0.0,0.0,0.0,0.0,0.0,0.0,0.0,0.0,0.0,0.0,0.0,0.0,0.0,0.0,0.0,0.0,0.0,0.0,0.0,0.0,0.0,0.0,0.0,0.0,0.0,0.0,0.0,0.0,0.0,0.0,0.0,0.0,0.0,0.0,0.0,0.0,0.0,0.0,0.0,0.0,0.0,9.0138,9.1867,9.2063,9.2086,9.2086,9.0771,8.9958,8.9987,0.0,0.0,0.0,0.0,0.0,0.0,0.0,0.0,0.0,0.0,0.0,0.0,0.0,0.0]}],[{"header":{"parameterUnit":"kt","parameterCategory":2,"dx":1,"dy":1,"la1":29.285339999999998,"la2":30.599998999999997,"lo1":-89.70041500000002,"lo2":-87.6738589999976,"nx":112,"ny":82,"refTime":"2022-09-25T06:00:00:Z","depth":0,"parameterNumber":2,"parameterNumberName":"V-component_of_WINDS"},"data":[2.2942,2.2758,2.2534,2.223,2.2085,2.198,2.1874,2.1637,2.1347,2.1057,2.0754,2.0411,1.9936,0.0,0.0,0.0,0.0,0.0,0.0,1.9251,1.9448,1.9646,2.0437,2.1189,2.1782,2.2705,2.3523,2.4116,2.4762,2.5276,2.5593,2.579,2.5936,2.6041,2.6239,2.6476,2.6753,2.7043,2.7346,2.7636,2.7742,2.7795,2.7795,2.7795,2.7795,2.7795,2.7795,2.7094,2.5717,2.5717,2.5016,2.3625,2.1198,2.0853,2.1889,1.9461,2.0853,2.4315,2.4315,2.5016,2.5372,2.2287,2.1951,2.3022,2.2403,2.2424,1.9251,0.4188,0.0,0.0,0.0,0.0,0.0,0.0,0.0,0.0,0.0,0.0,0.0,0.0,0.0,0.0,0.0,0.0,0.0,0.0,0.0,0.0,0.0,0.0,0.0,0.0,0.0,0.0,0.0,0.0,0.0,0.0,0.0,0.0,0.0,-0.1636,-0.3265,-0.5205,-0.5223,-0.5223,-0.5202,-0.5223,-0.5234,-0.5234,-0.5234,-0.5234,2.2362,2.2072,2.1809,2.1611,2.14,2.1255,2.1255,2.1044,2.0754,2.0464,2.0319,2.0108,1.962,0.0,0.0,0.0,0.0,0.0,0.0,1.9435,1.987,2.0358,2.1189,2.1954,2.2521,2.3457,2.4182,2.4577,2.5224,2.5645,2.5751,2.5949,2.6094,2.6199,2.6384,2.6674,2.7056,2.7254,2.7505,2.7795,2.7795,2.7795,2.7795,2.7795,2.7795,2.7795,2.7795,2.7795,2.7795,2.7795,2.7094,2.5705,2.328,2.1544,2.0161,1.773,1.9115,2.1889,2.0853,2.2935,2.5372,2.2266,2.3324,2.5087,2.3424,2.0982,1.7119,0.9772,0.3839,0.0,0.0,0.0,0.0,0.0,0.0,0.0,0.0,0.0,0.0,0.0,0.0,0.0,0.0,0.0,0.0,0.0,0.0,0.0,0.0,0.0,0.0,0.0,0.0,0.0,0.0,0.0,0.0,0.0,0.0,0.0,0.0,-0.229,-0.3924,-0.5234,-0.5234,-0.5234,-0.5234,-0.5234,-0.5234,-0.5234,-0.5234,-0.5234,2.1743,2.1466,2.1255,2.1242,2.0806,2.0385,2.0385,2.0174,1.9897,1.9607,1.9778,1.9897,1.9607,0.0,0.0,0.0,0.0,0.0,0.0,1.9646,2.0345,2.1215,2.2085,2.285,2.343,2.401,2.4577,2.5158,2.5461,2.5751,2.6028,2.6054,2.6199,2.6489,2.6516,2.6793,2.7346,2.736,2.7518,2.7795,2.7795,2.7795,2.7795,2.7795,2.7795,2.7795,2.7795,2.7795,2.7795,2.7795,2.5705,2.2234,2.2234,2.0152,1.7038,1.7038,1.9115,2.1544,1.8077,1.9115,2.2935,2.5372,2.5717,2.4694,2.4396,1.8102,1.2882,1.9938,1.1525,0.0349,0.0698,0.0698,0.0698,0.0,0.0,0.0,0.0,0.0,0.0,0.0,0.0,0.0,0.0,0.0,0.0,0.0,0.0,0.0,0.0,0.0,0.0,0.0,0.0,0.0,0.0,0.0,0.0,0.0,0.0,-0.0,-0.0,-0.3271,-0.5234,-0.5234,-0.5234,-0.5234,-0.5234,-0.5234,-0.5234,-0.5234,-0.5234,-0.5234,2.0886,2.0701,2.0595,2.0385,2.0213,2.0094,2.0094,2.0042,1.9963,1.987,1.9923,0.0,0.0,0.0,0.0,0.0,0.0,2.0226,2.0055,2.0556,2.1255,2.2125,2.2811,2.3523,2.4314,2.4907,2.5316,2.5487,2.5764,2.5962,2.6041,2.6252,2.641,2.6489,2.6898,2.7201,2.736,2.7571,2.7716,2.7795,2.7795,2.7795,2.7795,2.7795,2.7795,2.7795,2.7795,2.7795,2.7795,2.7795,2.7107,2.6061,2.328,2.1544,2.0507,2.0507,2.1198,2.1889,2.0853,2.328,2.6061,2.5717,2.3291,2.1218,2.2308,2.1259,1.8467,1.4987,1.1144,0.9405,1.4674,1.6082,1.3622,0.2443,0.0,0.0,0.0,0.0,0.0,0.0,0.0,0.0,0.0,0.0,0.0,0.0,0.0,0.0,0.0,0.0,0.0,0.0,0.0,0.0,0.0,0.0,0.0,0.0,0.0,-0.0655,-0.1636,-0.3926,-0.5234,-0.5234,-0.5234,-0.5234,-0.5234,-0.5234,-0.5234,-0.5234,-0.5234,-0.5234,2.0015,1.9844,1.9804,1.9646,1.9607,1.9607,1.9607,1.9699,1.9791,1.9791,0.0,0.0,0.0,0.0,0.0,0.0,2.0675,2.0899,2.078,2.1268,2.2019,2.3022,2.3641,2.4195,2.4696,2.5263,2.5659,2.5777,2.5949,2.6107,2.6226,2.6397,2.6608,2.6845,2.7175,2.7412,2.7531,2.7716,2.7795,2.7795,2.7795,2.7795,2.7795,2.7795,2.7795,2.7795,2.7795,2.7795,2.7795,2.7795,2.7795,2.7451,2.536,2.4659,2.4315,2.2579,2.328,2.397,2.0853,2.328,2.7107,2.2935,2.0517,1.9834,2.2308,2.2665,2.1269,1.7062,1.5674,1.6739,2.1339,2.2414,2.0305,1.1525,0.4537,0.0,0.0,0.0,0.0,0.0,0.0,0.0,0.0,0.0,0.0,0.0,0.0,0.0,0.0,0.0,0.0,0.0,0.0,0.0,0.0,0.0,0.0,0.0,0.0,-0.0982,-0.3599,-0.458,-0.5234,-0.5234,-0.5234,-0.5234,-0.5234,-0.5234,-0.5234,-0.5234,-0.5234,-0.5234,1.9145,1.9,1.9,1.904,1.904,1.9053,1.9119,0.0,1.9567,1.9659,0.0,2.0543,2.0872,0.0,0.0,2.1017,2.1439,2.1729,2.1505,2.2033,2.2837,2.3905,2.4512,2.4841,2.4841,2.5342,2.5764,2.6028,2.6081,2.6212,2.6476,2.6555,2.6819,2.7333,2.7386,2.7531,2.7795,2.7795,2.7795,2.7795,2.7795,2.7795,2.7795,2.7795,2.7795,2.7795,2.7795,2.7795,2.7795,2.7795,2.7795,2.7795,2.7795,2.7795,2.7451,2.397,2.5016,2.675,2.0161,2.2234,2.675,1.9461,1.8432,2.0171,2.2644,2.3011,2.2319,2.2319,2.234,2.2361,2.2372,2.2393,2.2066,2.0305,0.9772,0.0,0.0,0.0,0.0,0.0,0.0,0.0,0.0,0.0,0.0,0.0,0.0,0.0,0.0,0.0,0.0,0.0,0.0,0.0,0.0,0.0,0.0,0.0,-0.0327,-0.1964,-0.5239,-0.5236,-0.5234,-0.5234,-0.5234,-0.5234,-0.5234,-0.5234,-0.5234,-0.5234,-0.5234,-0.5234,1.8499,1.8394,1.8459,1.8697,1.8763,1.8881,0.0,0.0,0.0,2.0437,2.0675,2.0912,2.1439,2.1584,2.1677,2.1861,2.2191,2.2468,2.2639,2.3575,2.4419,2.4894,2.5237,2.5434,2.5434,2.5764,2.5988,2.6041,2.6265,2.6437,2.6489,2.6938,2.7241,2.7346,2.7584,2.7742,2.7795,2.7795,2.7795,2.7795,2.7795,2.7795,2.7795,2.7795,2.7795,2.7795,2.7795,2.7795,2.7795,2.7795,2.7795,2.7795,2.7795,2.7795,2.7795,2.7094,2.7107,2.7451,2.6061,2.675,2.7107,2.2579,2.0853,2.0171,1.8796,2.0209,2.2319,2.2319,2.2308,2.2298,2.2361,2.2382,1.9215,0.7327,0.2094,0.0,0.0,0.0,0.0,0.0,0.0,0.0,0.0,0.0,0.0,0.0,0.0,0.0,0.0,0.0,0.0,0.0,0.0,0.0,0.0,0.0,0.0,0.0,-0.262,-0.4584,-0.5242,-0.5236,-0.5234,-0.5234,-0.5234,-0.5234,-0.5234,-0.5234,-0.5234,-0.5234,-0.5234,-0.5234,1.7879,1.8011,1.8275,1.842,1.8789,0.0,0.0,1.987,2.0319,2.0754,2.107,2.1453,2.2033,2.2138,2.2283,2.2731,2.3048,2.3444,2.401,2.4722,2.5237,2.5382,2.5659,2.583,2.583,2.5962,2.6054,2.6054,2.6331,2.6621,2.6911,2.7201,2.7425,2.7571,2.7716,2.7795,2.7795,2.7795,2.7795,2.7795,2.7795,2.7795,2.7795,2.7795,2.7795,2.7795,2.7795,2.7795,2.7795,2.7795,2.7874,2.8006,2.8006,2.7927,2.7795,2.7795,2.7795,2.7795,2.7795,2.7795,2.7107,2.328,2.2601,2.2622,1.9142,2.0209,2.234,2.2329,2.2308,2.2298,2.234,1.9535,1.3937,0.2787,0.0,0.0,0.0,0.0,0.0,0.0,0.0,0.0,0.0,0.0,0.0,0.0,0.0,0.0,0.0,0.0,0.0,0.0,0.0,0.0,0.0,0.0,0.0,0.0,-0.1637,-0.3275,-0.5239,-0.5239,-0.5236,-0.5234,-0.5234,-0.5234,-0.5234,-0.5234,-0.5234,-0.5234,-0.5234,-0.5234,0.0,0.0,0.0,1.8222,1.8842,0.0,1.9659,2.0292,2.0886,2.1057,2.1505,2.2033,2.2573,2.2758,2.3008,2.3523,2.3865,2.434,2.5158,2.5514,2.5685,2.5685,2.5896,2.6054,2.6054,2.6094,2.6133,2.6133,2.641,2.6806,2.732,2.7412,2.7557,2.7795,2.7795,2.7795,2.7795,2.7795,2.7795,2.7795,2.7795,2.7795,2.7795,2.7847,2.7874,2.7874,2.794,2.7966,2.7966,2.7966,2.8098,2.8296,2.8296,2.8124,2.7874,2.7874,2.7847,2.7795,2.7795,2.7795,2.7107,2.397,2.4004,2.4384,2.1229,2.0912,2.1309,2.1993,2.2329,2.2329,2.2329,1.5667,0.8002,0.5222,0.2092,0.0,0.0,0.0,0.0,0.0,0.0,0.0,0.0,0.0,0.0,0.0,0.0,0.0,0.0,0.0,0.0,0.0,0.0,0.0,0.0,0.0,0.0,0.0,0.0,-0.1309,-0.4257,-0.4912,-0.5239,-0.458,-0.4907,-0.5234,-0.5234,-0.5234,-0.5234,-0.5234,-0.5234,-0.5234,0.0,0.0,0.0,0.0,1.8684,0.0,2.0121,2.0582,2.1057,2.1835,2.2257,2.2586,2.289,2.3391,2.3839,2.4156,2.4459,2.4868,2.5474,2.5817,2.6001,2.6001,2.6028,2.6054,2.6054,2.6292,2.645,2.645,2.67,2.7004,2.7333,2.7597,2.7768,2.7795,2.7795,2.7795,2.7795,2.7795,2.7795,2.7795,2.7795,2.7795,2.7808,2.8045,2.8164,2.8177,2.8441,2.8559,2.8559,2.8559,2.8573,2.8599,2.8599,2.8428,2.8164,2.8164,2.8006,2.7795,2.7795,2.7795,2.7451,2.6418,2.3981,2.1564,2.3001,2.0566,1.8137,2.1309,2.2372,2.2372,2.2372,1.184,0.4526,1.6779,0.9772,0.0,0.0,0.0,0.0,0.0,0.0,0.0,0.0,0.0,0.0,0.0,0.0,0.0,0.0,0.0,0.0,0.0,0.0,0.0,0.0,0.0,0.0,0.0,0.0,-0.0327,-0.0655,-0.3602,-0.4582,-0.2943,-0.458,-0.5234,-0.5234,-0.5234,-0.5234,-0.5234,-0.5234,-0.5234,0.0,0.0,0.0,1.8618,0.0,0.0,2.053,2.1149,2.1756,2.2283,2.2626,2.3022,2.3641,2.3958,2.4287,2.4749,2.521,2.5593,2.583,2.5975,2.612,2.6292,2.6305,2.6371,2.6529,2.6661,2.6727,2.6727,2.7004,2.7228,2.7346,2.7636,2.7795,2.7795,2.7795,2.7795,2.7795,2.7795,2.7795,2.7795,2.7966,2.8032,2.8045,2.8335,2.8467,2.848,2.8599,2.8652,2.8678,2.9008,2.906,2.8915,2.8915,2.8731,2.8441,2.8269,2.8137,2.8019,2.7847,2.7795,2.7795,2.6762,2.5028,2.3291,2.367,2.1951,2.0229,2.1983,2.2361,2.0257,1.1497,1.1155,1.2564,0.9772,0.4537,0.0,0.0,0.0,0.0,0.0,0.0,0.0,0.0,0.0,0.0,0.0,0.0,0.0,0.0,0.0,0.0,0.0,0.0,0.0,0.0,0.0,0.0,0.0,0.0,0.0,0.0,-0.1309,-0.2291,-0.2616,-0.4253,-0.5234,-0.5234,-0.5234,-0.5234,-0.5234,-0.5234,-0.5234,1.7721,0.0,0.0,0.0,0.0,0.0,2.0899,2.1637,2.2349,2.2639,2.3048,2.3549,2.4182,2.4498,2.4828,2.5342,2.5777,2.6054,2.6054,2.612,2.6252,2.6463,2.6555,2.6687,2.6885,2.6977,2.703,2.703,2.7307,2.7478,2.7478,2.7676,2.7795,2.7795,2.7795,2.7795,2.7795,2.7795,2.7834,2.7913,2.8111,2.8256,2.8335,2.8639,2.877,2.8784,2.8849,2.8889,2.8929,2.9337,2.939,2.9219,2.9219,2.9034,2.8744,2.8533,2.8401,2.8296,2.8006,2.7913,2.7555,2.6431,2.5717,2.5028,2.3648,2.2979,2.2308,2.2319,2.235,1.991,0.9057,1.1165,1.3273,0.2441,0.0,0.0,0.0,0.0,0.0,0.0,0.0,0.0,0.0,0.0,0.0,0.0,0.0,0.0,0.0,0.0,0.0,0.0,0.0,0.0,0.0,0.0,0.0,0.0,0.0,0.0,0.0,0.0,-0.0655,-0.2616,-0.4253,-0.5234,-0.5234,-0.5234,-0.5234,-0.5234,-0.5234,-0.5234,0.0,0.0,0.0,1.9013,1.9963,2.0899,2.1202,2.194,2.2652,2.2929,2.3668,2.4274,2.4301,2.4999,2.5672,2.5975,2.6041,2.6054,2.6054,2.6305,2.6489,2.6489,2.6727,2.6898,2.6898,2.7175,2.7333,2.7333,2.761,2.7781,2.7781,2.7795,2.7795,2.7795,2.7795,2.7795,2.7795,2.7795,2.7927,2.819,2.8203,2.8362,2.8652,2.8955,2.9087,2.91,2.9377,2.9482,2.9482,2.9509,2.9509,2.9496,2.9496,2.9324,2.9087,2.9074,2.8889,2.8599,2.8296,2.819,2.7802,2.5802,2.5028,2.4683,2.2957,2.2266,2.2276,2.2308,2.235,2.2382,2.1718,1.1176,0.0698,0.0,0.0,0.0,0.0,0.0,0.0,0.0,0.0,0.0,0.0,0.0,0.0,0.0,0.0,0.0,0.0,0.0,0.0,0.0,0.0,0.0,0.0,0.0,0.0,0.0,0.0,0.0,0.0,0.0,-0.0655,-0.2616,-0.4253,-0.5234,-0.5234,-0.5234,-0.5234,-0.5234,-0.5234,-0.5234,1.7565,1.7825,1.8409,1.9056,1.978,2.0503,2.1176,2.1963,2.2763,2.3133,2.3804,2.4485,2.5065,2.5566,2.5936,2.6028,2.6054,2.612,2.6318,2.6437,2.6634,2.7017,2.7149,2.728,2.7478,2.7584,2.765,2.765,2.7742,2.7795,2.7795,2.7795,2.7795,2.7795,2.7795,2.7795,2.7795,2.7979,2.8111,2.8217,2.8612,2.8849,2.8955,2.9245,2.9377,2.9377,2.9469,2.9509,2.9509,2.9509,2.9509,2.9509,2.9509,2.9091,2.8611,2.8805,2.8675,2.7829,2.8245,2.8507,2.8102,2.6083,2.5301,2.4917,2.3001,2.2266,2.2266,2.2276,2.2308,2.1289,1.6036,1.5008,1.2222,0.2441,0.0,0.0,0.0,0.0,0.0,0.0,0.0,0.0,0.0,0.0,0.0,0.0,0.0,0.0,0.0,0.0,0.0,0.0,0.0,0.0,0.0,0.0,0.0,0.0,0.0,0.0,0.0,0.0,-0.1309,-0.4253,-0.4907,-0.5234,-0.5234,-0.5234,-0.5234,-0.5234,-0.5234,-0.5234,1.7596,1.7884,1.8256,1.9085,1.9691,2.0285,2.0737,2.1743,2.2509,2.2947,2.3563,2.4521,2.5487,2.5843,2.6054,2.6054,2.6133,2.6278,2.6463,2.6674,2.6938,2.7307,2.7452,2.7584,2.7781,2.7795,2.7795,2.7795,2.7795,2.7795,2.7795,2.7795,2.7795,2.7795,2.7795,2.7795,2.7795,2.8072,2.8309,2.8533,2.8915,2.9153,2.9258,2.943,2.9509,2.9509,2.9509,2.9509,2.9509,2.9509,2.9509,2.9509,2.9509,2.8778,2.8022,2.8948,2.8521,2.7746,2.8558,2.881,2.8414,2.6351,2.5562,2.5175,2.3262,2.2456,2.2393,2.2393,2.2361,2.1269,1.6376,1.8867,1.8545,0.349,0.0,0.0,0.0,0.0,0.0,0.0,0.0,0.0,0.0,0.0,0.0,0.0,0.0,0.0,0.0,0.0,0.0,0.0,0.0,0.0,0.0,0.0,0.0,0.0,0.0,0.0,0.0,-0.1312,-0.2944,-0.5234,-0.5234,-0.5234,-0.5234,-0.5234,-0.5234,-0.5234,-0.5234,-0.5234,1.7595,1.7922,1.8541,1.8601,1.9183,1.9694,1.9985,2.0775,2.1591,2.2722,2.3573,2.435,2.5263,2.5856,2.6041,2.6054,2.6278,2.6476,2.6516,2.699,2.7346,2.7373,2.7623,2.7795,2.7795,2.7795,2.7795,2.7795,2.7795,2.7795,2.7795,2.7795,2.7795,2.7795,2.7795,2.7795,2.7795,2.8072,2.8507,2.91,2.9113,2.9258,2.9509,2.9509,2.9509,2.9509,2.9509,2.9509,2.9509,2.9509,2.9509,2.9509,2.9509,2.8778,2.8035,2.9144,2.8778,2.801,2.8844,2.9126,2.8714,2.662,2.5823,2.5468,2.3687,2.2815,2.2636,2.2636,2.2488,2.234,2.2382,2.2055,1.8188,0.349,0.0,0.0,0.0,0.0,0.0,0.0,0.0,0.0,0.0,0.0,0.0,0.0,0.0,0.0,0.0,0.0,0.0,0.0,0.0,0.0,0.0,0.0,0.0,0.0,0.0,-0.0,-0.0332,-0.362,-0.5236,-0.5234,-0.5234,-0.5234,-0.5234,-0.5234,-0.5234,-0.5234,-0.5234,-0.5234,1.7368,1.7244,1.758,1.8083,1.8516,1.8971,1.9859,2.0595,2.1618,2.2651,2.3686,2.4313,2.4922,2.5023,2.5396,2.6054,2.612,2.6318,2.674,2.6924,2.7188,2.7636,2.7755,2.7795,2.7795,2.7795,2.7795,2.7795,2.7795,2.7795,2.7795,2.7795,2.7795,2.7795,2.7795,2.7795,2.7795,2.8072,2.8507,2.91,2.9311,2.9443,2.9509,2.9509,2.9509,2.9509,2.9509,2.9509,2.9509,2.9509,2.9509,2.9509,2.9509,2.8778,2.8035,2.84,2.7682,2.695,2.7255,2.7583,2.7897,2.5819,2.5377,2.5702,2.3741,2.2932,2.2889,2.2889,2.272,2.2562,2.2625,1.8257,1.1497,0.2093,0.0,0.0,0.0,0.0,0.0,0.0,0.0,0.0,0.0,0.0,0.0,0.0,0.0,0.0,0.0,0.0,0.0,0.0,0.0,0.0,0.0,0.0,0.0,0.0,0.0,-0.1353,-0.3993,-0.4976,-0.5279,-0.5234,-0.5234,-0.5234,-0.5234,-0.5234,-0.5234,-0.5234,-0.5234,-0.5234,1.7173,1.7256,1.7087,1.7553,1.7912,1.8326,1.9176,1.9852,2.0839,2.1912,2.2668,2.3602,2.4081,2.4428,2.4751,2.5396,2.5836,2.6397,2.6845,2.6682,2.693,2.7742,2.7451,2.7451,2.7795,2.7795,2.7795,2.7795,2.7795,2.7795,2.7795,2.7795,2.7795,2.7795,2.7795,2.7861,2.7979,2.8256,2.8639,2.91,2.9377,2.9509,2.9509,2.9509,2.9509,2.9509,2.9509,2.9509,2.9509,2.9509,2.9509,2.9509,2.9509,2.8778,2.7316,2.7669,2.695,2.5863,2.6595,2.6962,2.7291,2.5325,2.528,2.5257,2.3674,2.3206,2.3122,2.3122,2.2953,2.2794,2.2868,1.7338,0.9463,0.1756,0.0,0.0,0.0,0.0,0.0,0.0,0.0,0.0,0.0,0.0,0.0,0.0,0.0,0.0,0.0,0.0,0.0,0.0,0.0,0.0,0.0,0.0,0.0,0.0,-0.1378,-0.3417,-0.5401,-0.535,-0.5305,-0.5273,-0.5273,-0.526,-0.5234,-0.5234,-0.5234,-0.5234,-0.5234,-0.5234,1.7044,1.7127,1.7253,1.7215,1.7584,1.7944,1.8641,1.899,1.966,2.098,2.1796,2.2121,2.3125,2.3783,2.4428,2.4428,2.5615,2.6201,2.6474,2.609,2.6382,2.736,2.6737,2.6762,2.7795,2.7795,2.7795,2.7795,2.7795,2.7795,2.7795,2.7795,2.7795,2.7795,2.7834,2.7966,2.8203,2.8546,2.8836,2.91,2.9377,2.9509,2.9509,2.9509,2.9509,2.9509,2.9509,2.9509,2.9509,2.9509,2.9509,2.9509,2.9509,2.8413,2.6962,2.7682,2.6584,2.5129,2.5863,2.6229,2.6229,2.5129,2.5129,2.4762,2.4028,2.3513,2.3354,2.3354,2.3196,2.3037,2.3122,1.6811,0.8504,0.1775,0.0,0.0,0.0,0.0,0.0,0.0,0.0,0.0,0.0,0.0,0.0,0.0,0.0,0.0,0.0,0.0,0.0,0.0,0.0,0.0,0.0,0.0,-0.0349,-0.0698,-0.3806,-0.5507,-0.5499,-0.5401,-0.5345,-0.5345,-0.5329,-0.5297,-0.5244,-0.5239,-0.5234,-0.5234,-0.5234,-0.5234,1.644,1.6523,1.7032,1.7172,1.7584,1.7944,1.8641,1.9117,1.9864,2.1013,2.1028,2.1279,2.2121,2.249,2.2813,2.346,2.4466,2.4927,2.4545,2.5146,2.5741,2.6369,2.6268,2.6762,2.7795,2.7795,2.7795,2.7795,2.7795,2.7795,2.7795,2.7795,2.7795,2.7795,2.8019,2.8164,2.8203,2.8744,2.9047,2.91,2.9377,2.9509,2.9509,2.9509,2.9509,2.9509,2.9509,2.9509,2.9509,2.9509,2.9509,2.9509,2.9509,2.8778,2.7682,2.6962,2.6229,2.5129,2.4395,2.4762,2.5129,2.4395,2.4395,2.4762,2.4028,2.3629,2.3608,2.3629,2.3471,2.3312,2.3407,1.3017,0.1792,0.0359,0.0,0.0,0.0,0.0,0.0,0.0,0.0,0.0,0.0,0.0,0.0,0.0,0.0,0.0,0.0,0.0,0.0,0.0,0.0,0.0,0.0,0.0,-0.1396,-0.4539,-0.5227,-0.5549,-0.5501,-0.5477,-0.5467,-0.5467,-0.5371,-0.5316,-0.5305,-0.5258,-0.5234,-0.5234,-0.5234,-0.5234,1.6822,1.6818,1.6954,1.7542,1.7847,1.8081,1.8662,1.9053,1.9768,2.0991,2.0996,2.0916,2.1475,2.1842,2.2166,2.2813,2.346,2.4203,2.3828,2.4089,2.4339,2.5277,2.5558,2.6074,2.7107,2.7451,2.7795,2.7795,2.7795,2.7795,2.7795,2.7795,2.7861,2.8006,2.8137,2.8362,2.8678,2.8955,2.9179,2.9311,2.9456,2.9509,2.9509,2.9509,2.9509,2.9509,2.9509,2.9509,2.9509,2.9509,2.9509,2.9509,2.9509,2.8778,2.7316,2.6962,2.5496,2.4395,2.4028,2.4028,2.4395,2.4028,2.4028,2.4395,2.4028,2.3661,2.3671,2.3703,2.1398,1.9849,2.2895,1.2054,0.0,0.0,0.0,0.0,0.0,0.0,0.0,0.0,0.0,0.0,0.0,0.0,0.0,0.0,0.0,0.0,0.0,0.0,0.0,0.0,0.0,0.0,0.0,-0.1745,-0.3839,-0.5586,-0.5586,-0.5573,-0.5546,-0.5544,-0.553,-0.5499,-0.5411,-0.5353,-0.5321,-0.5263,-0.5234,-0.5234,-0.5234,-0.5234,1.7595,1.7103,1.6899,1.7529,1.7696,1.8092,1.8952,1.8927,1.9233,2.0825,2.0876,2.0841,2.0755,2.1486,2.2166,2.1842,2.249,2.3207,2.309,2.3013,2.3264,2.4179,2.4437,2.4968,2.6061,2.7107,2.7451,2.7107,2.7451,2.7795,2.7451,2.7795,2.7927,2.8203,2.8269,2.8559,2.91,2.9166,2.9298,2.9509,2.9509,2.9509,2.9509,2.9509,2.9509,2.9509,2.9509,2.9509,2.9509,2.9509,2.9509,2.9509,2.9509,2.8426,2.6595,2.6595,2.5496,2.3661,2.3661,2.3661,2.3661,2.3661,2.3661,2.3661,2.3661,2.3661,2.3671,2.3703,1.9597,1.6266,2.23,1.1796,0.0,0.0,0.0,0.0,0.0,0.0,0.0,0.0,0.0,0.0,0.0,0.0,0.0,0.0,0.0,0.0,0.0,0.0,0.0,0.0,0.0,-0.0349,-0.1047,-0.3841,-0.5586,-0.5586,-0.5586,-0.5586,-0.5586,-0.5586,-0.5565,-0.5517,-0.5459,-0.5401,-0.534,-0.5281,-0.5247,-0.5234,-0.5234,-0.5234,1.718,1.676,1.6073,1.6359,1.695,1.7701,1.9454,1.9394,1.8958,1.9444,2.0516,2.1223,2.083,2.1366,2.1842,2.1195,2.1842,2.1854,2.1227,2.2086,2.2671,2.2929,2.3165,2.4084,2.5004,2.6074,2.6074,2.5372,2.6762,2.7451,2.6762,2.7451,2.7927,2.8203,2.8467,2.877,2.91,2.9351,2.9482,2.9509,2.9509,2.9509,2.9509,2.9509,2.9509,2.9509,2.9509,2.9509,2.9509,2.9509,2.9509,2.9509,2.9509,2.8426,2.6595,2.6595,2.5496,2.3661,2.3661,2.3661,2.3661,2.3661,2.3661,2.3661,2.3661,2.3661,2.3671,2.3703,1.8124,1.4053,2.1561,1.1865,0.0,0.0,0.0,0.0,0.0,0.0,0.0,0.0,0.0,0.0,0.0,0.0,0.0,0.0,0.0,0.0,0.0,0.0,0.0,0.0,0.0,-0.1396,-0.4888,-0.5586,-0.5586,-0.5586,-0.5586,-0.5586,-0.5586,-0.5586,-0.5583,-0.5578,-0.552,-0.5462,-0.5403,-0.5342,-0.5287,-0.5234,-0.5234,-0.5234,1.8015,1.7557,1.7377,1.8462,1.8413,1.8381,1.9349,1.9905,1.991,2.025,2.0659,2.1324,2.14,2.1235,2.1344,2.1497,2.1519,2.1195,2.0871,2.1399,2.1976,2.2227,2.2794,2.3708,2.4315,2.5028,2.5717,2.5717,2.6418,2.7107,2.7107,2.7607,2.8177,2.8467,2.877,2.906,2.9351,2.9456,2.9509,2.9509,2.9509,2.9509,2.9509,2.9509,2.9509,2.9509,2.9509,2.9509,2.9509,2.9509,2.9509,2.9509,2.8778,2.7682,2.6595,2.5863,2.4762,2.3661,2.3661,2.3661,2.3661,2.3661,2.3661,2.3661,2.3661,2.3661,2.3671,2.3703,2.1484,1.9649,2.3059,1.1875,0.0,0.0,0.0,0.0,0.0,0.0,0.0,0.0,0.0,0.0,0.0,0.0,0.0,0.0,0.0,0.0,0.0,0.0,0.0,0.0,-0.1047,-0.2792,-0.5237,-0.5586,-0.5586,-0.5586,-0.5586,-0.5586,-0.5586,-0.5586,-0.5586,-0.5586,-0.5528,-0.5485,-0.5464,-0.5369,-0.5311,-0.5287,-0.525,-0.5234,1.8244,1.7984,1.8019,1.9175,1.9195,1.8834,1.8911,1.9741,2.0407,1.9918,2.0673,2.1362,2.1392,2.1323,2.1533,2.202,2.1475,2.0871,2.0871,2.1019,2.1209,2.1452,2.2347,2.2926,2.317,2.3947,2.4683,2.5028,2.5717,2.6418,2.7107,2.7364,2.7998,2.8639,2.8942,2.9232,2.9509,2.9509,2.9509,2.9509,2.9509,2.9509,2.9509,2.9509,2.9509,2.9509,2.9509,2.9509,2.9509,2.9509,2.9509,2.9144,2.8047,2.695,2.6229,2.5496,2.4395,2.3661,2.3661,2.3661,2.3661,2.3661,2.3661,2.3661,2.3661,2.3661,2.3661,2.3693,2.3735,2.3028,2.0793,1.0009,0.0,0.0,0.0,0.0,0.0,0.0,0.0,0.0,0.0,0.0,0.0,0.0,0.0,0.0,0.0,0.0,0.0,0.0,0.0,0.0,-0.1745,-0.349,-0.5586,-0.5586,-0.5586,-0.5586,-0.5586,-0.5586,-0.5586,-0.5586,-0.5586,-0.5586,-0.5546,-0.5517,-0.5499,-0.5414,-0.5356,-0.5321,-0.5279,-0.525,1.7257,1.7478,1.7675,1.7924,1.878,1.9552,1.8755,1.9221,1.9544,1.8641,2.0474,2.159,2.0696,2.1912,2.2738,2.1796,2.1355,2.0871,2.0871,2.0871,2.0966,2.1199,2.1442,2.1674,2.1896,2.3159,2.3302,2.2611,2.3993,2.5028,2.5028,2.6309,2.7283,2.8639,2.8942,2.9232,2.9509,2.9509,2.9509,2.9509,2.9509,2.9509,2.9509,2.9509,2.9509,2.9509,2.9509,2.9509,2.9509,2.9509,2.8778,2.8035,2.6962,2.5863,2.5129,2.5129,2.4395,2.3661,2.3661,2.3661,2.3661,2.3661,2.3661,2.3661,2.3661,2.3661,2.3661,2.3661,2.3714,2.1891,1.4053,0.5923,0.0,0.0,0.0,0.0,0.0,0.0,0.0,0.0,0.0,0.0,0.0,0.0,0.0,0.0,0.0,0.0,0.0,0.0,0.0,0.0,-0.1745,-0.349,-0.5586,-0.5586,-0.5586,-0.5586,-0.5586,-0.5586,-0.5586,-0.5586,-0.5586,-0.5586,-0.5586,-0.5557,-0.5499,-0.5496,-0.5438,-0.5321,-0.5321,-0.5289,1.7932,1.8028,1.7954,1.885,1.9407,1.959,1.8447,1.8823,1.9222,1.9821,2.0214,2.0665,2.1485,2.0875,2.0891,2.1706,2.1214,2.0691,2.085,2.0871,2.0956,2.1199,2.1442,2.1674,2.1885,2.2472,2.2957,2.3302,2.4338,2.5372,2.6061,2.7194,2.8206,2.8652,2.9126,2.943,2.9509,2.9509,2.9509,2.9509,2.9509,2.9509,2.9509,2.9509,2.9509,2.9509,2.9509,2.9509,2.9509,2.8778,2.84,2.7669,2.6229,2.5496,2.5129,2.4395,2.4028,2.3661,2.3661,2.3661,2.3661,2.3661,2.3661,2.3661,2.3661,2.3661,2.3661,2.3661,2.3714,2.1891,1.4053,0.5923,0.0,0.0,0.0,0.0,0.0,0.0,0.0,0.0,0.0,0.0,0.0,0.0,0.0,0.0,0.0,0.0,0.0,0.0,0.0,0.0,-0.2792,-0.4888,-0.5586,-0.5586,-0.5586,-0.5586,-0.5586,-0.5586,-0.5586,-0.5586,-0.5586,-0.5586,-0.5586,-0.5578,-0.556,-0.5517,-0.548,-0.544,-0.5361,-0.5311,1.7985,1.8028,1.8172,1.8899,1.9462,1.9463,1.8389,1.8736,1.9364,2.0086,2.0032,2.0064,2.1321,2.0793,2.0831,2.1601,2.129,2.0884,2.0712,2.0818,2.0924,2.1072,2.1378,2.1632,2.1769,2.2076,2.2611,2.3302,2.3648,2.4683,2.5717,2.6832,2.784,2.8652,2.9113,2.9403,2.9509,2.9509,2.9509,2.9509,2.9509,2.9509,2.9509,2.9509,2.9509,2.9509,2.9509,2.9144,2.8778,2.84,2.7669,2.695,2.5496,2.4762,2.4395,2.4028,2.3661,2.3661,2.3661,2.3661,2.3661,2.3661,2.3661,2.3661,2.3661,2.3661,2.3661,2.3661,2.3714,2.1891,1.4053,0.5923,0.0,0.0,0.0,0.0,0.0,0.0,0.0,0.0,0.0,0.0,0.0,0.0,0.0,0.0,0.0,0.0,0.0,0.0,-0.0349,-0.1047,-0.3141,-0.4888,-0.5586,-0.5586,-0.5586,-0.5586,-0.5586,-0.5586,-0.5586,-0.5586,-0.5586,-0.5586,-0.5586,-0.5586,-0.5586,-0.5549,-0.552,-0.5496,-0.5401,-0.5342,1.7721,1.7745,1.7833,1.8397,1.879,1.9276,1.8833,1.9014,1.9504,1.973,1.992,2.0098,2.0573,2.1286,2.182,2.1578,2.159,2.1433,2.083,2.0723,2.0871,2.0871,2.1294,2.1579,2.1579,2.2002,2.2266,2.2266,2.2266,2.3302,2.5028,2.5289,2.6605,2.8284,2.8942,2.9232,2.9509,2.9509,2.9509,2.9509,2.9509,2.9509,2.9509,2.9509,2.9509,2.9509,2.9509,2.8778,2.8035,2.8035,2.695,2.5129,2.5129,2.4395,2.3661,2.3661,2.3661,2.3661,2.3661,2.3661,2.3661,2.3661,2.3661,2.3661,2.3661,2.3661,2.3661,2.3661,2.3714,2.1891,1.4053,0.5923,0.0,0.0,0.0,0.0,0.0,0.0,0.0,0.0,0.0,0.0,0.0,0.0,0.0,0.0,0.0,0.0,0.0,0.0,-0.0699,-0.2445,-0.2793,-0.349,-0.5586,-0.5586,-0.5586,-0.5586,-0.5586,-0.5586,-0.5586,-0.5586,-0.5586,-0.5586,-0.5586,-0.5586,-0.5586,-0.5586,-0.5557,-0.5504,-0.5443,-0.5385,1.7721,1.8064,1.8244,1.8109,1.817,1.8003,1.834,1.8625,1.9147,2.005,2.047,2.0804,2.094,2.0881,2.0607,1.9993,2.1294,2.1981,2.1422,2.233,2.249,2.1842,2.2285,2.2249,2.1579,2.2002,2.2266,2.2266,2.2957,2.3648,2.3993,2.5625,2.6932,2.7575,2.8584,2.9232,2.9509,2.9509,2.9509,2.9509,2.9509,2.9509,2.9509,2.8778,2.8413,2.8413,2.8413,2.8413,2.8035,2.7316,2.6595,2.6229,2.4762,2.4028,2.3661,2.3661,2.3661,2.3661,2.3661,2.3661,2.3661,2.3661,2.3661,2.3661,2.3661,2.3661,2.3661,2.3661,2.3714,2.1891,1.4053,0.5923,0.0,0.0,0.0,0.0,0.0,0.0,0.0,0.0,0.0,0.0,0.0,0.0,0.0,0.0,0.0,0.0,0.0,0.0,-0.0706,-0.2473,-0.2805,-0.349,-0.5586,-0.5586,-0.5586,-0.5586,-0.5586,-0.5586,-0.5586,-0.5586,-0.5586,-0.5586,-0.5586,-0.5586,-0.5586,-0.5586,-0.5581,-0.5565,-0.5504,-0.5446,1.7721,1.7788,1.7887,1.8324,1.8172,1.8281,1.8838,1.9073,1.9575,2.0364,2.0986,2.1011,2.0992,2.128,2.1152,2.0665,2.1473,2.1977,2.156,2.1841,2.2043,2.1508,2.1955,2.2249,2.1579,2.2002,2.2266,2.2266,2.2957,2.3302,2.3648,2.4812,2.6046,2.702,2.7664,2.8675,2.9324,2.9078,2.8778,2.806,2.806,2.806,2.806,2.7694,2.7316,2.7316,2.7316,2.695,2.6584,2.6229,2.5496,2.5129,2.4028,2.3661,2.3661,2.3661,2.3661,2.3661,2.3661,2.3661,2.3661,2.3661,2.3661,2.3661,2.3661,2.3661,2.3661,2.3661,2.3714,2.1891,1.4053,0.5923,0.0,0.0,0.0,0.0,0.0,0.0,0.0,0.0,0.0,0.0,0.0,0.0,0.0,0.0,0.0,0.0,0.0,0.0,-0.0356,-0.1419,-0.2117,-0.351,-0.5589,-0.5586,-0.5586,-0.5586,-0.5586,-0.5586,-0.5586,-0.5586,-0.5586,-0.5586,-0.5586,-0.5586,-0.5586,-0.5586,-0.5586,-0.5586,-0.5525,-0.5467,1.7721,1.7604,1.7698,1.8439,1.8921,1.9237,1.9791,1.9949,2.02,2.0991,2.1215,2.1161,2.11,2.1539,2.2033,2.1938,2.1811,2.1625,2.1613,2.1301,2.0927,2.1163,2.1592,2.1537,2.1579,2.197,2.2224,2.2266,2.2266,2.2611,2.3302,2.3648,2.4453,2.6445,2.7082,2.7702,2.8662,2.7847,2.7279,2.6595,2.6595,2.6595,2.6595,2.6595,2.6241,2.6241,2.6241,2.5863,2.5129,2.5129,2.4762,2.4028,2.3661,2.3661,2.3661,2.3661,2.3661,2.3661,2.3661,2.3661,2.3661,2.3661,2.3661,2.3661,2.3661,2.3661,2.3661,2.3661,2.3714,2.1891,1.4053,0.5923,0.0,0.0,0.0,0.0,0.0,0.0,0.0,0.0,0.0,0.0,0.0,0.0,0.0,0.0,0.0,0.0,0.0,0.0,0.0,0.0,-0.1776,-0.3886,-0.5605,-0.5591,-0.5586,-0.5586,-0.5586,-0.5586,-0.5586,-0.5586,-0.5586,-0.5586,-0.5586,-0.5586,-0.5586,-0.5586,-0.5586,-0.5586,-0.5536,-0.5475,1.7787,1.8196,1.8452,1.896,1.9053,1.9185,1.9527,1.9804,2.0081,2.045,2.0925,2.1307,2.1135,2.1269,2.1341,2.1981,2.1386,2.0946,2.1906,2.2445,2.2524,2.2132,2.2097,2.202,2.1558,2.1812,2.2044,2.2255,2.2266,2.2266,2.2611,2.3302,2.4107,2.4369,2.6376,2.689,2.6215,2.648,2.637,2.6595,2.6595,2.6595,2.6595,2.5863,2.5129,2.5129,2.5129,2.5129,2.5129,2.5129,2.5129,2.4762,2.4028,2.3661,2.3661,2.3661,2.3661,2.3661,2.3661,2.3661,2.3661,2.3661,2.3661,2.3661,2.3661,2.3661,2.3661,2.3661,2.3714,2.1891,1.4053,0.5923,0.0,0.0,0.0,0.0,0.0,0.0,0.0,0.0,0.0,0.0,0.0,0.0,0.0,0.0,0.0,0.0,0.0,0.0,0.0,0.0,-0.3225,-0.5317,-0.5663,-0.5615,-0.5586,-0.5586,-0.5586,-0.5586,-0.5586,-0.5586,-0.5586,-0.5586,-0.5586,-0.5586,-0.5586,-0.5586,-0.5586,-0.5586,-0.5578,-0.5515,1.8183,1.8578,1.8934,1.9053,1.9092,1.9171,1.9462,1.9646,1.9831,2.0108,2.0503,2.0846,2.1017,2.1122,2.1243,2.2099,2.1937,2.1645,2.2141,2.2047,2.2057,2.1475,2.1737,2.1646,2.1558,2.178,2.2012,2.2245,2.2266,2.2266,2.2266,2.2611,2.3358,2.3816,2.5116,2.4892,2.4186,2.4778,2.504,2.4927,2.4927,2.4994,2.5129,2.4395,2.4395,2.4395,2.4395,2.4395,2.4395,2.4395,2.4395,2.4395,2.4028,2.3661,2.3661,2.3661,2.3661,2.3661,2.3661,2.3661,2.3661,2.3661,2.3661,2.3661,2.3661,2.3661,2.3661,2.3661,2.3693,2.1862,1.4047,1.2218,1.0759,0.2225,0.0,0.0,0.0,0.0,0.0,0.0,0.0,0.0,0.0,0.0,0.0,0.0,0.0,0.0,0.0,0.0,-0.0736,-0.2926,-0.4711,-0.5742,-0.5679,-0.5647,-0.5618,-0.5589,-0.5586,-0.5586,-0.5586,-0.5586,-0.5586,-0.5586,-0.5586,-0.5586,-0.5586,-0.5586,-0.5586,-0.5586,-0.5586,-0.5541,1.8337,0.0,1.8813,1.8813,1.8813,1.909,0.0,1.9351,1.9686,1.9844,2.016,2.0464,2.0688,2.1031,2.1453,2.1954,2.2283,2.2424,2.2195,2.1868,2.1715,2.1355,2.1324,2.1592,2.1892,2.1738,2.1959,2.2245,2.2266,2.2266,2.2266,2.2266,2.2611,2.3302,2.349,2.3262,2.2615,2.3491,2.3709,2.3228,2.328,2.3397,2.3576,2.364,2.3661,2.3661,2.3661,2.3661,2.3661,2.3661,2.3661,2.3661,2.3661,2.3661,2.3661,2.3661,2.3661,2.3661,2.3661,2.3661,2.3661,2.3661,2.3661,2.3661,2.3661,2.3661,2.3661,2.3661,2.3682,2.222,1.628,1.9289,1.9702,0.3709,0.0,0.0,0.0,0.0,0.0,0.0,0.0,0.0,0.0,0.0,0.0,0.0,0.0,0.0,0.0,0.0,-0.148,-0.5141,-0.5488,-0.5078,-0.5703,-0.5692,-0.566,-0.5591,-0.5586,-0.5586,-0.5586,-0.5586,-0.5586,-0.5586,-0.5586,-0.5586,-0.5586,-0.5586,-0.5586,-0.5586,-0.5586,-0.5554,0.0,1.7912,1.7924,1.7924,1.8418,1.8849,1.8623,1.9263,0.0,1.962,2.0015,2.0398,2.0424,2.0899,2.1373,2.1677,2.198,2.219,2.217,2.2276,2.258,2.2644,2.2353,2.2379,2.2873,2.1935,2.179,2.2234,2.2266,2.2266,2.2266,2.2266,2.2266,2.2611,2.2633,2.2403,2.2615,2.2636,2.2763,2.2995,2.3206,2.3312,2.3333,2.3555,2.3661,2.3661,2.3661,2.3661,2.3661,2.3661,2.3661,2.3661,2.3661,2.3661,2.3661,2.3661,2.3661,2.3661,2.3661,2.3661,2.3661,2.3661,2.3661,2.3661,2.3661,2.3661,2.3661,2.3661,2.3682,2.3714,2.3008,2.3418,1.9702,0.3709,0.0,0.0,0.0,0.0,0.0,0.0,0.0,0.0,0.0,0.0,0.0,0.0,0.0,0.0,0.0,0.0,-0.1484,-0.5558,-0.4039,-0.3636,-0.5396,-0.575,-0.5703,-0.5594,-0.5586,-0.5586,-0.5586,-0.5586,-0.5586,-0.5586,-0.5586,-0.5586,-0.5586,-0.5586,-0.5586,-0.5586,-0.5586,-0.5554,1.7901,1.7972,1.7972,1.7972,1.8467,1.8936,1.8836,1.9404,1.9949,1.9844,2.0121,2.0398,2.0398,2.0727,2.1162,2.1624,2.1795,2.223,2.301,2.2814,2.2446,2.2723,2.1919,2.1388,2.2205,2.1914,2.1769,2.2234,2.2266,2.2266,2.2266,2.2266,2.2266,2.2266,2.2266,2.2308,2.2403,2.2403,2.252,2.2752,2.2837,2.2953,2.3111,2.3333,2.3439,2.3449,2.3597,2.3661,0.0,2.3661,2.3661,2.3661,2.3661,2.3661,2.3661,2.3661,2.3661,2.3661,2.3661,2.3661,2.3661,2.3661,2.3661,2.3661,2.3661,2.3661,2.3661,2.3661,2.3671,2.3693,2.3745,2.0027,1.3702,0.2595,0.0,0.0,0.0,0.0,0.0,0.0,0.0,0.0,0.0,0.0,0.0,0.0,0.0,0.0,0.0,0.0,-0.0742,-0.2225,-0.2587,-0.3662,-0.5764,-0.5756,-0.5708,-0.5594,-0.5586,-0.5586,-0.5586,-0.5586,-0.5586,-0.5586,-0.5586,-0.5586,-0.5586,-0.5586,-0.5586,-0.5586,-0.5586,-0.5576,1.7457,1.7468,1.7468,1.7468,1.797,1.8448,1.8613,1.9361,1.9846,2.0002,2.02,2.0398,2.0398,2.0714,2.1136,2.1624,2.1513,2.1942,2.3325,2.2751,2.2311,2.2916,2.2057,2.1486,2.1646,2.1494,2.1769,2.2234,2.2266,2.2266,2.2266,2.2266,2.2266,2.2266,2.2266,2.2266,2.2266,2.2266,2.235,2.2509,2.2583,2.2699,2.2868,2.309,2.3196,2.3217,2.3449,2.3545,2.3555,2.3629,2.3661,2.3661,2.3661,2.3661,2.3661,2.3661,2.3661,2.3661,2.3661,2.3661,2.3661,2.3661,2.3661,2.3661,2.3661,2.3661,2.3661,2.3661,2.3671,2.3693,2.3745,1.5918,0.6657,0.1112,0.0,0.0,0.0,0.0,0.0,0.0,0.0,0.0,0.0,0.0,0.0,0.0,0.0,0.0,0.0,0.0,0.0,0.0,-0.1854,-0.3677,-0.5769,-0.5756,-0.5708,-0.5594,-0.5586,-0.5586,-0.5586,-0.5586,-0.5586,-0.5586,-0.5586,-0.5586,-0.5586,-0.5586,-0.5586,-0.5586,-0.5586,-0.5576,1.6892,1.6697,1.6697,1.6697,1.7215,1.7923,1.8193,1.8894,1.9577,2.0055,2.0213,2.0398,2.0398,2.0886,2.1373,2.165,2.141,2.1633,2.2825,2.2029,2.182,2.355,2.3024,2.2574,2.2121,2.1635,2.1769,2.2224,2.2266,2.2266,2.2266,2.2266,2.2266,2.2266,2.2266,2.2266,2.2266,2.2266,2.2266,2.2266,2.2498,2.2615,2.2625,2.2858,2.2974,2.2985,2.3206,2.3302,2.3323,2.3555,2.3661,2.3661,2.3661,2.3661,2.3661,2.3661,2.3661,2.3661,2.3661,2.3661,2.3661,2.3661,2.3661,2.3661,2.3661,2.3661,2.3661,2.3661,2.3682,2.3724,2.3756,1.1838,0.0,0.0,0.0,0.0,0.0,0.0,0.0,0.0,0.0,0.0,0.0,0.0,0.0,0.0,0.0,0.0,0.0,0.0,-0.0,-0.0,-0.1853,-0.3677,-0.5772,-0.5758,-0.5708,-0.5594,-0.5586,-0.5586,-0.5586,-0.5586,-0.5586,-0.5586,-0.5586,-0.5586,-0.5586,-0.5586,-0.5586,-0.5586,-0.5586,-0.5554,1.6929,1.7067,1.7193,1.7193,1.7716,1.8504,1.8954,1.959,2.0224,2.0653,2.0793,2.0767,2.0978,2.1162,2.1174,2.1113,2.1838,2.195,2.106,1.7602,1.6721,2.1981,2.241,2.1966,2.1152,2.1146,2.1526,2.1981,2.2171,2.2266,2.2266,2.2266,2.2266,2.2266,2.2266,2.2266,2.2266,2.2266,2.2266,2.2266,2.234,2.2372,2.2382,2.2615,2.272,2.2741,2.2974,2.3069,2.309,2.3312,2.3407,2.3428,2.3597,2.3661,2.3661,2.3661,2.3661,2.3661,2.3661,2.3661,2.3661,2.3661,2.3661,2.3661,2.3661,2.3661,2.3661,2.3661,2.3682,2.3714,2.3724,1.1828,0.0,0.0,0.0,0.0,0.0,0.0,0.0,0.0,0.0,0.0,0.0,0.0,0.0,0.0,0.0,0.0,0.0,0.0,-0.1113,-0.4081,-0.4793,-0.5113,-0.5764,-0.5721,-0.5666,-0.5591,-0.5586,-0.5586,-0.5586,-0.5586,-0.5586,-0.5586,-0.5586,-0.5586,-0.5586,-0.5586,-0.5586,-0.5586,-0.5586,-0.5578,1.7162,1.7289,1.7405,1.7405,1.7664,1.8204,1.9282,1.97,2.0124,2.0921,2.1044,2.1228,2.0883,2.1011,2.1204,2.1564,2.099,1.8784,1.2852,1.1486,1.3823,2.0778,2.1493,2.1345,2.085,2.1093,2.1378,2.1748,2.2086,2.2266,2.2266,2.2266,2.2266,2.2266,2.2266,2.2266,2.2266,2.2266,2.2266,2.2266,2.2266,2.2266,2.2276,2.2414,2.2477,2.2488,2.2731,2.2837,2.2847,2.308,2.3175,2.3185,2.3333,2.3386,2.3397,2.3481,2.3513,2.3534,2.3629,2.3661,2.3661,2.3661,2.3534,2.3386,2.3386,2.3397,2.3407,2.3407,2.3439,2.2347,1.6084,0.7306,0.0,0.0,0.0,0.0,0.0,0.0,0.0,0.0,0.0,0.0,0.0,0.0,0.0,0.0,0.0,0.0,0.0,0.0,-0.1484,-0.5565,-0.5864,-0.5428,-0.4653,-0.5336,-0.565,-0.5591,-0.5586,-0.5586,-0.5586,-0.5586,-0.5586,-0.5586,-0.5586,-0.5586,-0.5586,-0.5586,-0.5586,-0.5586,-0.5562,-0.5552,1.7373,1.7447,1.7468,1.7468,1.7468,1.7729,1.9353,1.9611,1.9857,2.0396,2.1179,2.1434,2.0653,2.0879,2.1354,2.1968,1.9011,1.244,0.1464,0.5043,1.1841,1.9912,2.0594,2.0417,2.0882,2.1093,2.1294,2.1537,2.1959,2.2213,2.2245,2.2266,2.2266,2.2266,2.2266,2.2266,2.2266,2.2266,2.2266,2.2266,2.2266,2.2266,2.2266,2.2266,2.2266,2.2276,2.2498,2.2583,2.2604,2.2847,2.2942,2.2942,2.2963,2.2974,2.2995,2.3196,2.327,2.3302,2.3523,2.3597,2.3597,2.3597,2.3312,2.2974,2.2974,2.3006,2.3027,2.2301,2.1964,1.8363,0.3591,0.0,0.0,0.0,0.0,0.0,0.0,0.0,0.0,0.0,0.0,0.0,0.0,0.0,0.0,0.0,0.0,0.0,0.0,0.0,-0.1482,-0.5178,-0.5456,-0.4657,-0.2839,-0.4606,-0.5644,-0.5589,-0.5586,-0.5586,-0.5586,-0.5586,-0.5586,-0.5586,-0.5586,-0.5586,-0.5586,-0.5586,-0.5583,-0.5578,-0.5523,-0.5496,1.7616,1.7806,1.7933,1.7933,1.7933,1.8212,1.9046,1.9452,1.986,1.986,2.1049,2.15,2.0098,2.1303,2.1443,1.9415,1.0537,0.2892,0.0293,0.1189,0.6681,1.9284,2.0637,2.0787,2.0882,2.0966,2.1072,2.1283,2.1568,2.1833,2.2408,2.2224,2.2298,2.2266,2.2266,2.2266,2.2266,2.2266,2.2266,2.2266,2.2266,2.2266,2.2266,2.2266,2.2266,2.2266,2.2319,2.234,2.2361,2.2594,2.2699,2.271,2.29,2.2974,2.2985,2.3027,2.3048,2.3048,2.3101,2.3122,2.3122,2.3122,2.3058,2.2985,2.2648,2.2659,2.1576,1.5807,0.9691,0.4309,0.0718,0.0,0.0,0.0,0.0,0.0,0.0,0.0,0.0,0.0,0.0,0.0,0.0,0.0,0.0,0.0,0.0,0.0,0.0,0.0,-0.0366,-0.1088,-0.1433,-0.1777,-0.2483,-0.4576,-0.5599,-0.5586,-0.5586,-0.5586,-0.5586,-0.5586,-0.5586,-0.5586,-0.5586,-0.5586,-0.5586,-0.5586,-0.5562,-0.5517,-0.5504,-0.5472,1.7828,1.7997,1.8081,1.8081,1.8081,1.8362,1.9203,1.9381,1.9567,1.9567,2.0578,2.1067,1.9821,2.0435,1.9648,1.4681,0.6027,0.0,0.0,0.0,0.2752,1.009,1.6802,2.0819,2.0934,2.0956,2.104,2.1262,2.1399,2.0169,1.7233,1.6803,1.8706,2.2287,2.2276,2.2266,2.2266,2.2266,2.2266,2.2266,2.2266,2.2266,2.2266,2.2266,2.2266,2.2266,2.2266,2.2266,2.2276,2.2403,2.2446,2.2467,2.2583,2.2636,2.2646,2.2763,2.2805,2.2826,2.2932,2.2974,2.2942,2.2731,2.2657,2.2667,2.2699,1.7707,1.0961,0.7071,0.3186,0.0,0.0,0.0,0.0,0.0,0.0,0.0,0.0,0.0,0.0,0.0,0.0,0.0,0.0,0.0,0.0,0.0,0.0,0.0,0.0,0.0,0.0,0.0,0.0,-0.1056,-0.3872,-0.4904,-0.5586,-0.5586,-0.5586,-0.5586,-0.5586,-0.5586,-0.5586,-0.5586,-0.5586,-0.5573,-0.5544,-0.5544,-0.5515,-0.5456,-0.5427,-0.5398,1.7933,1.806,1.8092,1.8092,1.8081,1.8362,1.8923,1.9203,1.9203,1.9203,2.0336,2.0896,1.9203,1.9226,1.755,1.1619,0.4627,0.0883,0.2952,0.3311,0.2464,0.0315,1.0127,1.8252,2.0651,2.0682,2.0407,1.9581,1.86,1.6276,1.3289,1.317,1.5763,2.2203,2.2181,2.2526,2.2213,2.2255,2.2266,2.2266,2.2266,2.2266,2.2266,2.2266,2.2266,2.2266,2.2266,2.2266,2.2266,2.2266,2.2266,2.2266,2.2266,2.2266,2.2287,2.2488,2.2551,2.2583,2.2784,2.2847,2.2794,2.2446,2.1615,2.0219,1.884,0.9748,0.0,0.0,0.0,0.0,0.0,0.0,0.0,0.0,0.0,0.0,0.0,0.0,0.0,0.0,0.0,0.0,0.0,0.0,0.0,0.0,0.0,0.0,0.0,0.0,-0.0,-0.0349,-0.0698,-0.2094,-0.5237,-0.5586,-0.5586,-0.5586,-0.5586,-0.5586,-0.5586,-0.5576,-0.557,-0.557,-0.5562,-0.553,-0.5483,-0.5483,-0.5454,-0.5393,-0.5345,-0.5316,1.8093,1.7975,1.8123,1.8092,1.8081,1.8081,1.8081,1.8642,1.8923,1.8362,1.9483,2.0044,1.8642,1.8123,1.7936,1.7255,0.7563,0.3837,1.5277,1.6999,1.2643,0.1262,0.1581,0.7662,1.9663,2.0703,1.8369,1.2431,0.6224,0.8241,2.007,2.0786,2.1234,2.2478,2.2445,2.2521,2.2354,2.2526,2.2266,2.2266,2.2266,2.2266,2.2266,2.2266,2.2266,2.2266,2.2266,2.2266,2.2266,2.2266,2.2266,2.2266,2.2266,2.2266,2.2266,2.2298,2.2308,2.2319,2.235,2.2361,2.2361,2.2361,1.7781,1.1481,0.4872,0.1741,0.0,0.0,0.0,0.0,0.0,0.0,0.0,0.0,0.0,0.0,0.0,0.0,0.0,0.0,0.0,0.0,0.0,0.0,0.0,0.0,0.0,0.0,0.0,0.0,-0.0699,-0.2094,-0.3839,-0.5237,-0.5586,-0.5586,-0.5586,-0.5586,-0.5586,-0.5586,-0.5586,-0.5536,-0.5509,-0.5509,-0.5459,-0.543,-0.5422,-0.5422,-0.539,-0.5334,-0.5326,-0.5295,1.5334,1.6271,1.8007,1.8113,1.8145,1.8145,1.8145,1.8426,1.8426,1.8145,1.8978,1.9518,1.8394,1.8145,1.7047,1.3691,1.1917,1.3005,1.8503,1.3002,0.6468,0.0631,0.0,0.2554,0.8493,0.9169,0.7852,0.4902,0.1636,0.2953,0.9573,1.7652,2.2473,2.2216,2.2325,2.0347,1.5956,2.0147,2.1981,2.244,2.2076,2.2139,2.2266,2.2266,2.2266,2.2266,2.2266,2.2266,2.2266,2.2266,2.2266,2.2266,2.2266,2.2276,2.2298,2.2276,2.2276,2.2298,2.2298,1.9488,1.5305,1.1139,0.7658,0.4176,0.1046,0.0,0.0,0.0,0.0,0.0,0.0,0.0,0.0,0.0,0.0,0.0,0.0,0.0,0.0,0.0,0.0,0.0,0.0,0.0,0.0,0.0,0.0,0.0,0.0,-0.175,-0.349,-0.419,-0.5237,-0.5586,-0.5586,-0.5586,-0.5586,-0.5586,-0.5554,-0.5536,-0.5536,-0.548,-0.5448,-0.5448,-0.5422,-0.5393,-0.5361,-0.5361,-0.5329,-0.5273,-0.5273,-0.5258,1.4122,1.5565,1.7509,1.6261,1.5778,1.5815,1.5815,1.5861,1.5898,1.5898,1.6443,1.7279,1.7863,1.8166,1.619,1.0229,1.512,1.838,1.4846,0.6028,0.0,0.0,0.0,0.0,0.0,0.0,0.0,0.0,0.0,0.0,0.0,1.0578,1.6632,1.6607,2.0453,1.9529,1.4118,1.9194,2.2021,2.2236,2.2204,2.229,2.2461,2.2461,2.2461,2.2461,2.2461,2.2461,2.2461,2.2107,2.2107,2.2461,2.2107,2.2129,2.216,2.0085,2.0813,2.1879,1.7982,1.3116,0.7247,0.1727,0.0,0.0,0.0,0.0,0.0,0.0,0.0,0.0,0.0,0.0,0.0,0.0,0.0,0.0,0.0,0.0,0.0,0.0,0.0,0.0,0.0,0.0,0.0,0.0,-0.0349,-0.1047,-0.1396,-0.3841,-0.5586,-0.5586,-0.5586,-0.5586,-0.5586,-0.5573,-0.5565,-0.5565,-0.5509,-0.5475,-0.5475,-0.5419,-0.5387,-0.5387,-0.5371,-0.5342,-0.53,-0.53,-0.5276,-0.5234,-0.5234,-0.5234,1.6947,1.7072,1.6121,1.0906,0.9627,0.972,0.972,0.9538,0.9622,0.9622,0.9617,1.1323,1.7037,1.8208,1.6256,1.0635,1.5197,1.5117,0.2688,0.0302,0.0,0.0,0.0,0.0,0.0,0.0,0.0,0.0,0.0,0.0,0.0,0.0655,0.0983,0.0983,1.4803,2.2219,2.1742,2.2085,2.2172,2.1674,2.2021,2.2369,2.238,2.238,2.238,2.238,2.238,2.238,2.238,2.2021,2.2021,2.238,2.2021,2.2021,2.1379,1.4347,1.6135,2.0273,0.6099,0.1013,0.0338,0.0,0.0,0.0,0.0,0.0,0.0,0.0,0.0,0.0,0.0,0.0,0.0,0.0,0.0,0.0,0.0,0.0,0.0,0.0,0.0,0.0,0.0,0.0,0.0,0.0,-0.1396,-0.3141,-0.5237,-0.5586,-0.5586,-0.5586,-0.5586,-0.5586,-0.5586,-0.5536,-0.5504,-0.5504,-0.5448,-0.5414,-0.5414,-0.5358,-0.5326,-0.5326,-0.5271,-0.5242,-0.5239,-0.5239,-0.5236,-0.5234,-0.5234,-0.5234,1.701,1.7051,1.4601,0.5435,0.328,0.3292,0.3292,0.3303,0.3323,0.3351,0.9516,1.547,1.7612,1.1626,0.567,0.3697,0.5478,0.5262,0.0592,0.0,0.0,0.0,0.0,0.0,0.0,0.0,0.0,0.0,0.0,0.0,0.0,0.0,0.0,0.0,0.5242,0.7876,0.7904,1.6854,2.122,2.0932,1.7005,1.5086,1.5183,1.5183,1.5183,1.5183,1.5183,1.5183,1.5183,1.4839,1.7561,2.1327,1.6872,1.2135,0.8095,1.0151,1.5964,2.0098,0.5071,0.0,0.0,0.0,0.0,0.0,0.0,0.0,0.0,0.0,0.0,0.0,0.0,0.0,0.0,0.0,0.0,0.0,0.0,0.0,0.0,0.0,0.0,0.0,0.0,-0.1047,-0.2094,-0.3141,-0.4164,-0.4837,-0.553,-0.553,-0.5515,-0.5477,-0.5472,-0.5472,-0.5472,-0.5454,-0.544,-0.544,-0.5387,-0.5353,-0.5353,-0.5297,-0.5265,-0.5265,-0.5244,-0.5234,-0.5234,-0.5234,-0.5234,-0.5234,-0.5234,-0.5234,1.6598,1.5248,1.2513,0.6978,0.2698,0.0,0.0,0.0,0.0,0.0,0.6379,1.2006,1.2113,0.5368,0.0,0.0,0.0,0.0,0.0,0.0,0.0,0.0,0.0,0.0,0.0,0.0,0.0,0.0,0.0,0.0,0.0,0.0,0.0,0.0,0.0,0.0,0.0,0.9178,1.3784,1.3764,0.9549,0.729,0.7337,0.7337,0.7337,0.7337,0.7337,0.7337,0.767,1.2349,1.4368,1.3701,0.9336,0.4334,0.0668,0.5696,1.0391,1.3388,0.3344,0.0,0.0,0.0,0.0,0.0,0.0,0.0,0.0,0.0,0.0,0.0,0.0,0.0,0.0,0.0,0.0,0.0,0.0,0.0,0.0,0.0,0.0,0.0,0.0,-0.2072,-0.3799,-0.449,-0.5165,-0.5491,-0.5472,-0.547,-0.5454,-0.5414,-0.5411,-0.5411,-0.5411,-0.5393,-0.5379,-0.5379,-0.5324,-0.5292,-0.5292,-0.5255,-0.5234,-0.5234,-0.5234,-0.5234,-0.5234,-0.5234,-0.5234,-0.5234,-0.5234,-0.5234,1.6718,1.2776,0.9909,1.4937,0.7931,0.0,0.0267,0.0539,0.0545,0.0,0.0,0.0,0.0,0.0,0.0,0.0,0.0,0.0,0.0,0.0,0.0,0.0,0.0,0.0,0.0,0.0,0.0,0.0,0.0,0.0,0.0,0.0,0.0,0.0,0.0,0.0,0.0,0.0,0.0,0.0,0.0,0.0,0.0,0.0,0.0,0.0,0.0,0.0,0.0982,1.4751,1.2123,0.0,0.0,0.0,0.0,0.0,0.0,0.0,0.0,0.0,0.0,0.0,0.0,0.0,0.0,0.0,0.0,0.0,0.0,0.0,0.0,0.0,0.0,0.0,0.0,0.0,0.0,0.0,0.0,0.0,0.0,-0.0,-0.0,-0.3043,-0.4733,-0.3043,-0.4093,-0.5472,-0.5414,-0.5409,-0.5406,-0.5406,-0.5406,-0.5406,-0.5406,-0.5353,-0.5318,-0.5318,-0.5265,-0.5234,-0.5234,-0.5234,-0.5234,-0.5234,-0.5234,-0.5234,-0.5234,-0.5231,-0.5231,-0.5231,-0.5228,-0.5228,1.6253,1.4991,1.2436,0.608,0.2305,0.2071,0.9341,1.155,0.9833,0.1609,0.0,0.0,0.0,0.0,0.0,0.0,0.0,0.0,0.0,0.0,0.0,0.0,0.0,0.0,0.0,0.0,0.0,0.0,0.0,0.0,0.0,0.0,0.0,0.0,0.0,0.0,0.0,0.0,0.0,0.0,0.0,0.0,0.0,0.0,0.0,0.0,0.0,0.0,0.0327,0.4255,0.36,0.0,0.0,0.0,0.0,0.0,0.0,0.0,0.0,0.0,0.0,0.0,0.0,0.0,0.0,0.0,0.0,0.0,0.0,0.0,0.0,0.0,0.0,0.0,0.0,0.0,0.0,0.0,0.0,0.0,0.0,-0.0338,-0.169,-0.3719,-0.5071,-0.4733,-0.5051,-0.5364,-0.5348,-0.5345,-0.5329,-0.5287,-0.5281,-0.5281,-0.5281,-0.5268,-0.5258,-0.5258,-0.5242,-0.5234,-0.5234,-0.5234,-0.5234,-0.5234,-0.5234,-0.5234,-0.5234,-0.5191,-0.517,-0.5167,-0.5125,-0.5106,1.5725,1.5522,1.3316,0.4948,0.4489,0.7805,1.4513,1.5922,1.3195,0.2355,0.0,0.0,0.0,0.0,0.0,0.0,0.0,0.0,0.0,0.0,0.0,0.0,0.0,0.0,0.0,0.0,0.0,0.0,0.0,0.0,0.0,0.0,0.0,0.0,0.0,0.0,0.0,0.0,0.0,0.0,0.0,0.0,0.0,0.0,0.0,0.0,0.0,0.0,0.0,0.0,0.0,0.0,0.0,0.0,0.0,0.0,0.0,0.0,0.0,0.0,0.0,0.0,0.0,0.0,0.0,0.0,0.0,0.0,0.0,0.0,0.0,0.0,0.0,0.0,0.0,0.0,0.0,0.0,-0.033,-0.0991,-0.166,-0.2668,-0.3334,-0.4668,-0.5337,-0.5337,-0.5308,-0.5284,-0.5284,-0.5284,-0.5271,-0.5236,-0.5234,-0.5234,-0.5234,-0.5234,-0.5234,-0.5234,-0.5234,-0.5234,-0.5234,-0.5234,-0.5223,-0.5197,-0.5197,-0.5186,-0.5159,-0.5125,-0.5109,-0.5106,-0.5075,-0.5006,1.5175,1.5002,1.3637,0.8951,1.0955,1.4484,0.0,1.5803,1.2573,0.2795,0.129,0.1834,0.1592,0.0808,0.0,0.0,0.0,0.0,0.0,0.0,0.0,0.0,0.0,0.0,0.0,0.0,0.0,0.0,0.0,0.0,0.0,0.0,0.0,0.0,0.0,0.0,0.0,0.0,0.0,0.0,0.0,0.0,0.0,0.0,0.0,0.0,0.0,0.0,0.0,0.0,0.0,0.0,0.0,0.0,0.0,0.0,0.0,0.0,0.0,0.0,0.0,0.0,0.0,0.0,0.0,0.0,0.0,0.0,0.0,0.0,0.0,0.0,0.0,0.0,0.0,-0.0,-0.0327,-0.0327,-0.0982,-0.2616,-0.4253,-0.5234,-0.5234,-0.5234,-0.5234,-0.5234,-0.5234,-0.5234,-0.5234,-0.5234,-0.5234,-0.5234,-0.5234,-0.5234,-0.5234,-0.5234,-0.5234,-0.5234,-0.5228,-0.5223,-0.5223,-0.5218,-0.5189,-0.5136,-0.5136,-0.5106,-0.5048,-0.504,-0.5035,-0.5027,-0.5022,-0.4908,0.0,0.0,0.0,0.0,0.0,0.0,0.0,1.5031,1.3561,0.6907,0.9349,1.2382,1.2421,0.554,0.0,0.0,0.0,0.0,0.0,0.0,0.0,0.0,0.0,0.0,0.0,0.0,0.0,0.0,0.0,0.0,0.0,0.0,0.0,0.0,0.0,0.0,0.0,0.0,0.0,0.0,0.0,0.0,0.0,0.0,0.0,0.0,0.0,0.0,0.0,0.0,0.0,0.0,0.0,0.0,0.0,0.0,0.0,0.0,0.0,0.0,0.0,0.0,0.0,0.0,0.0,0.0,0.0,0.0,0.0,0.0,0.0,0.0,0.0,0.0,0.0,-0.0327,-0.1636,-0.3271,-0.4253,-0.458,-0.4907,-0.5234,-0.5234,-0.5234,-0.5234,-0.5234,-0.5234,-0.5234,-0.5234,-0.5234,-0.5234,-0.5234,-0.5234,-0.5234,-0.5234,-0.5234,-0.5234,-0.5234,-0.5189,-0.5162,-0.5162,-0.5117,-0.5085,-0.5075,-0.5075,-0.5048,-0.4993,-0.4945,-0.4894,-0.4847,-0.4802,-0.4754,0.0,0.0,0.0,0.0,0.0,0.0,0.0,0.0,0.0,0.0,0.0,1.4956,1.4815,0.0,0.6033,0.0792,0.0,0.0,0.0,0.0,0.0,0.0,0.0,0.0,0.0,0.0,0.0,0.0,0.0,0.0,0.0,0.0,0.0,0.0,0.0,0.0,0.0,0.0,0.0,0.0,0.0,-0.0952,-0.2554,-0.2554,-0.1601,0.0,0.0,0.0,0.0,0.0,0.0,0.0,0.0,0.0,0.0,0.0,0.0,0.0,0.0,0.0,0.0,0.0,0.0,0.0,0.0,0.0,0.0,0.0,-0.0641,-0.1287,-0.1287,-0.1287,-0.1289,-0.1297,-0.1948,-0.2926,-0.3593,-0.458,-0.5234,-0.5234,-0.5234,-0.5234,-0.5234,-0.5234,-0.5234,-0.5234,-0.5234,-0.5234,-0.5234,-0.5234,-0.5234,-0.5234,-0.5234,-0.5234,-0.5234,-0.5234,-0.5234,-0.5234,-0.5178,-0.5133,-0.5104,-0.5048,-0.5003,-0.4974,-0.4942,-0.49,-0.4844,-0.4812,-0.4783,-0.4751,-0.4606,-0.4537,0.0,0.0,0.0,0.0,0.0,0.0,0.0,0.0,0.0,0.0,0.0,0.0,0.0,0.0,0.0,0.285,0.0525,-0.0266,-0.081,-0.0273,0.0,0.0,-0.0549,-0.0554,-0.0,0.0,0.0,0.0,0.0,0.0,0.0,0.0,0.0,0.0,-0.0294,-0.0594,-0.0303,-0.0303,-0.0306,-0.0312,-0.0624,0.0,-0.47,-0.4083,-0.2833,-0.0946,-0.0316,0.0,-0.0,-0.0633,-0.0633,-0.0,-0.0313,-0.0312,-0.0312,-0.0312,-0.0312,-0.0312,-0.0312,-0.0312,-0.0312,-0.0312,-0.0312,-0.0312,-0.0312,-0.0313,0.0,-0.094,-0.1885,-0.2839,-0.2839,-0.2843,-0.2855,-0.2882,-0.4171,-0.5146,-0.5191,-0.5199,-0.5202,-0.5215,-0.5218,-0.522,-0.5231,-0.5215,-0.5202,-0.5215,-0.5207,-0.5207,-0.5231,-0.5223,-0.522,-0.5231,-0.5234,-0.5228,-0.5218,-0.5226,-0.5223,-0.5202,-0.5165,-0.5114,-0.5046,-0.4966,-0.4908,-0.4871,-0.4812,-0.4749,-0.4677,-0.4677,-0.4667,-0.464,-0.4428,-0.4338,0.0,0.0,0.0,0.0,0.0,0.0,0.0,0.0,0.0,0.0,0.0,0.0,0.0,0.0,0.0,0.0,0.2808,-0.0776,-0.3148,-0.1579,0.0,0.0,-0.2153,-0.2733,-0.0273,0.0,0.0,0.0,0.0,0.0,0.0,0.0,0.0,0.0,0.0,-0.2063,-0.2069,-0.2069,-0.2072,-0.2078,-0.3265,-0.4181,-0.4529,-0.1831,-0.1851,-0.3741,-0.126,0.0,-0.0316,-0.2847,-0.2531,-0.0,-0.151,-0.2078,-0.2078,-0.2078,-0.2078,-0.2078,-0.2078,0.0,0.0,-0.2078,-0.2078,-0.2078,-0.2078,-0.2094,-0.2413,-0.3621,-0.429,-0.4362,-0.4362,-0.4396,-0.4748,-0.4755,-0.4758,-0.5075,-0.5077,-0.5077,-0.5093,-0.5146,-0.5154,-0.5173,-0.5226,-0.5146,-0.5096,-0.5146,-0.5112,-0.5114,-0.522,-0.5189,-0.5175,-0.5228,-0.5234,0.0,-0.5159,-0.5205,-0.5189,-0.5083,-0.512,-0.5096,-0.499,-0.4828,-0.4762,-0.4807,-0.4751,-0.4667,-0.4555,-0.4555,-0.4502,-0.4402,-0.4269,-0.4237,0.0,0.0,0.0,0.0,0.0,0.0,0.0,0.0,0.0,0.0,0.0,0.0,0.0,0.0,0.0,0.0,0.4707,0.1749,-0.1246,-0.1255,-0.1266,-0.2296,-0.3404,-0.3462,-0.2397,-0.0815,0.0,0.0,-0.0829,-0.1116,-0.113,-0.1131,-0.1707,-0.2593,-0.317,-0.347,-0.3494,-0.3494,-0.3506,-0.3826,-0.4417,-0.4725,-0.4749,-0.3282,-0.2998,-0.3013,-0.1818,-0.1215,-0.1518,-0.3643,-0.334,-0.1515,0.0,0.0,0.0,0.0,-0.3532,-0.3532,-0.3532,-0.3532,-0.3532,-0.3532,-0.3532,-0.3532,-0.3532,-0.3546,-0.3856,-0.445,-0.4783,-0.4519,-0.4519,-0.4839,-0.4868,-0.4902,-0.4937,-0.4971,-0.5003,-0.5035,-0.5064,-0.5088,-0.5093,0.0,-0.504,-0.5019,-0.5019,-0.5043,-0.5053,-0.5075,-0.5125,-0.5109,-0.5104,-0.5128,-0.513,-0.512,-0.5096,-0.5117,0.0,0.0,0.0,-0.4974,-0.4926,-0.4786,0.0,0.0,0.0,-0.4502,-0.4386,-0.4386,0.0,0.0,-0.3729,-0.4204,0.0,0.0,0.0,0.0,0.0,0.0,0.0,0.0,0.0,0.0,0.0,0.0,0.0,0.0,0.0,0.0,0.6464,0.4099,0.1899,-0.0721,-0.2682,-0.3959,-0.4054,-0.3606,-0.2846,-0.1327,-0.0809,-0.1079,-0.2172,-0.274,-0.2766,-0.2768,-0.3335,-0.4492,-0.4492,-0.4518,-0.4574,-0.4576,-0.4606,-0.4664,-0.4664,-0.4664,-0.4664,-0.468,-0.41,-0.2929,-0.2939,-0.2943,-0.2943,-0.4121,-0.3532,-0.2352,-0.377,-0.4328,-0.4328,-0.4328,-0.4328,-0.4328,-0.4328,-0.4328,-0.4328,-0.4328,-0.4328,-0.433,-0.4345,-0.464,-0.4643,-0.4659,-0.4675,-0.4685,-0.4685,-0.4698,-0.4722,-0.4765,-0.4807,-0.4849,-0.4894,-0.4934,-0.4966,-0.4982,-0.4974,-0.4937,-0.4852,-0.4873,-0.4908,-0.4924,-0.4947,-0.4979,-0.503,-0.5022,-0.5022,-0.5053,-0.5056,-0.5051,-0.5035,-0.5035,-0.5022,-0.4987,-0.4908,-0.4849,-0.4815,-0.4733,-0.4632,-0.4513,-0.4441,-0.4346,0.0,0.0,0.0,0.0,0.0,0.0,0.0,0.0,0.0,0.0,0.0,0.0,0.0,0.0,0.0,0.0,0.0,0.0,0.0,0.0,0.0,0.0,0.0,0.0,0.5053,-0.0232,-0.4018,-0.384,-0.3898,-0.2966,-0.0251,-0.129,-0.2358,-0.393,-0.4032,-0.4092,-0.4094,-0.4367,-0.4367,-0.437,-0.437,-0.4399,-0.4457,-0.4457,-0.4486,-0.4539,-0.4539,-0.4539,-0.4542,-0.46,-0.4335,-0.434,-0.4392,-0.4417,-0.4417,-0.4417,-0.3532,-0.2343,-0.3905,-0.4375,-0.4375,-0.4375,-0.4375,-0.4375,-0.4375,-0.4375,-0.4375,-0.4375,-0.4375,-0.4386,-0.4444,-0.446,-0.4473,-0.4526,-0.4582,-0.4624,-0.4624,-0.4669,-0.4712,-0.4712,-0.4714,-0.4717,-0.472,-0.472,-0.4738,-0.4796,-0.4762,-0.472,-0.4717,-0.4717,-0.4738,-0.4796,-0.4757,0.0,-0.4955,-0.4929,-0.4934,-0.5046,-0.5056,-0.5035,-0.4982,-0.4979,-0.4929,-0.4815,-0.4804,-0.4751,-0.4635,-0.4627,-0.4571,-0.4457,-0.4341,-0.3696,-0.2822,0.0,0.0,0.0,0.0,0.0,0.0,0.0,0.0,0.0,0.0,0.0,0.0,0.0,0.0,0.0,0.0,0.0,0.0,0.0,0.0,0.0,0.0,0.0,0.0,0.1335,-0.1805,-0.3481,-0.1189,-0.0242,-0.2437,-0.05,-0.0508,-0.407,-0.4107,-0.4147,-0.4187,-0.4227,-0.4266,-0.4306,-0.4343,-0.4375,-0.4394,-0.4394,-0.4404,-0.4423,-0.4423,-0.4423,-0.4423,-0.4441,-0.4452,-0.4452,-0.4473,-0.4481,-0.4481,-0.4481,-0.3921,-0.3635,-0.4122,-0.4364,-0.4364,-0.4364,-0.4364,-0.4364,-0.4364,-0.4364,-0.4364,-0.4364,-0.4364,-0.4367,-0.4388,-0.4394,-0.4399,-0.4417,-0.4436,-0.4452,-0.4452,-0.4465,-0.4492,-0.4531,-0.4569,-0.4606,-0.4643,-0.4682,-0.4717,-0.4735,-0.46,-0.4494,-0.4534,-0.4569,-0.4614,-0.4675,-0.4698,-0.4733,-0.4791,-0.4783,-0.4786,-0.4823,-0.4828,-0.482,-0.4802,-0.4802,-0.4783,-0.4743,-0.4704,-0.4645,-0.4569,-0.4529,-0.4455,-0.4338,-0.4258,-0.3901,-0.3536,0.0,0.0,0.0,0.0,0.0,0.0,0.0,0.0,0.0,0.0,0.0,0.0,0.0,0.0,0.0,0.0,0.0,0.0,0.0,0.0,0.0,0.0,0.0,0.0,0.0,0.0,-0.3366,-0.023,0.0,-0.1414,0.1445,0.1955,-0.0734,-0.1475,-0.1985,-0.2519,-0.3562,-0.4121,-0.4179,-0.4219,-0.4251,-0.4269,-0.429,-0.4311,-0.4333,-0.4354,-0.4364,-0.4364,-0.4364,-0.4364,-0.4364,-0.4364,-0.4364,-0.4357,-0.4274,-0.424,-0.3973,-0.2912,-0.2118,-0.1853,-0.2382,-0.2382,-0.2647,-0.3708,-0.424,-0.424,-0.424,-0.3443,-0.2385,-0.2396,-0.1599,-0.1067,-0.2145,-0.2418,-0.269,-0.4057,-0.4333,-0.4349,-0.4407,-0.4449,-0.4484,-0.4523,-0.4561,-0.4582,-0.4561,-0.4436,-0.4351,-0.4412,-0.4452,-0.4494,-0.4553,-0.4595,-0.4635,-0.4675,-0.468,-0.4688,-0.4709,-0.4712,-0.4712,-0.4712,-0.4693,-0.468,-0.468,-0.4606,-0.4545,-0.4508,-0.4412,-0.4314,-0.4216,-0.4134,-0.3532,0.0,0.0,0.0,0.0,0.0,0.0,0.0,0.0,0.0,0.0,0.0,0.0,0.0,0.0,0.0,0.0,0.0,0.0,0.0,0.0,0.0,0.0,0.0,0.0,0.0,0.0,0.0,-0.3255,-0.0661,0.0,0.0,0.0,0.0,0.5129,0.3311,0.1681,0.0731,-0.2199,-0.3694,-0.3746,-0.4001,-0.4031,-0.4092,-0.4147,-0.4205,-0.4264,-0.4319,-0.4346,-0.4346,-0.4346,-0.4346,-0.4346,-0.4346,-0.4346,-0.433,-0.4097,-0.4004,-0.3501,-0.05,0.1498,0.2247,0.1248,0.0999,0.0499,-0.2749,-0.3751,-0.3751,-0.3751,-0.175,0.0751,0.1015,0.3057,0.0,0.0,0.0781,-0.0261,-0.3182,-0.4261,-0.4277,-0.4338,-0.4351,-0.4351,-0.4354,-0.4357,-0.4338,-0.4274,-0.4264,-0.4282,-0.4341,0.0,-0.4375,-0.4436,-0.4447,-0.4489,-0.46,-0.4614,-0.4637,-0.4696,-0.4701,-0.4701,-0.4701,-0.4651,-0.4616,-0.4614,-0.4513,-0.4449,-0.4441,-0.4277,-0.4155,-0.4089,-0.3975,0.0,0.0,0.0,0.0,0.0,0.0,0.0,0.0,0.0,0.0,0.0,0.0,0.0,0.0,0.0,0.0,0.0,0.0,0.0,0.0,0.0,0.0,0.0,0.0,0.0,0.0,0.0997,-0.3038,-0.3344,0.234,0.7355,0.0,0.0,0.0,0.0,0.0,0.0,0.3947,0.1647,0.0,-0.0476,-0.2655,-0.3911,-0.3967,-0.3983,-0.402,-0.4081,-0.4094,-0.4102,-0.4102,-0.4102,-0.4102,-0.4102,-0.4102,-0.4102,-0.4092,-0.3946,-0.2667,-0.0484,0.0968,0.266,0.4111,0.3869,0.3869,0.3385,0.0484,-0.0727,-0.0727,-0.0727,-0.0,0.0969,0.3159,0.0,0.0,0.0,0.0,0.0249,-0.05,-0.2526,-0.4094,-0.4152,-0.4168,-0.4179,-0.4224,-0.4235,-0.4203,-0.4099,-0.4081,-0.4097,-0.4158,-0.4205,0.0,-0.4311,-0.4359,-0.4415,-0.4486,-0.4497,-0.4518,-0.4574,-0.4579,-0.4579,-0.4579,-0.4566,-0.4539,-0.45,-0.447,-0.4394,-0.4261,-0.4213,-0.4099,-0.3911,0.0,0.0,0.0,0.0,0.0,0.0,0.0,0.0,0.0,0.0,0.0,0.0,0.0,0.0,0.0,0.0,0.0,0.0,0.0,0.0,0.0,0.0,0.0,0.0,0.0,0.0,0.0,0.2855,-0.0195,0.0,0.4916,0.9184,0.0,0.0,0.0,0.0,0.0,0.0,0.0,0.0,0.0,0.252,0.0931,-0.0471,-0.1189,-0.1677,-0.2657,-0.3898,-0.3925,-0.3938,-0.3938,-0.3938,-0.3938,-0.3938,-0.3938,-0.3909,-0.3856,-0.2367,-0.0234,0.2321,0.0,0.0,0.0,0.0,0.6654,0.6196,0.3214,0.2296,0.2296,0.2296,0.0,0.0,0.0,0.0,0.0,0.0,0.0,0.2123,0.0718,-0.1693,-0.3914,-0.3972,-0.3988,-0.4004,-0.406,-0.4012,-0.3699,-0.2684,-0.2435,-0.2452,-0.2505,-0.2531,0.0,0.0,0.0,-0.5651,-0.464,-0.5491,-0.5814,-0.4492,-0.4476,-0.447,-0.4497,-0.4476,-0.4447,-0.4417,-0.4364,-0.4293,-0.4192,-0.4092,-0.3951,0.0,0.0,0.0,0.0,0.0,0.0,0.0,0.0,0.0,0.0,0.0,0.0,0.0,0.0,0.0,0.0,0.0,0.0,0.0,0.0,0.0,0.0,0.0,0.0,0.0,0.0,0.0,0.0,0.0,0.4342,0.463,0.0,0.0,0.0,0.0,0.0,0.0,0.0,0.0,0.0,0.0,0.0,0.0,0.0,0.4501,0.2474,0.1378,-0.0232,-0.2797,-0.3553,-0.358,-0.3101,-0.358,-0.3819,-0.3816,-0.3787,0.0,-0.2939,0.0,0.0,0.0,0.0,0.0,0.0,0.0,0.0,0.0,0.0,0.0,0.0,0.0,0.0,0.0,0.0,0.0,0.0,0.0,0.0,0.0,0.0,0.0,-0.3274,-0.3795,-0.3813,-0.3585,-0.2886,-0.2801,-0.205,-0.0,0.0232,0.0235,0.0,0.0,0.0,0.0,0.0,0.0,-0.5053,-0.7,-0.7635,-0.5814,-0.4668,-0.4386,-0.499,-0.4668,-0.4357,-0.4343,-0.4245,-0.4174,-0.4145,-0.3948,0.0,0.0,0.0,0.0,0.0,0.0,0.0,0.0,0.0,0.0,0.0,0.0,0.0,0.0,0.0,0.0,0.0,0.0,0.0,0.0,0.0,0.0,0.0,0.0,0.0,0.0,0.0,0.0,0.0,0.0,0.0,0.0,0.0,0.0,0.0,0.0,0.0,0.0,0.0,0.0,0.0,0.0,0.0,0.0,0.0,0.0,0.0,0.0,0.0,0.0,-0.1602,-0.2077,0.0922,-0.2309,-0.3697,-0.3686,-0.3711,-0.2334,0.0,0.2739,0.0,0.0,0.0,0.0,0.0,0.0,0.0,0.0,0.0,0.0,0.0,0.0,0.0,0.0,0.0,0.0,0.0,0.0,0.0,0.0,0.0,0.0,-0.0901,-0.2941,-0.366,-0.2513,0.1975,0.0,0.0,0.0,0.0,0.0,0.0,0.0,0.0,0.0,0.0,0.0,-0.7581,-0.7961,-0.9144,-1.0893,-0.709,-0.5182,-0.7644,-0.5731,-0.4322,-0.4224,-0.42,-0.4102,0.0,0.0,0.0,0.0,0.0,0.0,0.0,0.0,0.0,0.0,0.0,0.0,0.0,0.0,0.0,0.0,0.0,0.0,0.0,0.0,0.0,0.0,0.0,0.0,0.0,0.0,0.0,0.0,0.0,0.0,0.0,0.0,0.0,0.0,0.0,0.0,0.0,0.0,0.0,0.0,0.0,0.0,0.0,0.0,0.0,0.0,0.0,0.0,0.0,0.0,0.0,0.0,0.0,0.0,0.0,0.0,0.0,0.0,-0.1475,0.1033,0.0,0.0,0.0,0.0,0.0,0.0,0.0,0.0,0.0,0.0,0.0,0.0,0.0,0.0,0.0,0.0,0.0,0.0,0.0,0.0,0.0,0.0,0.0,0.0,0.0,0.0,0.0,0.0,0.0,0.0,0.0,0.0,0.0,0.0,0.0,0.0,0.0,0.0,0.0,0.0,-0.8226,-1.05,-1.1789,-1.0363,-0.7995,-0.6418,-0.6462,-0.5057,-0.4203,-0.4147,-0.4057,0.0,0.0,0.0,0.0,0.0,0.0,0.0,0.0,0.0,0.0,0.0,0.0,0.0,0.0,0.0,0.0,0.0,0.0,0.0,0.0,0.0,0.0,0.0,0.0,0.0,0.0,0.0,0.0,0.0,0.0,0.0,0.0,0.0,0.0,0.0,0.0,0.0,0.0,0.0,0.0,0.0,0.0,0.0,0.0,0.0,0.0,0.0,0.0,0.0,0.0,0.0,0.0,0.0,0.0,0.0,0.0,0.0,0.0,0.0,0.2237,0.5243,0.0,0.0,0.0,0.0,0.0,0.0,0.0,0.0,0.0,0.0,0.0,0.0,0.0,0.0,0.0,0.0,0.0,0.0,0.0,0.0,0.0,0.0,0.0,0.0,0.0,0.0,0.0,0.0,0.0,0.0,0.0,0.0,0.0,0.0,0.0,0.0,0.0,0.0,0.0,0.0,-0.8835,-1.2885,-1.4814,-1.1146,-0.9588,-0.8332,-0.6078,-0.5432,-0.4579,-0.4046,-0.3917,0.0,0.0,0.0,0.0,0.0,0.0,0.0,0.0,0.0,0.0,0.0,0.0,0.0,0.0,0.0,0.0,0.0,0.0,0.0,0.0,0.0,0.0,0.0,0.0,0.0,0.0,0.0,0.0,0.0,0.0,0.0,0.0,0.0,0.0,0.0,0.0,0.0,0.0,0.0,0.0,0.0,0.0,0.0,0.0,0.0,0.0,0.0,0.0,0.0,0.0,0.0,0.0,0.0,0.0,0.0,0.0,0.0,0.0,0.0,0.0,0.0,0.0,0.0,0.0,0.0,0.0,0.0,0.0,0.0,0.0,0.0,0.0,0.0,0.0,0.0,0.0,0.0,0.0,0.0,0.0,0.0,0.0,0.0,0.0,0.0,0.0,0.0,0.0,0.0,0.0,0.0,0.0,0.0,0.0,0.0,0.0,0.0,0.0,0.0,0.0,0.0,-1.1429,-1.3995,-1.6605,-1.9122,-1.44,-1.1357,-1.1784,-0.9103,-0.6449,-0.4113,0.0,0.0,0.0,0.0,0.0,0.0,0.0,0.0,0.0,0.0,0.0,0.0,0.0,0.0,0.0,0.0,0.0,0.0,0.0,0.0,0.0,0.0,0.0,0.0,0.0,0.0,0.0,0.0,0.0,0.0,0.0,0.0,0.0,0.0,0.0,0.0,0.0,0.0,0.0,0.0,0.0,0.0,0.0,0.0,0.0,0.0,0.0,0.0,0.0,0.0,0.0,0.0,0.0,0.0,0.0,0.0,0.0,0.0,0.0,0.0,0.0,0.0,0.0,0.0,0.0,0.0,0.0,0.0,0.0,0.0,0.0,0.0,0.0,0.0,0.0,0.0,0.0,0.0,0.0,0.0,0.0,0.0,0.0,0.0,0.0,0.0,0.0,0.0,0.0,0.0,0.0,0.0,0.0,0.0,0.0,0.0,0.0,0.0,0.0,0.0,0.0,0.0,-1.1573,-1.5033,-1.7592,-1.7361,-1.5451,-1.3022,-0.9834,-0.8463,-0.6611,-0.4085,0.0,0.0,0.0,0.0,0.0,0.0,0.0,0.0,0.0,0.0,0.0,0.0,0.0,0.0,0.0,0.0,0.0,0.0,0.0,0.0,0.0,0.0,0.0,0.0,0.0,0.0,0.0,0.0,0.0,0.0,0.0,0.0,0.0,0.0,0.0,0.0,0.0,0.0,0.0,0.0,0.0,0.0,0.0,0.0,0.0,0.0,0.0,0.0,0.0,0.0,0.0,0.0,0.0,0.0,0.0,0.0,0.0,0.0,0.0,0.0,0.0,0.0,0.0,0.0,0.0,0.0,0.0,0.0,0.0,0.0,0.0,0.0,0.0,0.0,0.0,0.0,0.0,0.0,0.0,0.0,0.0,0.0,0.0,0.0,0.0,0.0,0.0,0.0,0.0,0.0,0.0,0.0,0.0,0.0,0.0,0.0,0.0,0.0,0.0,0.0,0.0,0.0,-1.0978,-1.5769,-1.8358,-1.6705,-1.6644,-1.4562,-0.9432,-0.8787,-0.743,-0.4004,0.0,0.0,0.0,0.0,0.0,0.0,0.0,0.0,0.0,0.0,0.0,0.0,0.0,0.0,0.0,0.0,0.0,0.0,0.0,0.0,0.0,0.0,0.0,0.0,0.0,0.0,0.0,0.0,0.0,0.0,0.0,0.0,0.0,0.0,0.0,0.0,0.0,0.0,0.0,0.0,0.0,0.0,0.0,0.0,0.0,0.0,0.0,0.0,0.0,0.0,0.0,0.0,0.0,0.0,0.0,0.0,0.0,0.0,0.0,0.0,0.0,0.0,0.0,0.0,0.0,0.0,0.0,0.0,0.0,0.0,0.0,0.0,0.0,0.0,0.0,0.0,0.0,0.0,0.0,0.0,0.0,0.0,0.0,0.0,0.0,0.0,0.0,0.0,0.0,0.0,0.0,0.0,0.0,0.0,0.0,0.0,0.0,0.0,0.0,0.0,0.0,0.0,-1.0405,-1.5421,-1.8789,-1.9066,-1.9092,-1.7056,-1.2201,-1.1658,-0.9232,0.0,0.0,0.0,0.0,0.0,0.0,0.0,0.0,0.0,0.0,0.0,0.0,0.0,0.0,0.0,0.0,0.0,0.0,0.0,0.0,0.0,0.0,0.0,0.0,0.0,0.0,0.0,0.0,0.0,0.0,0.0,0.0,0.0,0.0,0.0,0.0,0.0,0.0,0.0,0.0,0.0,0.0,0.0,0.0,0.0,0.0,0.0,0.0,0.0,0.0,0.0,0.0,0.0,0.0,0.0,0.0,0.0,0.0,0.0,0.0,0.0,0.0,0.0,0.0,0.0,0.0,0.0,0.0,0.0,0.0,0.0,0.0,0.0,0.0,0.0,0.0,0.0,0.0,0.0,0.0,0.0,0.0,0.0,0.0,0.0,0.0,0.0,0.0,0.0,0.0,0.0,0.0,0.0,0.0,0.0,0.0,0.0,0.0,0.0,0.0,0.0,0.0,0.0,-1.0166,-1.3561,-1.6368,-1.8244,-1.8499,-1.6459,-1.1656,-1.1096,-0.8853,-0.3745,0.0,0.0,0.0,0.0,0.0,0.0,0.0,0.0,0.0,0.0,0.0,0.0,0.0,0.0,0.0,0.0,0.0,0.0,0.0,0.0,0.0,0.0,0.0,0.0,0.0,0.0,0.0,0.0,0.0,0.0,0.0,0.0,0.0,0.0,0.0,0.0,0.0,0.0,0.0,0.0,0.0,0.0,0.0,0.0,0.0,0.0,0.0,0.0,0.0,0.0,0.0,0.0,0.0,0.0,0.0,0.0,0.0,0.0,0.0,0.0,0.0,0.0,0.0,0.0,0.0,0.0,0.0,0.0,0.0,0.0,0.0,0.0,0.0,0.0,0.0,0.0,0.0,0.0,0.0,0.0,0.0,0.0,0.0,0.0,0.0,0.0,0.0,0.0,0.0,0.0,0.0,0.0,0.0,0.0,0.0,0.0,0.0,0.0,0.0,0.0,0.0,0.0,0.0,-1.3475,-1.6196,-1.8038,-1.7482,-1.5273,-1.118,-1.0826,-0.864,-0.3893,0.0,0.0,0.0,0.0,0.0,0.0,0.0,0.0,0.0,0.0,0.0,0.0,0.0,0.0,0.0,0.0,0.0,0.0,0.0,0.0,0.0,0.0,0.0,0.0,0.0,0.0,0.0,0.0,0.0,0.0,0.0,0.0,0.0,0.0,0.0,0.0,0.0,0.0,0.0,0.0,0.0,0.0,0.0,0.0,0.0,0.0,0.0,0.0,0.0,0.0,0.0,0.0,0.0,0.0,0.0,0.0,0.0,0.0,0.0,0.0,0.0,0.0,0.0,0.0,0.0,0.0,0.0,0.0,0.0,0.0,0.0,0.0,0.0,0.0,0.0,0.0,0.0,0.0,0.0,0.0,0.0,0.0,0.0,0.0,0.0,0.0,0.0,0.0,0.0,0.0,0.0,0.0,0.0,0.0,0.0,0.0,0.0,0.0,0.0,0.0,0.0,0.0,0.0,-1.4223,-1.7012,-1.7476,-1.5732,-1.3608,-1.1124,-1.058,-0.8597,-0.4028,-0.6983,0.0,0.0,0.0,0.0,0.0,0.0,0.0,0.0,0.0,0.0,0.0,0.0,0.0,0.0,0.0,0.0,0.0,0.0,0.0,0.0,0.0,0.0,0.0,0.0,0.0,0.0,0.0,0.0,0.0,0.0,0.0,0.0,0.0,0.0,0.0,0.0,0.0,0.0,0.0,0.0,0.0,0.0,0.0,0.0,0.0,0.0,0.0,0.0,0.0,0.0,0.0,0.0,0.0,0.0,0.0,0.0,0.0,0.0,0.0,0.0,0.0,0.0,0.0,0.0,0.0,0.0,0.0,0.0,0.0,0.0,0.0,0.0,0.0,0.0,0.0,0.0,0.0,0.0,0.0,0.0,0.0,0.0,0.0,0.0,0.0,0.0,0.0,0.0,0.0,0.0,0.0,0.0,0.0,0.0,0.0,0.0,0.0,0.0,0.0,0.0,0.0,0.0,-1.1886,-1.2381,-1.4344,-1.3973,-1.272,-1.0358,-1.0151,-0.8713,-0.5919,-0.5067,0.0,0.0,0.0,0.0,0.0,0.0,0.0,0.0,0.0,0.0,0.0,0.0,0.0,0.0,0.0,0.0,0.0,0.0,0.0,0.0,0.0,0.0,0.0,0.0,0.0,0.0,0.0,0.0,0.0,0.0,0.0,0.0,0.0,0.0,0.0,0.0,0.0,0.0,0.0,0.0,0.0,0.0,0.0,0.0,0.0,0.0,0.0,0.0,0.0,0.0,0.0,0.0,0.0,0.0,0.0,0.0,0.0,0.0,0.0,0.0,0.0,0.0,0.0,0.0,0.0,0.0,0.0,0.0,0.0,0.0,0.0,0.0,0.0,0.0,0.0,0.0,0.0,0.0,0.0,0.0,0.0,0.0,0.0,0.0,0.0,0.0,0.0,0.0,0.0,0.0,0.0,0.0,0.0,0.0,0.0,0.0,0.0,0.0,0.0,0.0,0.0,0.0,-0.8734,-1.1201,-1.4416,-1.3805,-1.2755,-1.1507,-1.03,-0.8734,-0.6647,-0.3175,0.0,0.0,0.0,0.0,0.0,0.0,0.0,0.0,0.0,0.0,0.0,0.0,0.0,0.0,0.0,0.0,0.0,0.0,0.0,0.0,0.0,0.0,0.0,0.0,0.0,0.0,0.0,0.0,0.0,0.0,0.0,0.0,0.0,0.0,0.0,0.0,0.0,0.0,0.0,0.0,0.0,0.0,0.0,0.0,0.0,0.0,0.0,0.0,0.0,0.0,0.0,0.0,0.0,0.0,0.0,0.0,0.0,0.0,0.0,0.0,0.0,0.0,0.0,0.0,0.0,0.0,0.0,0.0,0.0,0.0,0.0,0.0,0.0,0.0,0.0,0.0,0.0,0.0,0.0,0.0,0.0,0.0,0.0,0.0,0.0,0.0,0.0,0.0,0.0,0.0,0.0,0.0,0.0,0.0,0.0,0.0,0.0,0.0,0.0,0.0,0.0,0.0,0.0,-1.1681,-1.5159,-1.3758,-1.2524,-1.2524,-1.0311,-0.8207,-0.6414,0.0,0.0,0.0,0.0,0.0,0.0,0.0,0.0,0.0,0.0,0.0,0.0,0.0,0.0,0.0,0.0,0.0,0.0,0.0,0.0,0.0,0.0,0.0,0.0,0.0,0.0,0.0,0.0,0.0,0.0,0.0,0.0,0.0,0.0,0.0,0.0,0.0,0.0,0.0,0.0,0.0,0.0,0.0,0.0,0.0,0.0,0.0,0.0,0.0,0.0,0.0,0.0,0.0,0.0,0.0,0.0,0.0,0.0,0.0,0.0,0.0,0.0,0.0,0.0,0.0,0.0,0.0,0.0,0.0,0.0,0.0,0.0,0.0,0.0,0.0,0.0,0.0,0.0,0.0,0.0,0.0,0.0,0.0,0.0,0.0,0.0,0.0,0.0,0.0,0.0,0.0,0.0,0.0,0.0,0.0,0.0,0.0,0.0,0.0,0.0,0.0,0.0,0.0,0.0,-1.1667,-1.067,-1.0286,-1.0085,-1.0085,-0.7941,-0.6685,-0.6292,0.0,0.0,0.0,0.0,0.0,0.0,0.0,0.0,0.0,0.0,0.0,0.0,0.0,0.0]}]]]